[[{"header":{"parameterUnit":"m.s-1","parameterCategory":1,"la1":30.6,"la2":29.2853,"lo1":-89.7004,"lo2":-87.6739,"dy":0.0162,"dx":0.0183,"nx":112,"ny":82,"refTime":"2024-09-06T12:00:00:Z","depth":0,"parameterNumber":2,"parameterNumberName":"U-component_of_WINDS"},"data":[0.0,0.0,0.0,0.0,0.0,0.0,0.0,0.0,0.0,0.0,0.0,0.0,0.0,0.0,0.0,0.0,0.0,0.0,0.0,0.0,0.0,0.0,0.0,0.0,0.0,0.0,0.0,0.0,0.0,0.0,0.0,0.0,0.0,0.0,0.0,0.0,0.0,0.0,0.0,0.0,0.0,0.0,0.0,0.0,0.0,0.0,0.0,0.0,0.0,0.0,0.0,0.0,0.0,0.0,0.0,0.0,0.0,0.0,0.0,0.0,0.0,0.0,0.0,0.0,0.0,0.0,0.0,0.0,0.0,0.0,0.0,0.0,0.0,0.0,0.0,0.0,0.0,0.0,0.0,0.0,0.0,0.0,0.0,0.0,0.0,0.0,0.0,0.0,0.0,0.0,0.0,2.9804,2.9804,2.9804,2.9804,2.9804,2.9302,2.8172,0.0,0.0,0.0,0.0,0.0,0.0,0.0,0.0,0.0,0.0,0.0,0.0,0.0,0.0,0.0,0.0,0.0,0.0,0.0,0.0,0.0,0.0,0.0,0.0,0.0,0.0,0.0,0.0,0.0,0.0,0.0,0.0,0.0,0.0,0.0,0.0,0.0,0.0,0.0,0.0,0.0,0.0,0.0,0.0,0.0,0.0,0.0,0.0,0.0,0.0,0.0,0.0,0.0,0.0,0.0,0.0,0.0,0.0,0.0,0.0,0.0,0.0,0.0,0.0,0.0,0.0,0.0,0.0,0.0,0.0,0.0,0.0,0.0,0.0,0.0,0.0,0.0,0.0,0.0,0.0,0.0,0.0,0.0,0.0,0.0,0.0,0.0,0.0,0.0,0.0,0.0,0.0,0.0,0.0,0.0,0.0,0.0,0.0,0.0,0.0,0.0,0.0,0.0,0.0,2.9804,2.9804,2.9804,2.9804,2.9804,2.9804,2.9302,2.8172,0.0,0.0,0.0,0.0,0.0,0.0,0.0,0.0,0.0,0.0,0.0,0.0,0.0,0.0,0.0,0.0,0.0,0.0,0.0,0.0,0.0,0.0,0.0,0.0,0.0,0.0,0.0,0.0,0.0,0.0,0.0,0.0,0.0,0.0,0.0,0.0,0.0,0.0,0.0,0.0,0.0,0.0,0.0,0.0,0.0,0.0,0.0,0.0,0.0,0.0,0.0,0.0,0.0,0.0,0.0,0.0,0.0,0.0,0.0,0.0,0.0,0.0,0.0,0.0,0.0,0.0,0.0,0.0,0.0,0.0,0.0,0.0,0.0,0.0,0.0,0.0,0.0,0.0,0.0,0.0,0.0,0.0,0.0,0.0,0.0,0.0,0.0,0.0,0.0,0.0,0.0,0.0,0.0,0.0,0.0,0.0,0.0,0.0,0.0,0.0,0.0,0.0,0.0,2.9478,2.9804,2.9804,2.9804,2.9804,2.9804,2.9503,2.8976,2.8147,2.7017,0.0,0.0,0.0,0.0,0.0,0.0,0.0,0.0,0.0,0.0,0.0,0.0,0.0,0.0,0.0,0.0,0.0,0.0,0.0,0.0,0.0,0.0,0.0,0.0,0.0,0.0,0.0,0.0,0.0,0.0,0.0,0.0,0.0,0.0,0.0,0.0,0.0,0.0,0.0,0.0,0.0,0.0,0.0,0.0,0.0,0.0,0.0,0.0,0.0,0.0,0.0,0.0,0.0,0.0,0.0,0.0,0.0,0.0,0.0,0.0,0.0,0.0,0.0,0.0,0.0,0.0,0.0,0.0,0.0,0.0,0.0,0.0,0.0,0.0,0.0,0.0,0.0,0.0,0.0,0.0,0.0,0.0,0.0,0.0,0.0,0.0,0.0,0.0,0.0,0.0,0.0,0.0,0.0,0.0,0.0,0.0,0.0,0.0,0.0,0.0,0.0,0.0,2.9804,2.9804,2.9804,2.9804,2.9804,2.9804,2.9258,2.8631,2.7946,2.6465,0.0,0.0,0.0,0.0,0.0,0.0,0.0,0.0,0.0,0.0,0.0,0.0,0.0,0.0,0.0,0.0,0.0,0.0,0.0,0.0,0.0,0.0,0.0,0.0,0.0,0.0,0.0,0.0,0.0,0.0,0.0,0.0,0.0,0.0,0.0,0.0,0.0,0.0,0.0,0.0,0.0,0.0,0.0,0.0,0.0,0.0,0.0,0.0,0.0,0.0,0.0,0.0,0.0,0.0,0.0,0.0,0.0,0.0,0.0,0.0,0.0,0.0,0.0,0.0,0.0,0.0,0.0,0.0,0.0,0.0,0.0,0.0,0.0,0.0,0.0,0.0,0.0,0.0,0.0,0.0,0.0,0.0,0.0,0.0,0.0,0.0,0.0,0.0,0.0,0.0,0.0,0.0,0.0,0.0,0.0,0.0,0.0,0.0,0.0,0.0,0.0,0.0,2.9804,2.9804,2.9804,2.9804,2.9804,2.9804,2.9258,2.8455,2.7412,2.6239,0.0,0.0,0.0,0.0,0.0,0.0,0.0,0.0,0.0,0.0,0.0,0.0,0.0,0.0,0.0,0.0,0.0,0.0,0.0,0.0,0.0,0.0,0.0,0.0,0.0,0.0,0.0,0.0,0.0,0.0,0.0,0.0,0.0,0.0,0.0,0.0,0.0,0.0,0.0,0.0,0.0,0.0,0.0,0.0,0.0,0.0,0.0,0.0,0.0,0.0,0.0,0.0,0.0,0.0,0.0,0.0,0.0,0.0,0.0,0.0,0.0,0.0,0.0,0.0,0.0,0.0,0.0,0.0,0.0,0.0,0.0,0.0,0.0,0.0,0.0,0.0,0.0,0.0,0.0,0.0,0.0,0.0,0.0,0.0,0.0,0.0,0.0,0.0,0.0,0.0,0.0,0.0,0.0,0.0,0.0,0.0,0.0,0.0,0.0,0.0,0.0,0.0,2.9804,2.9804,0.0,2.9804,2.9804,2.9804,2.895,2.8097,2.7361,0.0,0.0,0.0,0.0,0.0,0.0,0.0,0.0,0.0,0.0,0.0,0.0,0.0,0.0,0.0,0.0,0.0,0.0,0.0,0.0,0.0,0.0,0.0,0.0,0.0,0.0,0.0,0.0,0.0,0.0,0.0,0.0,0.0,0.0,0.0,0.0,0.0,0.0,0.0,0.0,0.0,0.0,0.0,0.0,0.0,0.0,0.0,0.0,0.0,0.0,0.0,0.0,0.0,0.0,0.0,0.0,0.0,0.0,0.0,0.0,0.0,0.0,0.0,0.0,0.0,0.0,0.0,0.0,0.0,0.0,0.0,0.0,0.0,0.0,0.0,0.0,0.0,0.0,0.0,0.0,0.0,0.0,0.0,0.0,0.0,0.0,0.0,0.0,0.0,0.0,0.0,0.0,0.0,0.0,0.0,0.0,0.0,0.0,0.0,0.0,0.0,0.0,2.9654,2.9804,2.9804,0.0,2.9804,2.9804,2.9804,2.875,2.7795,2.7085,0.0,0.0,0.0,0.0,0.0,0.0,0.0,0.0,0.0,0.0,0.0,0.0,0.0,0.0,0.0,0.0,0.0,0.0,0.0,0.0,0.0,0.0,0.0,0.0,0.0,0.0,0.0,0.0,0.0,0.0,0.0,0.0,0.0,0.0,0.0,0.0,0.0,0.0,0.0,0.0,0.0,0.0,0.0,0.0,0.0,0.0,0.0,0.0,0.0,0.0,0.0,0.0,0.0,0.0,0.0,0.0,0.0,0.0,0.0,0.0,0.0,0.0,0.0,0.0,0.0,0.0,0.0,0.0,0.0,0.0,0.0,0.0,0.0,0.0,0.0,0.0,0.0,0.0,0.0,0.0,0.0,0.0,0.0,0.0,0.0,0.0,0.0,0.0,0.0,0.0,0.0,0.0,0.0,0.0,0.0,0.0,0.0,0.0,0.0,0.0,0.0,0.0,2.9654,2.9804,2.9804,2.9804,2.9804,2.9804,2.9804,2.875,2.7645,0.0,0.0,0.0,0.0,0.0,0.0,0.0,0.0,0.0,0.0,0.0,0.0,0.0,0.0,0.0,0.0,0.0,0.0,0.0,0.0,0.0,0.0,0.0,0.0,0.0,0.0,0.0,0.0,0.0,0.0,0.0,0.0,0.0,0.0,0.0,0.0,0.0,0.0,0.0,0.0,0.0,0.0,0.0,0.0,0.0,0.0,0.0,0.0,0.0,0.0,0.0,0.0,0.0,0.0,0.0,0.0,0.0,0.0,0.0,0.0,0.0,0.0,0.0,0.0,0.0,0.0,0.0,0.0,0.0,0.0,0.0,0.0,0.0,0.0,0.0,0.0,0.0,0.0,0.0,0.0,0.0,0.0,0.0,0.0,0.0,0.0,0.0,0.0,0.0,0.0,0.0,0.0,0.0,0.0,0.0,0.0,0.0,0.0,0.0,0.0,0.0,0.0,0.0,3.0231,3.0362,3.0362,3.0362,3.003,2.9804,2.9804,2.875,2.7795,2.711,0.0,0.0,0.0,0.0,0.0,0.0,0.0,0.0,0.0,0.0,0.0,0.0,0.0,0.0,0.0,0.0,0.0,0.0,0.0,0.0,0.0,0.0,0.0,0.0,0.0,0.0,0.0,0.0,0.0,0.0,0.0,0.0,0.0,0.0,0.0,0.0,0.0,0.0,0.0,0.0,0.0,0.0,0.0,0.0,0.0,0.0,0.0,0.0,0.0,0.0,0.0,0.0,0.0,0.0,0.0,0.0,0.0,0.0,0.0,0.0,0.0,0.0,0.0,0.0,0.0,0.0,0.0,0.0,0.0,0.0,0.0,0.0,0.0,0.0,0.0,0.0,0.0,0.0,0.0,0.0,0.0,0.0,0.0,0.0,0.0,0.0,0.0,0.0,0.0,0.0,0.0,0.0,0.0,0.0,0.0,0.0,0.0,0.0,0.0,0.0,0.0,0.0,3.0487,3.0588,3.0588,3.0588,3.0131,2.9804,2.9804,2.895,2.8097,2.7361,0.0,0.0,0.0,0.0,0.0,0.0,0.0,0.0,0.0,0.0,0.0,0.0,0.0,0.0,0.0,0.0,0.0,0.0,0.0,0.0,0.0,0.0,0.0,0.0,0.0,0.0,0.0,0.0,0.0,0.0,0.0,0.0,0.0,0.0,0.0,0.0,0.0,0.0,0.0,0.0,0.0,0.0,0.0,0.0,0.0,0.0,0.0,0.0,0.0,0.0,0.0,0.0,0.0,0.0,0.0,0.0,0.0,0.0,0.0,0.0,0.0,0.0,0.0,0.0,0.0,0.0,0.0,0.0,0.0,0.0,0.0,0.0,0.0,0.0,0.0,0.0,0.0,0.0,0.0,0.0,0.0,0.0,0.0,0.0,0.0,0.0,0.0,0.0,0.0,0.0,0.0,0.0,0.0,0.0,0.0,0.0,0.0,0.0,0.0,0.0,0.0,0.0,3.0588,3.0663,3.0663,3.0663,3.0156,2.9804,2.9804,2.9258,2.848,2.7512,0.0,0.0,0.0,0.0,0.0,0.0,0.0,0.0,0.0,0.0,0.0,0.0,0.0,0.0,0.0,0.0,0.0,0.0,0.0,0.0,0.0,0.0,0.0,0.0,0.0,0.0,0.0,0.0,0.0,0.0,0.0,0.0,0.0,0.0,0.0,0.0,0.0,0.0,0.0,0.0,0.0,0.0,0.0,0.0,0.0,0.0,0.0,0.0,0.0,0.0,0.0,0.0,0.0,0.0,0.0,0.0,0.0,0.0,0.0,0.0,3.0633,0.0,0.0,0.0,0.0,0.0,0.0,0.0,0.0,0.0,0.0,0.0,0.0,0.0,0.0,0.0,0.0,0.0,0.0,0.0,0.0,0.0,0.0,0.0,0.0,0.0,0.0,0.0,0.0,0.0,0.0,0.0,0.0,0.0,0.0,0.0,0.0,0.0,0.0,0.0,0.0,0.0,3.116,3.1235,3.1235,3.1235,3.0357,2.9804,2.9804,2.9258,2.8787,2.858,2.7261,0.0,0.0,0.0,0.0,0.0,0.0,0.0,0.0,0.0,0.0,0.0,0.0,0.0,0.0,0.0,0.0,0.0,0.0,0.0,0.0,0.0,0.0,0.0,0.0,0.0,0.0,0.0,0.0,0.0,0.0,0.0,0.0,0.0,0.0,0.0,0.0,0.0,0.0,0.0,0.0,0.0,0.0,0.0,0.0,0.0,0.0,0.0,0.0,0.0,0.0,0.0,0.0,0.0,0.0,0.0,0.0,0.0,0.0,0.0,0.0,3.1788,0.0,0.0,0.0,0.0,0.0,0.0,0.0,0.0,0.0,0.0,0.0,0.0,0.0,0.0,0.0,0.0,0.0,0.0,0.0,0.0,0.0,0.0,0.0,0.0,0.0,0.0,0.0,0.0,0.0,0.0,0.0,0.0,0.0,0.0,0.0,0.0,0.0,0.0,0.0,0.0,3.1361,3.1406,3.1406,3.1406,3.0432,2.9804,2.9804,2.9528,2.9208,2.8932,2.8122,0.0,0.0,0.0,0.0,0.0,0.0,0.0,0.0,0.0,0.0,0.0,0.0,0.0,0.0,0.0,0.0,0.0,0.0,0.0,0.0,0.0,0.0,0.0,0.0,0.0,0.0,0.0,0.0,0.0,0.0,0.0,0.0,0.0,0.0,0.0,0.0,0.0,0.0,0.0,0.0,0.0,0.0,0.0,0.0,0.0,0.0,0.0,0.0,0.0,0.0,0.0,0.0,0.0,3.618,3.6683,3.6683,3.6684,3.6684,3.6582,3.4748,3.3793,3.347,3.2893,0.0,0.0,0.0,0.0,0.0,0.0,0.0,0.0,0.0,0.0,0.0,0.0,0.0,0.0,0.0,0.0,0.0,0.0,0.0,0.0,0.0,0.0,0.0,0.0,3.5406,3.528,0.0,0.0,0.0,0.0,0.0,0.0,0.0,0.0,0.0,0.0,0.0,0.0,3.1512,3.1482,3.1406,3.1406,3.0432,2.9804,2.9804,2.9804,2.9578,2.9082,2.8957,2.8304,0.0,0.0,0.0,0.0,0.0,0.0,0.0,0.0,0.0,0.0,0.0,0.0,0.0,0.0,0.0,0.0,0.0,0.0,0.0,0.0,0.0,0.0,0.0,0.0,0.0,0.0,0.0,0.0,0.0,0.0,0.0,0.0,3.2964,3.3495,0.0,0.0,0.0,0.0,0.0,0.0,0.0,0.0,0.0,0.0,0.0,0.0,0.0,3.5954,3.5954,3.6582,3.686,3.686,3.7487,3.7789,3.7789,3.7789,3.7789,3.7764,3.7487,0.0,3.5132,3.4603,0.0,0.0,0.0,0.0,0.0,0.0,0.0,0.0,0.0,0.0,0.0,0.0,0.0,0.0,0.0,0.0,0.0,0.0,0.0,0.0,0.0,0.0,3.5355,3.6029,3.6582,3.6783,0.0,3.5077,3.4051,3.3065,3.234,0.0,0.0,0.0,0.0,0.0,0.0,0.0,3.2039,3.1687,3.1406,3.1406,3.0432,2.9804,2.9804,2.9804,2.9754,2.9679,2.9183,2.8787,2.8605,2.8147,0.0,0.0,0.0,0.0,0.0,0.0,0.0,0.0,0.0,0.0,0.0,0.0,0.0,0.0,0.0,0.0,0.0,0.0,0.0,0.0,0.0,0.0,0.0,0.0,0.0,0.0,0.0,0.0,0.0,3.3718,3.4798,3.4399,3.4924,3.4974,0.0,0.0,0.0,0.0,0.0,0.0,0.0,0.0,0.0,3.6107,3.6885,3.7311,3.7311,3.7864,3.8165,3.8165,3.8693,3.8944,3.8944,3.8944,3.8944,3.8944,3.8944,3.8366,3.7337,3.6458,3.5956,3.5705,0.0,0.0,0.0,0.0,3.5102,3.5376,3.5906,3.5906,3.5728,3.6006,0.0,0.0,0.0,0.0,0.0,0.0,0.0,0.0,0.0,0.0,3.5732,3.6609,3.7034,3.7135,3.6909,3.6457,3.568,0.0,3.3294,3.2562,3.2089,0.0,0.0,0.0,0.0,3.1938,3.2169,3.1738,3.1406,3.1406,3.0432,2.9804,2.9804,2.9804,2.9804,2.9804,2.9553,2.9258,2.8913,2.8587,2.8032,0.0,0.0,0.0,0.0,0.0,0.0,0.0,0.0,0.0,0.0,0.0,0.0,0.0,0.0,0.0,0.0,0.0,0.0,0.0,0.0,0.0,0.0,0.0,0.0,0.0,0.0,0.0,0.0,3.5175,3.618,3.5606,3.6282,3.6431,0.0,0.0,0.0,0.0,0.0,0.0,3.611,3.7086,3.7637,3.7637,3.814,3.8442,3.8442,3.8868,3.9095,3.912,3.9522,3.9697,3.9697,3.9697,3.9697,3.9697,3.9697,3.9471,3.9044,3.8039,3.7562,3.7386,3.6959,3.6808,3.681,3.681,3.681,3.6884,3.7436,3.7261,3.6909,3.7462,3.716,3.6457,3.5604,0.0,0.0,0.0,0.0,3.4477,3.5282,3.5608,3.5983,3.6984,3.721,3.721,3.721,3.721,3.6734,0.0,3.4274,3.3621,3.3366,0.0,0.0,0.0,0.0,3.2265,3.2416,3.1813,3.1406,3.1406,3.0432,2.9804,2.9804,2.9804,2.9804,2.9804,2.974,2.9501,2.9057,2.8784,2.8365,2.7791,0.0,0.0,0.0,0.0,0.0,0.0,0.0,0.0,0.0,0.0,0.0,0.0,0.0,0.0,0.0,0.0,0.0,0.0,0.0,0.0,0.0,0.0,0.0,0.0,0.0,0.0,0.0,0.0,0.0,3.7713,3.7889,0.0,0.0,0.0,0.0,3.7085,3.7086,3.7337,3.7864,3.8492,3.8818,3.8818,3.932,3.9597,3.9597,3.9647,3.9647,3.9647,3.9672,3.9697,3.9697,3.9697,3.9697,3.9697,3.9697,3.9672,3.9622,3.9044,3.8492,3.7965,3.7939,3.7914,3.7914,3.7914,3.7914,3.8015,3.8617,3.8441,3.8015,3.8617,3.8065,3.716,3.711,3.6282,0.0,0.0,3.5408,3.5433,3.5483,3.5931,3.6482,3.706,3.721,3.721,3.721,3.721,3.6835,0.0,3.5408,3.5054,3.4048,0.0,3.3014,3.3014,3.2541,3.2416,3.2989,3.2085,3.1406,3.1406,3.0432,2.9804,2.9804,2.9804,2.9804,2.9804,2.956,2.9419,2.9369,2.8998,2.8465,2.7719,2.742,0.0,0.0,0.0,0.0,0.0,0.0,0.0,0.0,0.0,0.0,0.0,0.0,0.0,0.0,0.0,0.0,0.0,0.0,0.0,0.0,0.0,0.0,0.0,0.0,0.0,0.0,0.0,0.0,3.799,3.8341,0.0,3.7764,3.7713,3.7713,3.7713,3.809,3.8391,3.8567,3.912,3.9421,3.9421,3.9597,3.9697,3.9697,3.9697,3.9697,3.9697,3.9697,3.9697,3.9697,3.9697,3.9697,3.9697,3.9697,3.9697,3.9672,3.9471,3.927,3.9094,3.9094,3.9094,3.9094,3.9094,3.9094,3.912,3.932,3.927,3.912,3.9346,3.8919,3.8291,3.8291,3.7739,3.7112,3.7112,3.6861,3.6609,3.6609,3.6507,3.6455,3.6632,3.6683,3.6683,3.6683,3.6683,3.6557,3.6157,3.5757,3.5382,3.5004,3.4477,3.4022,3.3671,3.342,3.3244,3.3115,3.239,3.1788,3.1436,3.0758,3.0181,2.9829,2.9804,2.9721,2.956,2.9326,2.9091,2.8835,2.8255,2.7783,2.7395,2.6388,2.5609,0.0,0.0,0.0,0.0,0.0,0.0,0.0,0.0,0.0,0.0,0.0,0.0,0.0,0.0,0.0,0.0,0.0,0.0,0.0,0.0,0.0,0.0,0.0,0.0,0.0,0.0,3.9069,3.8868,3.9195,3.927,3.8894,3.8693,3.8567,3.8567,3.8944,3.917,3.917,3.9672,3.9973,3.9973,4.0149,4.0149,3.9973,3.9973,3.9873,3.9697,3.9697,3.9697,3.9697,3.9697,3.9697,3.9697,3.9697,3.9697,3.9697,3.9697,3.9697,3.9697,3.9697,3.9697,3.9697,3.9697,3.9697,3.9697,3.9697,3.9697,3.9697,3.9697,3.9472,3.917,3.917,3.8743,3.8291,3.8291,3.7889,3.7412,3.7261,3.6934,3.6607,3.6455,3.6405,3.6405,3.6405,3.6405,3.6405,3.6405,3.6081,3.5782,3.5782,3.5355,3.4853,3.4477,3.4148,3.3771,3.3416,3.2692,3.2043,3.1712,3.1185,3.0658,3.0105,2.9997,2.9785,2.9326,2.8993,2.8618,2.8179,2.745,2.701,2.6878,2.5651,2.4997,2.4997,0.0,0.0,0.0,0.0,0.0,0.0,0.0,0.0,0.0,0.0,0.0,0.0,0.0,0.0,0.0,0.0,0.0,0.0,0.0,0.0,0.0,0.0,0.0,3.7965,3.9019,3.9923,4.045,4.0499,4.0524,4.0524,4.0049,3.9747,3.9747,3.9747,3.9747,3.9747,4.0249,4.0524,4.0524,4.1026,4.1051,4.0524,4.0524,4.0248,3.9747,3.9747,3.9747,3.9747,3.9747,3.9747,3.9722,3.9722,3.9722,3.9697,3.9697,3.9697,3.9697,3.9697,3.9697,3.9697,3.9697,3.9697,3.9697,3.9697,3.9697,3.9697,3.9697,3.9697,3.9697,3.9697,3.9346,3.8919,3.8919,3.8492,3.7914,3.7411,3.7261,3.711,3.6557,3.6455,3.643,3.643,3.6405,3.6405,3.6405,3.6405,3.6405,3.6405,3.5931,3.5508,3.5508,3.4603,0.0,3.3897,3.2943,3.2244,3.2194,3.1738,3.119,3.0643,3.0413,2.9965,2.9145,2.8546,2.8005,2.7496,2.6655,2.6188,2.6152,2.5277,2.4812,2.4812,0.0,0.0,0.0,0.0,0.0,0.0,0.0,0.0,0.0,0.0,0.0,0.0,0.0,0.0,0.0,0.0,0.0,0.0,0.0,0.0,0.0,3.7788,3.8492,3.8642,3.9597,4.035,4.0474,4.0851,4.1102,4.1102,4.0951,4.0851,4.0851,4.0851,4.0851,4.0851,4.1001,4.1102,4.1102,4.1227,4.1227,4.1102,4.1102,4.1001,4.0851,4.0851,4.0851,4.0851,4.0851,4.065,4.03,4.03,4.0074,3.9697,3.9697,3.9697,3.9697,3.9697,3.9697,3.9697,3.9697,3.9697,3.9697,3.9697,3.9697,3.9697,3.9697,3.9697,3.9697,3.9697,3.9597,3.9471,3.9471,3.9095,3.8617,3.8467,3.8115,3.7739,3.7588,3.7261,3.6984,3.6984,3.6658,3.6405,3.6405,3.6405,3.6405,3.6405,3.6256,3.6006,3.5558,3.5232,0.0,3.3997,3.3621,3.3054,3.2083,3.1838,3.1414,3.0544,3.0412,3.0049,2.93,2.875,2.8137,2.7323,2.6584,2.5898,2.5193,2.522,2.5149,0.0,0.0,0.0,0.0,0.0,0.0,0.0,0.0,0.0,0.0,0.0,0.0,0.0,0.0,0.0,0.0,0.0,0.0,0.0,0.0,0.0,0.0,3.8818,3.9371,3.9848,4.0424,4.0926,4.1178,4.148,4.1681,4.1681,4.1453,4.1302,4.1302,4.1302,4.1302,4.1302,4.1528,4.1681,4.1681,4.1907,4.1907,4.1681,4.1681,4.1528,4.1302,4.1302,4.1302,4.1302,4.1302,4.1152,4.0826,4.0826,4.065,4.0349,4.0349,4.0249,0.0,0.0,0.0,0.0,0.0,3.9697,3.9697,3.9697,3.9697,3.9697,3.9697,3.9697,3.9697,3.9697,3.9697,3.9697,3.9697,3.9497,3.9195,3.8944,3.8642,3.8316,3.8065,3.7764,3.7538,3.7538,3.7311,3.7085,3.7085,3.6884,0.0,3.6733,3.6532,3.6281,3.5931,3.5656,3.5257,3.4653,3.4198,3.3558,3.267,3.2466,3.1985,3.0933,3.08,0.0,0.0,0.0,2.77,2.6667,2.647,0.0,0.0,0.0,0.0,0.0,0.0,0.0,0.0,2.5517,2.5742,0.0,0.0,0.0,0.0,0.0,0.0,0.0,0.0,0.0,0.0,0.0,0.0,0.0,0.0,0.0,0.0,3.9848,4.0275,4.1352,4.1503,4.1681,4.2135,4.2235,4.2313,4.2313,4.1856,4.1578,4.1578,4.1654,4.1679,4.1679,0.0,0.0,0.0,0.0,4.2964,4.2489,4.2462,4.2183,4.1679,4.1679,4.1679,4.1679,4.1628,4.1553,4.1503,4.1428,4.1378,4.1302,4.1302,4.1026,4.0524,3.9923,3.9697,3.9697,3.9697,3.9697,3.9697,3.9697,0.0,0.0,3.9697,3.9697,3.9697,3.9697,3.9697,3.9697,3.9697,3.9697,3.9572,3.912,3.8994,3.8869,3.8316,3.814,3.809,3.809,3.804,3.8015,3.8015,3.7613,3.7311,3.7311,3.6783,3.6405,3.6405,3.5932,3.5537,3.5462,3.4588,3.3804,3.3462,0.0,0.0,3.1462,3.1181,3.0468,2.9082,2.8059,2.7066,2.603,2.6477,2.6645,2.6465,2.6914,2.7168,2.7168,2.7663,2.7897,2.7897,2.7441,2.7441,0.0,0.0,0.0,0.0,0.0,0.0,0.0,0.0,0.0,0.0,0.0,0.0,0.0,0.0,0.0,4.03,4.07,4.1378,4.2509,4.266,4.2562,4.2263,4.2587,4.2838,4.2838,4.3137,4.3338,4.3338,4.3711,4.3962,4.3962,4.4062,4.4141,4.4141,4.4242,4.4242,4.4141,4.4141,4.4091,4.3962,0.0,0.0,4.3937,4.351,4.3087,4.2663,4.221,4.1756,4.1302,4.1302,4.1252,4.1051,4.0074,3.9697,3.9697,3.9697,3.9697,3.9697,3.9697,3.9697,3.9697,3.9697,3.9697,3.9697,3.9697,3.9697,0.0,3.9697,3.9697,3.9672,3.9572,3.9546,3.9522,3.9396,3.9044,3.8743,3.8743,3.8341,3.8015,3.8015,3.7914,3.7839,3.7839,3.7034,3.6405,3.6405,3.6117,3.5727,3.5327,3.4707,3.3946,3.3047,3.2511,3.1785,3.077,3.0428,2.9875,2.8973,2.8189,2.7546,2.7122,2.6999,2.692,2.6869,2.7656,2.8047,2.8047,2.8855,2.9227,2.9227,2.875,2.8567,0.0,0.0,0.0,0.0,0.0,0.0,0.0,0.0,0.0,0.0,0.0,3.932,3.9596,0.0,4.1177,4.2032,4.2384,4.2833,4.3689,4.379,4.3689,4.3413,4.3639,4.379,4.379,4.4041,4.4217,4.4217,4.4439,4.4589,4.4589,4.4589,4.4589,4.4589,4.4589,4.4589,4.4589,4.4589,4.4589,4.4589,4.4589,4.4589,4.4589,4.4313,4.4066,4.3765,4.324,4.2836,4.2507,4.1982,4.1756,4.1656,4.0852,4.035,4.0099,4.0099,3.9923,3.9697,3.9697,3.9697,3.9697,3.9697,3.9697,3.9697,3.9697,3.9697,3.9697,3.9697,3.9697,3.9697,3.9697,3.9697,3.9697,3.9697,3.9497,3.9296,3.9296,3.9044,3.8843,3.8843,3.8617,3.8442,3.8442,3.7763,3.721,3.721,3.6744,3.6253,3.5861,3.4868,3.3839,3.2888,3.2316,3.1592,3.054,2.9846,2.9191,2.8533,2.812,2.7787,2.7556,2.7813,2.7942,2.7942,2.8613,2.8953,2.8953,2.9598,2.9911,2.9911,2.9741,2.954,0.0,0.0,0.0,0.0,0.0,0.0,0.0,4.0174,4.0526,4.1152,4.1277,4.1403,4.1729,4.198,4.2557,4.3915,4.4217,4.4493,4.5016,4.5091,4.5116,4.5217,4.4995,4.4815,4.4916,4.5016,4.5091,4.5091,4.5167,4.5242,4.5242,4.5242,4.5242,4.5242,4.5242,4.5242,4.5242,4.5141,4.5091,4.5066,4.4966,4.4916,4.4916,4.4815,4.4765,4.4715,4.4091,4.379,4.3714,4.2738,4.2363,4.2311,4.1831,4.1302,4.0827,4.07,4.0325,3.9848,3.9848,3.9798,3.9697,3.9697,3.9697,3.9697,3.9697,3.9697,3.9697,3.9697,3.9697,3.9697,3.9697,3.9697,3.9697,3.9697,3.9697,3.9697,3.9697,3.9697,3.9697,3.9697,3.9346,3.9044,3.8968,3.8567,3.8216,3.8015,3.7319,3.6702,3.6431,3.4967,3.3663,3.2904,3.2234,3.1431,3.041,2.9533,2.885,2.8404,2.8344,2.8239,2.81,2.8691,2.9043,2.9043,2.9473,2.9715,2.9715,3.0117,3.0303,3.0246,3.0219,3.0054,3.7839,3.8467,3.9446,3.9923,4.0474,4.1478,0.0,4.3263,4.2939,4.3912,4.4138,4.4012,4.3614,4.4342,4.507,4.5271,4.5723,4.6225,4.6747,4.6823,4.6998,4.7481,4.6276,4.5573,4.6075,4.6522,4.6823,4.6823,4.7249,4.7531,4.7531,4.7531,4.7531,4.7531,4.7531,4.7531,4.7531,4.7048,4.6823,4.6823,4.6321,4.6125,4.607,4.5623,4.5397,4.5321,4.4267,4.379,4.374,4.3165,4.2914,4.2914,4.2838,4.2487,4.1934,4.1403,4.0876,4.0399,4.0399,4.0099,3.9697,3.9697,3.9697,3.9697,3.9697,3.9697,3.9697,3.9697,3.9697,3.9697,3.9697,3.9697,3.9697,3.9697,3.9697,3.9697,3.9697,3.9697,3.9697,3.9697,3.9647,3.9545,3.9313,3.9186,3.889,3.8116,3.7319,3.6693,3.6441,3.4894,3.363,3.3052,3.196,3.0955,3.0128,2.9715,2.9494,2.9439,2.9439,2.9411,2.9383,2.9481,2.952,2.952,2.9902,3.0137,3.0137,3.0586,3.0655,3.0373,2.9796,2.9648,3.9822,4.0273,4.0901,4.2133,4.3087,4.4091,4.5292,4.5497,4.5493,4.5969,4.5794,4.5518,4.5296,4.5648,4.6075,0.0,4.6878,4.733,4.7525,4.7581,4.7782,4.836,4.7838,4.7355,4.7255,4.7757,4.8083,4.8083,4.8586,4.8887,4.8887,4.8887,4.8736,4.841,4.841,4.8259,4.7908,4.7682,4.7581,4.755,4.7355,4.7079,4.6747,4.6522,4.61,4.5472,4.4995,4.4418,4.379,4.3564,4.3291,4.3014,4.3014,4.2864,4.2587,4.2034,4.1455,4.0976,4.0976,4.0826,4.0575,4.0275,4.0174,4.0124,3.9798,3.9697,3.9697,3.9697,3.9697,3.9697,3.9697,3.9697,3.9697,3.9697,3.9697,3.9697,3.9697,3.9697,3.9697,3.9697,3.9697,3.962,3.9336,3.9128,3.8797,3.8099,3.7318,3.6584,3.5963,3.44,3.292,3.1837,3.1011,3.0377,3.0036,2.9738,2.9598,2.9598,2.9598,2.9598,2.9598,2.9833,2.997,2.997,3.0371,3.0605,3.0605,3.0801,3.0733,3.0392,2.9726,2.9194,4.1051,4.1754,4.2532,4.3915,4.5347,4.6527,4.7079,4.7631,4.7952,4.7801,4.738,4.6903,4.6602,4.6652,4.6928,4.7475,4.8159,4.8661,4.8812,4.8837,4.8987,4.9446,4.9497,4.9346,4.8887,4.9063,4.9321,4.9471,4.9841,5.0067,5.0067,5.0067,4.9866,4.9497,4.9497,4.9188,4.8611,4.8435,4.8284,4.8134,4.7983,4.7707,4.7299,4.7174,4.6672,4.5924,4.5623,4.502,4.4242,4.394,4.3564,4.3215,4.3065,4.3014,4.2964,4.2562,4.206,4.1528,4.1528,4.1428,4.1252,4.0851,4.0725,4.065,4.0275,4.0149,4.0149,4.0149,4.0149,4.0149,4.0149,4.0149,4.0149,4.0149,4.0023,3.9923,3.9923,3.9798,3.9671,3.962,3.9594,3.9438,3.8919,3.8528,3.8053,3.7257,3.6524,3.5894,3.5519,3.391,3.227,3.0982,3.0477,3.0252,3.0252,3.0083,2.997,2.997,2.997,2.997,2.997,3.0234,3.0391,3.0391,3.0723,3.0898,3.0898,3.0898,3.0674,3.0245,2.9579,2.8719,4.1152,4.2883,4.464,4.5271,4.711,4.8843,4.9364,4.9916,5.0135,4.964,4.912,4.8391,4.7274,4.75,4.8058,4.8667,4.964,5.0544,5.1096,5.1205,5.1197,5.1197,5.1197,5.123,0.0,5.0695,5.0594,5.1205,5.1255,5.1255,5.1255,5.1255,5.1255,5.1197,5.1197,5.0921,5.031,4.9816,4.9264,4.8768,4.8184,4.7908,4.7857,4.7324,4.7074,4.6998,4.5949,4.5472,4.5347,4.4267,4.379,4.3714,4.3215,4.3014,4.3014,4.2989,4.2637,4.2187,4.2187,4.1781,4.1302,4.1275,4.1277,4.125,4.1277,4.1252,4.1252,4.1252,4.1252,4.1252,4.1252,4.1252,4.1252,4.1252,4.0851,4.0474,4.0474,4.0074,3.962,3.9362,3.931,3.8971,3.7841,3.7364,3.6642,3.5195,3.4475,3.4419,3.53,3.3529,3.1871,3.0985,3.0888,3.0869,3.0869,3.0888,3.0859,3.0859,3.0859,3.0859,3.0859,3.0859,3.0859,3.0859,3.0879,3.0898,3.0898,3.0898,3.0557,2.9892,2.9302,2.8289,4.3034,4.4342,4.5673,4.7707,4.8761,4.9565,5.0494,5.0845,5.082,5.0268,4.9414,4.8567,4.7782,4.7782,4.8109,4.8718,4.969,5.0619,5.1197,5.1306,5.1306,5.1306,5.1306,0.0,0.0,0.0,0.0,5.1825,5.2176,5.2377,5.2377,5.2377,5.2201,5.185,5.1825,5.1548,5.0996,5.0419,5.0042,4.9841,4.8912,4.8517,4.8492,4.7908,4.7626,4.7575,4.6873,4.6376,4.5974,4.5221,4.4694,4.4288,4.4141,4.4066,4.4066,4.4066,4.394,4.3689,4.2989,4.2612,4.2359,4.2007,4.1909,4.1806,4.1428,4.1302,4.1302,4.1302,4.1302,4.1302,4.1302,4.1302,4.1248,4.1087,4.0883,4.0705,4.049,3.9991,3.962,3.9514,3.906,3.8396,3.7418,3.6854,3.5854,3.3994,3.3374,3.3112,3.3027,3.2199,3.1412,3.0937,3.0898,3.0898,3.0898,3.0898,3.0898,3.0898,3.0898,3.0898,3.0898,3.0898,3.0898,3.0898,3.0898,3.0898,3.0898,3.0898,3.0674,3.0216,2.939,2.8409,4.4342,4.5497,4.6652,4.9012,4.9891,5.0444,5.1373,5.1574,5.1423,5.0845,4.969,4.8642,4.8008,4.7908,4.8159,4.8969,4.9992,5.0996,5.1774,5.2026,5.2076,5.19,5.2026,5.2201,0.0,0.0,0.0,5.2402,5.2694,5.2895,5.2895,5.2895,5.2719,5.2402,5.2402,5.2126,5.1574,5.1197,5.082,5.0386,4.949,4.9095,4.9069,4.8485,4.8209,4.8184,4.7631,4.7074,4.6522,4.5999,4.5447,4.492,4.4665,4.4589,4.4589,4.4589,4.4589,4.4464,4.3589,4.3291,4.3215,4.2663,4.2487,4.2411,4.2032,4.1823,4.1741,4.1741,4.1551,4.1414,4.1414,4.1304,4.1194,4.1001,4.0719,4.0434,4.0214,3.9746,3.9328,3.911,3.8515,3.7702,3.6593,3.5418,3.4112,3.2664,3.2227,3.196,3.1672,3.1441,3.1199,3.0928,3.0898,3.0898,3.0898,3.0898,3.0898,3.0898,3.0898,3.0898,3.0898,3.0898,3.0898,3.0898,3.0898,3.0898,3.0898,3.0898,3.0733,3.0392,2.945,2.8469,4.4999,4.6401,4.7626,4.9264,5.0494,5.1423,5.1975,5.2051,5.185,5.1306,4.9873,4.8542,4.7933,4.7857,4.8234,4.9414,5.0544,5.1674,5.277,5.3381,5.3532,0.0,0.0,0.0,0.0,0.0,0.0,5.2895,0.0,5.2895,5.2895,5.2895,5.2895,5.2895,5.2895,5.2678,5.2151,5.2126,5.1548,5.0386,4.9891,4.9615,4.9565,4.9095,4.8843,4.8818,4.8209,4.7682,4.7149,4.6572,4.605,4.5522,4.4945,4.469,4.469,4.469,4.469,4.456,4.4062,4.3812,4.3714,4.3215,4.3039,4.3014,4.3014,4.279,4.2485,4.2485,4.2033,4.1578,4.1578,4.132,4.1062,4.1004,4.0369,3.976,3.9732,3.9301,3.8755,3.8189,3.7659,3.6817,3.5404,3.3325,3.1732,3.1393,3.1093,3.1035,3.1238,3.1267,3.1199,3.0928,3.0898,3.0898,3.0898,3.0898,3.0898,3.0898,3.0898,3.0898,3.0898,3.0898,3.0898,3.0898,3.0898,3.0898,3.0898,3.0898,3.0733,3.0392,2.945,2.8469,4.6326,4.7776,4.9264,5.0544,5.1105,5.1423,5.1975,5.1448,5.0569,4.9647,4.841,4.735,4.6828,4.7023,4.7801,4.9339,5.0544,5.18,5.3306,5.3607,0.0,5.4145,0.0,5.4135,5.3557,5.3507,0.0,0.0,5.2895,5.2895,5.2895,5.2895,5.2895,5.2895,5.2895,5.282,5.2694,5.2302,5.1548,5.0386,5.0268,4.9992,4.959,4.9439,4.9389,4.9364,4.8786,4.8485,4.8284,4.7299,4.6823,4.6622,4.607,4.5874,4.5874,4.5874,4.5695,4.541,4.4892,4.429,4.379,4.3639,4.3341,4.3014,4.3014,4.279,4.2457,4.2259,4.172,4.1177,4.0976,4.0692,4.0292,3.9797,3.9505,3.9237,3.8791,3.8264,3.7836,3.7663,3.6507,3.5338,3.4777,3.3398,3.2266,3.186,3.1555,3.1279,3.1035,3.0995,3.0966,3.0928,3.0898,3.0898,3.0898,3.0898,3.0898,3.0898,3.0898,3.0898,3.0898,3.0898,3.0898,3.0898,3.0898,3.0898,3.0898,3.0898,3.0869,3.0733,2.9538,2.857,4.7732,4.8887,4.9916,5.1297,5.1448,5.1297,5.1348,5.0494,4.9389,4.8284,4.7179,4.6401,4.6326,4.6722,4.7651,4.9314,5.0544,5.185,5.3482,5.3909,5.4245,5.4572,5.4823,0.0,5.4135,5.4084,5.3959,0.0,5.3171,5.2895,5.2895,5.2895,5.2895,5.2895,5.2895,5.2895,5.2895,5.2377,5.1774,5.1147,5.0921,5.0494,4.9967,4.9967,4.9816,4.9565,0.0,4.9019,4.8743,4.8109,4.7525,4.7074,4.6772,4.6496,4.6301,4.6301,4.609,4.5737,4.5294,4.4507,4.3658,4.3449,4.3216,4.2967,4.2967,4.263,4.2225,4.2152,4.1353,4.0389,3.9867,3.9263,3.8657,3.8096,3.785,3.767,3.733,3.6992,3.6693,3.6327,3.5257,3.4249,3.3765,3.2975,3.2343,3.2106,3.1917,3.1641,3.123,3.0996,3.0898,3.0898,3.0898,3.0898,3.0898,3.0898,3.0898,3.0898,3.0898,3.0898,3.0898,3.0898,3.0898,3.0898,3.0898,3.0898,3.0898,3.0762,3.0674,3.0645,2.9213,2.8212,4.8937,4.9766,5.0268,5.1649,5.1574,5.0996,5.0343,4.9289,4.8134,4.6998,4.5974,4.5422,4.5974,4.6572,4.7525,4.9213,5.0494,5.185,5.3482,5.4245,5.4647,5.4798,5.5214,5.529,5.4773,5.4723,5.4672,5.4622,5.3683,5.3071,5.2995,5.292,5.2895,5.2895,5.2895,5.2895,5.2895,5.2452,5.2176,5.2101,5.1624,5.1096,5.0519,5.0519,5.0218,4.9715,4.9715,4.9389,4.8919,4.878,4.8146,4.7238,4.7026,4.6706,4.6311,4.6205,4.5969,4.5635,4.519,4.4292,4.3305,4.3027,4.2837,4.2705,4.2705,4.2297,4.1839,4.1904,4.0808,3.9392,3.8609,3.7632,3.6768,3.6387,3.6024,3.5767,3.5705,3.5684,3.5488,3.4809,3.4197,3.3586,3.2882,3.2538,3.2355,3.2296,3.2276,3.212,3.166,3.123,3.0957,3.0898,3.0898,3.0898,3.0898,3.0898,3.0898,3.0898,3.0898,3.0898,3.0898,3.0898,3.0898,3.0898,3.0898,3.0918,3.0976,3.0606,3.0411,3.038,2.8755,2.7612,4.9464,5.0619,5.1624,5.1473,5.0996,5.0293,4.9289,4.7857,4.6426,4.5267,4.4543,4.4267,4.4819,4.5719,4.7004,4.8693,5.0275,5.185,5.3482,5.4245,5.4949,5.5817,5.6018,5.5842,5.529,5.5239,0.0,0.0,5.4421,5.4084,5.3582,5.3121,5.2895,5.2895,5.2895,5.2895,5.2895,5.2795,5.2519,5.2101,5.2,5.1674,5.1122,5.1122,5.082,5.0268,5.0268,0.0,4.9414,4.8668,4.8273,4.7961,4.6736,4.6378,4.6469,4.5747,4.5245,4.4853,4.3965,4.3169,4.2567,4.2885,4.2471,4.182,4.182,4.158,4.121,4.0701,3.9761,3.8731,3.8015,3.7055,3.6174,3.5808,3.5406,3.5015,3.4735,3.4673,3.4601,3.4478,3.4146,3.3845,3.3704,3.3422,3.3086,3.2734,3.2695,3.257,3.214,3.168,3.1269,3.0937,3.0898,3.0898,3.0898,3.0898,3.0898,3.0898,3.0898,3.0898,3.0898,3.0898,3.0898,3.0898,3.0898,3.1055,3.1377,3.0741,3.0447,3.0523,2.8793,2.7491,5.0318,5.1272,5.2051,5.1774,5.1046,4.9959,4.8309,4.6853,4.5472,4.4066,4.379,4.3966,4.4489,4.5518,4.6853,4.8542,4.9916,5.1498,5.3432,5.4245,5.5024,5.6068,5.6219,5.6118,5.5842,5.5817,5.5717,5.544,5.5164,5.4612,5.3758,5.3171,5.2895,5.2895,5.2895,5.2895,5.2895,5.2895,5.277,5.2528,5.2528,5.2251,5.1699,5.1699,5.1398,5.0845,5.0544,0.0,4.9674,4.8769,4.8139,4.7651,4.676,4.6287,4.5999,4.5413,4.4812,4.4144,4.3122,4.2079,4.1171,4.1043,4.1017,4.1044,4.1044,4.0827,4.0521,4.0265,3.9313,3.8239,3.7543,3.6538,3.5573,3.4984,3.4461,3.4079,3.3922,3.389,3.389,3.389,3.3765,3.3639,3.3639,3.3513,3.3328,3.3144,3.3125,3.2969,3.2559,3.2305,3.1934,3.1289,3.1016,3.0898,3.0898,3.0898,3.0898,3.0898,3.0898,3.0898,3.0898,3.0898,3.0996,3.1211,3.1211,3.1426,3.1855,3.1161,3.066,3.0283,2.8437,2.6932,5.0971,5.1774,5.2226,5.2,5.1071,4.9665,4.7425,4.61,4.4869,4.3341,4.3413,4.3966,4.4489,4.5618,4.6954,4.836,4.9615,5.1096,5.308,5.3959,5.4823,5.5917,5.6143,5.6219,5.6219,5.6219,0.0,5.6219,5.5591,5.4762,5.3758,5.3306,5.2995,5.2895,5.2895,5.2895,5.2895,5.2895,5.2895,5.2895,5.2895,5.2669,5.2277,5.2277,5.1975,5.1423,5.0971,0.0,0.0,4.8871,4.7864,4.6979,4.6368,4.5787,4.5302,4.4769,4.4128,4.3349,4.2157,4.0926,3.9757,3.8991,3.9292,3.9998,3.9998,3.9796,3.9594,3.9606,3.8793,3.7747,3.7088,3.615,3.5176,3.431,3.3809,3.3535,3.3406,3.3386,3.3386,3.3386,3.3386,3.3386,3.3386,3.3386,3.3386,3.3386,3.3386,3.3301,3.2969,3.2851,3.2539,3.1855,3.1406,3.1201,3.1201,3.1201,3.1201,3.1201,3.1201,3.1201,3.1201,3.1201,3.1328,3.1641,3.166,3.1845,3.2213,3.1455,3.0729,2.9979,2.8082,2.6397,5.0971,5.2051,5.2569,5.1599,5.0494,4.9088,4.6878,4.5522,4.4367,4.324,4.3413,4.3966,4.4489,4.5919,4.7224,4.7883,4.9364,5.0845,5.2076,5.313,5.421,5.534,5.5917,5.6219,5.6219,5.6219,5.6219,5.6219,5.5239,5.4396,5.3733,5.3658,5.3406,5.292,5.2895,5.2895,5.2895,5.2895,5.2895,5.2895,5.2895,5.287,5.282,5.282,5.2519,5.2026,5.1975,0.0,0.0,4.8765,4.759,4.6308,4.4827,4.4374,4.4457,4.3199,4.2704,4.2373,4.0562,3.9451,3.8681,3.7616,3.7775,3.8312,3.8312,3.8312,3.82,3.7929,3.7549,3.7112,3.6735,3.6034,3.5176,3.431,3.4075,3.3906,3.3496,3.3386,3.3386,3.3386,3.3386,3.3386,3.3386,3.3386,3.3386,3.3386,3.3386,3.3386,3.3347,3.3027,3.2773,3.2676,3.2335,3.2081,3.2081,3.2081,3.2081,3.2081,3.2081,3.2081,3.2081,3.2081,3.2101,3.214,3.214,3.2202,3.2269,3.1238,3.0431,2.98,2.7957,2.6215,5.0896,5.185,5.2251,5.1473,5.0225,4.8611,4.6728,4.5171,4.4016,4.3564,4.3915,4.4468,4.5045,4.6195,4.7274,4.7832,4.9038,5.0444,5.19,5.2754,5.3758,5.5214,5.5591,5.5842,5.6168,5.6219,5.6068,5.5742,5.5315,5.4662,5.3758,5.3406,5.3096,5.2895,5.2895,5.2895,5.2895,5.2895,5.2895,5.2895,5.2895,5.2895,5.2895,5.2688,5.2494,5.221,5.1358,0.0,0.0,4.7522,4.6141,4.4948,4.3638,4.3132,4.3038,4.2037,4.1596,4.1298,3.9667,3.8648,3.7883,3.7025,3.6755,3.691,3.7361,3.7495,3.7461,3.7348,3.7045,3.6722,3.6606,3.6006,3.5312,3.4994,3.4486,3.4055,3.3848,3.3613,3.3386,3.3386,3.3386,3.3386,3.3386,3.3386,3.3386,3.3386,3.3386,3.3386,3.3386,3.3281,3.3164,3.3164,3.2559,3.2198,3.2198,3.2198,3.2198,3.2198,3.2198,3.2198,3.2198,3.2198,3.2316,3.257,3.2354,3.2289,3.2365,3.131,3.0259,2.9157,2.736,2.5586,5.0125,5.1197,5.1724,5.1172,4.9766,4.8134,4.6652,4.5146,4.3991,4.384,4.4367,4.5045,4.5623,4.6597,4.75,4.8083,4.8962,5.0117,5.1649,5.2327,5.3306,5.4938,5.529,5.5591,5.6168,5.6068,5.5817,5.5415,5.5089,5.4536,5.3733,5.3171,5.2895,5.2895,5.2895,5.2895,5.2895,5.2895,5.2895,5.2895,5.2792,5.2757,5.2732,5.2109,5.1827,5.1743,5.0328,0.0,0.0,4.6388,4.4834,4.3596,4.2468,4.1889,4.1596,4.0758,4.0414,4.0131,3.8704,3.7816,3.718,3.6553,3.62,3.6084,3.6626,3.6775,3.6775,3.6775,3.6573,3.6369,3.6403,3.5984,3.5547,3.543,3.4922,3.4427,3.4173,3.3828,3.3574,3.3406,3.3386,3.3386,3.3386,3.3386,3.3386,3.3386,3.3386,3.3386,3.3386,3.3386,3.3386,3.3386,3.2891,3.2539,3.2539,3.2539,3.2539,3.2539,3.2539,3.2539,3.2539,3.2539,3.2645,3.2813,3.2488,3.2232,3.1942,3.0926,2.9707,2.8296,2.6683,2.4994,4.8391,5.0049,5.1147,5.0569,4.9163,4.7631,4.6552,4.5392,4.4439,4.3915,4.4694,4.5648,4.62,4.7179,4.8083,4.8693,4.927,4.9992,5.1155,5.1774,5.2729,5.4421,5.5099,5.5591,5.6168,5.5717,5.539,5.539,5.4361,0.0,5.3708,5.3171,5.2895,5.2895,5.2895,5.2895,5.2895,5.2895,5.2895,5.2895,5.2585,5.2412,5.2352,5.1092,5.0513,5.0454,0.0,0.0,0.0,4.562,4.4038,4.2398,4.1324,4.0668,4.0208,3.9254,3.8963,3.884,3.757,3.6856,3.6451,3.6118,3.5982,3.5982,3.6016,3.6016,3.6016,3.6016,3.6016,3.6016,3.6016,3.6016,3.5898,3.5488,3.5391,3.5137,3.429,3.4095,3.3977,3.3496,3.3386,3.3386,3.3386,3.3386,3.3386,3.3386,3.3386,3.3386,3.3386,3.3386,3.3386,3.3386,3.3386,3.3386,3.3386,3.3386,3.3386,3.3386,3.3386,3.3386,3.3386,3.3386,3.3228,3.2912,3.2562,3.191,3.0912,2.9837,2.8575,2.7202,2.61,2.4471,4.6627,4.7757,4.8378,4.8178,4.7205,4.6175,4.5824,4.4869,4.4242,4.4819,4.5246,4.5773,4.6672,4.74,4.8109,4.8718,4.9565,5.0419,5.1172,5.1749,5.2703,5.4396,5.539,5.5867,5.5666,5.5491,5.5064,5.4285,5.3909,5.3557,5.3146,5.297,5.2895,5.2895,5.2895,5.2895,5.2895,5.2895,5.2792,5.255,5.2179,5.154,5.0652,4.9483,4.8603,0.0,0.0,0.0,0.0,4.3622,4.235,4.1289,4.0166,3.9682,3.9418,3.8482,3.8337,3.8404,3.7143,3.662,3.6451,3.6118,3.5982,3.5982,3.5982,3.5982,3.5982,3.5982,3.5982,3.5982,3.5982,3.5982,3.5996,3.5859,3.5605,3.5312,3.5039,3.4525,3.4055,3.3887,3.3633,3.3386,3.3386,3.3386,3.3386,3.3386,3.3386,3.3386,3.3386,3.3386,3.3386,3.3386,3.3386,3.3386,3.3386,3.3386,3.3386,3.3386,3.3386,3.3386,3.3386,3.3386,3.3228,3.2931,3.2115,3.1184,3.0148,2.8625,2.6886,2.4989,2.4199,2.3331,4.4593,4.5773,4.6496,4.6496,4.5824,4.5221,4.5447,4.4769,4.4367,4.5296,4.5648,4.6125,4.7199,4.7651,4.8159,4.8962,4.9841,5.0619,5.1197,5.195,5.303,5.4723,5.5491,5.5767,5.5415,5.4988,5.4461,5.3758,5.3507,5.3246,5.292,5.2895,5.2895,5.2895,5.2895,5.2826,5.2723,5.2723,5.2456,5.1935,5.1387,5.05,4.9213,4.7757,4.6611,0.0,0.0,0.0,0.0,4.1891,4.1004,4.0361,3.9538,3.9103,3.8839,3.7936,3.7777,3.7813,3.67,3.6302,3.6268,3.6084,3.5982,3.5982,3.5982,3.5982,3.5982,3.5982,3.5982,3.5982,3.5982,3.5982,3.5982,3.5982,3.582,3.5586,3.543,3.4961,3.4505,3.4173,3.3848,3.3613,3.3425,3.3386,3.3386,3.3386,3.3386,3.3386,3.3386,3.3386,3.3386,3.3386,3.3386,3.3386,3.3386,3.3386,3.3386,3.3386,3.3386,3.3323,3.3228,3.3197,3.288,3.2147,3.1249,3.013,2.8822,2.692,2.5225,2.3747,2.3215,2.2761,0.0,4.407,4.5271,4.5347,4.497,4.469,4.5347,4.507,0.0,4.5422,4.5974,4.6647,4.7707,4.7933,4.8335,4.9464,5.0117,5.067,5.1247,5.2327,5.3573,5.5089,5.534,5.5365,5.529,5.431,5.3683,5.3658,5.3171,5.2895,5.2895,5.2895,5.2895,5.2861,5.2826,5.2688,5.2377,5.2283,5.1866,5.1036,5.0269,4.9179,4.7838,4.5899,4.4519,0.0,0.0,0.0,0.0,4.0525,3.9986,3.9642,3.9284,3.8921,3.8513,3.7617,3.7305,3.7168,3.6309,3.5982,3.5982,3.5982,3.5982,3.5982,3.5982,3.5982,3.5982,3.5982,3.5982,3.5982,3.5982,3.5982,3.5982,3.5982,3.5982,3.5918,3.5527,3.541,3.5137,3.431,3.4134,3.3945,3.3464,3.3386,3.3386,3.3386,3.3386,3.3386,3.3386,3.3386,3.3386,3.3386,3.3386,3.3386,3.3386,3.3386,3.3386,3.3386,3.3386,3.3197,3.288,3.2816,3.2179,3.0847,2.9985,2.8691,2.7002,2.4955,2.3747,2.3372,2.3065,2.2712,4.1478,0.0,4.3165,4.3991,4.4091,4.4242,0.0,4.5372,4.5447,4.5999,4.6522,4.7099,4.7782,4.8259,4.8937,5.0042,5.072,5.1272,5.1825,5.3231,5.4195,5.411,5.4863,5.5039,5.4185,5.3858,5.3532,5.3096,5.297,5.2895,5.2895,5.2895,5.2792,5.255,5.2213,5.2015,5.1945,5.1327,5.0482,4.9449,4.8336,4.6838,4.4944,4.3529,4.2255,0.0,0.0,4.011,4.0074,3.9626,3.9393,3.9284,3.8902,3.8683,3.8513,3.7617,3.7305,3.7168,3.6309,3.5982,3.5982,3.5982,3.5982,3.5982,3.5982,3.5982,3.5982,3.5982,3.5982,3.5982,3.5982,3.5982,3.5982,3.5982,3.5982,3.5962,3.5898,3.5625,3.5234,3.4668,3.4297,3.3945,3.3464,3.3386,3.3386,3.3386,3.3386,3.3386,3.3386,3.3386,3.3386,3.3386,3.3386,3.3386,3.3386,3.3386,3.3386,3.3386,3.3165,3.2867,3.2549,3.2019,3.1216,3.0083,2.8031,2.6368,2.5138,2.4054,2.3372,2.303,2.2928,2.2853,4.1806,4.2308,4.2763,4.3589,4.3991,4.4418,4.5296,4.5497,4.5723,4.6496,4.6898,4.735,4.8159,4.8761,4.9439,5.0268,5.1122,5.1925,5.2729,5.3607,5.4195,5.411,5.4411,5.4386,5.3758,5.3482,5.3196,5.292,5.2895,5.2895,5.2895,5.2757,5.2491,5.2144,5.1387,5.1,5.1,5.0234,4.9058,4.7531,4.65,4.4903,4.2879,4.2059,4.1118,0.0,0.0,3.947,3.945,3.9053,3.8921,3.8921,3.8683,3.8493,3.8203,3.7539,3.7168,3.6914,3.625,3.5982,3.5982,3.5982,3.5982,3.5982,3.5982,3.5982,3.5982,3.5982,3.5982,3.5982,3.5982,3.5982,3.5982,3.5982,3.5982,3.5982,3.5982,3.584,3.5488,3.4824,3.4512,3.416,3.3503,3.3386,3.3386,3.3386,3.3386,3.3386,3.3386,3.3386,3.3386,3.3386,3.3386,3.3386,3.3386,3.326,3.3165,3.3165,3.2867,3.239,3.175,3.1055,2.987,2.8163,2.6167,2.4766,2.3986,2.3441,2.3065,2.2893,2.2893,2.2893,4.2688,4.3266,4.3517,4.4041,4.4564,4.5116,4.5723,4.5849,4.6125,4.7023,4.7299,4.7682,4.8743,4.9339,4.9941,5.0569,5.1548,5.2553,5.3457,5.3658,5.3858,5.4295,5.3959,5.3658,5.3582,5.3181,5.2895,5.2895,5.2895,5.2895,5.2895,5.2585,5.2144,5.1632,5.0506,4.9783,4.9473,4.8802,4.7477,4.553,4.4638,4.3214,4.1327,4.0958,4.0364,3.96,0.0,0.0,3.9082,3.873,3.8611,3.8611,3.8611,3.8301,3.7835,3.7461,3.7066,3.6636,3.6172,3.5982,3.5982,3.5982,3.5982,3.5982,3.5982,3.5976,3.5903,3.5962,3.5982,3.5982,3.5982,3.5982,3.5982,3.5982,3.5982,3.5982,3.5982,3.5942,3.5684,3.4863,3.4648,3.4355,3.3523,3.3386,3.3386,3.3386,3.3386,3.3386,3.3386,3.3386,3.3386,3.3386,3.3386,3.3386,3.3323,3.3007,3.2772,3.2594,3.2326,3.1603,3.0375,2.9576,2.813,2.5898,2.4563,2.3747,2.3406,2.3065,2.2893,2.2893,2.2893,2.2893,4.3237,4.4367,4.5246,4.5773,4.6321,4.6848,4.7405,4.7531,4.7581,4.7757,4.8184,4.8743,4.9364,4.9916,5.0619,5.1674,5.2377,5.282,5.2995,5.3432,5.3582,5.3196,5.3482,5.3532,5.3046,5.2945,5.2895,5.2895,5.2895,5.2895,5.2895,5.2585,5.19,5.0835,4.9664,4.8295,4.667,4.6522,4.5614,4.3918,4.274,4.1416,4.0048,3.9659,3.9225,3.8781,0.0,3.8708,3.8708,3.865,3.8611,3.8611,3.8611,3.8301,3.7835,3.7461,3.7066,3.6636,3.6172,3.5982,3.5982,3.5982,3.5982,3.5982,3.5982,3.5762,3.5566,3.5884,3.5982,3.5982,3.5982,3.5982,3.5982,3.5982,3.5982,3.5982,3.5982,3.5742,3.5332,3.4805,3.4414,3.4004,3.3484,3.3386,3.3386,3.3386,3.3386,3.3386,3.3386,3.3386,3.3386,3.3386,3.3386,3.3292,3.3007,3.2676,3.2102,3.1267,3.117,3.0115,2.7866,2.6802,2.5764,2.4766,2.3918,2.3475,2.3406,2.3065,2.2893,2.2893,2.2893,2.2893,4.3338,4.4618,4.5773,4.6903,4.7355,4.7575,4.7857,4.8159,4.846,4.8761,4.9264,4.9841,5.0393,5.0971,5.1599,5.2427,5.2719,5.2895,5.2895,5.3096,5.3206,5.292,5.313,5.3181,5.292,5.2895,5.2895,5.2895,5.2723,5.2619,5.2619,5.1691,5.0683,4.9735,4.8127,4.6574,4.5031,4.4369,4.3468,4.2224,4.1647,4.0706,3.9478,3.9574,3.9482,3.9277,0.0,3.8906,3.8887,3.8708,3.8611,3.8611,3.8611,3.8164,3.75,3.6855,3.6484,3.6289,3.606,3.5982,3.5982,3.5982,3.5982,3.5982,3.5982,3.5723,3.5488,3.5898,3.5859,3.5742,3.5923,3.5859,3.5684,3.5684,3.5488,3.5312,3.5312,3.5156,3.4883,3.4453,3.4231,3.3945,3.3464,3.3386,3.3386,3.3386,3.3386,3.3386,3.3386,3.3386,3.3323,3.3133,3.3133,3.2912,3.2403,3.1891,3.112,3.0098,2.9314,2.813,2.6401,2.5292,2.4461,2.3918,2.3406,2.3133,2.3133,2.2962,2.2893,2.2893,2.2893,2.2893,4.3338,4.4618,4.5849,4.7355,4.7908,4.8184,4.8435,4.8837,4.9314,4.9866,5.0318,5.0795,5.1373,5.1925,5.2427,5.282,5.2895,5.2895,5.2895,5.2895,5.2895,5.2895,5.2895,5.2895,5.2895,5.2826,5.2792,5.2792,5.2352,5.2074,5.197,5.0612,4.9401,4.849,4.6684,4.5079,4.3769,4.263,4.1713,4.095,4.0938,4.0302,3.9062,3.9531,3.9668,3.957,3.9219,3.9062,3.9023,3.8747,3.8611,3.8611,3.8611,3.8047,3.7187,3.6328,3.5982,3.5982,3.5982,3.5982,3.5982,3.5982,3.5982,3.5982,3.5982,3.5723,3.5488,3.5898,3.5723,3.5488,3.5918,3.5703,3.5391,3.5391,3.5039,3.4707,3.4707,3.4629,3.4453,3.4173,3.4016,3.3809,3.3445,3.3386,3.3386,3.3386,3.3386,3.3386,3.3386,3.3323,3.3133,3.2835,3.2626,3.2179,3.1263,3.039,2.9478,2.851,2.7419,2.6334,2.5259,2.436,2.3679,2.3304,2.303,2.2893,2.2893,2.2893,2.2893,2.2893,2.2893,2.2853,4.3338,4.4618,4.5773,4.6873,4.7958,4.9019,4.9992,5.0235,5.0469,5.1046,5.123,5.1398,5.195,5.2468,5.2845,5.2895,5.2895,5.2895,5.2895,5.2895,5.2895,5.2895,5.2895,5.2895,5.2895,5.2619,5.2446,5.2446,5.1726,5.1141,5.0765,4.9628,4.8453,4.7265,4.5714,4.41,4.2464,4.1594,4.0958,4.0559,4.0541,3.9901,3.8669,3.9062,3.9043,3.8708,3.8669,3.865,3.865,3.863,3.8611,3.8611,3.8611,3.8047,3.7187,3.6328,3.5982,3.5982,3.5982,3.5982,3.5982,3.5982,3.5982,3.5982,3.5982,3.5723,3.5488,3.5898,3.5723,3.5488,3.5918,3.5703,3.5391,3.5391,3.5039,3.4707,3.4707,3.4427,3.4134,3.4114,3.375,3.3425,3.3406,3.3386,3.3386,3.3386,3.3386,3.3386,3.3386,3.3133,3.2804,3.2485,3.1859,3.0829,2.9151,2.7717,2.662,2.5898,2.5764,2.5225,2.4156,2.3679,2.327,2.2928,2.2893,2.2893,2.2893,2.2893,2.2893,2.2893,2.2893,2.2712,4.3338,4.4367,4.5372,4.7149,4.7933,4.8435,4.9213,5.0193,5.1021,5.1247,5.1825,5.2377,5.2544,5.2744,5.2895,5.2895,5.2895,5.2895,5.2895,5.2895,5.2895,5.2895,5.2895,5.2826,5.2619,5.2248,5.1806,5.1317,5.034,4.9592,4.9175,4.7594,4.6381,4.5676,4.3849,4.2453,4.1554,4.0785,4.0128,3.9676,3.9997,3.9726,3.8965,3.9121,3.9121,3.8945,3.8728,3.8611,3.8611,3.8611,3.8611,3.8552,3.7988,3.7578,3.7187,3.6328,3.5982,3.5982,3.5982,3.5982,3.5982,3.5982,3.5982,3.5982,3.5982,3.5723,3.5488,3.5898,3.5508,3.5059,3.5508,3.5293,3.4902,3.4629,3.4238,3.3906,3.3906,3.3769,3.3672,3.3672,3.3535,3.3386,3.3386,3.3386,3.3386,3.3386,3.3386,3.3323,3.3102,3.2804,3.2294,3.1557,3.0033,2.8658,2.7518,2.6319,2.5326,2.4665,2.4597,2.4326,2.3645,2.327,2.303,2.2893,2.2893,2.2893,2.2893,2.2672,2.2579,2.2579,2.2439,2.2258,4.3338,4.4342,4.5347,4.7174,4.8058,4.8535,4.8969,5.0225,5.1406,5.1724,5.2402,5.2895,5.2895,5.2895,5.2895,5.2895,5.2895,5.2895,5.2895,5.2895,5.2895,5.2895,5.2826,5.2619,5.2248,5.1632,5.093,5.0127,4.8887,4.7877,4.7186,4.5533,4.4352,4.3852,4.2211,4.1105,4.0702,4.0012,3.9453,3.9004,3.9336,3.9316,3.9004,3.9141,3.9121,3.8984,3.8728,3.8611,3.8611,3.8611,3.8611,3.8532,3.7637,3.7305,3.7187,3.6328,3.5982,3.5982,3.5982,3.5982,3.5982,3.5982,3.5903,3.582,3.582,3.5508,3.5234,3.5527,3.5156,3.4746,3.4922,3.4746,3.4434,3.4173,3.375,3.3386,3.3386,3.3386,3.3386,3.3386,3.3386,3.3386,3.3386,3.3386,3.3386,3.3386,3.3292,3.3102,3.2804,3.2262,3.1345,2.9887,2.813,2.6735,2.5984,2.5056,2.4292,2.385,2.3713,2.3509,2.3236,2.303,2.2893,2.2893,2.2893,2.2853,2.276,2.2512,2.2378,2.2271,2.2084,2.1937,4.3363,4.4644,4.5773,4.6848,4.8385,4.959,4.9615,5.0494,5.1599,5.2669,5.2895,5.2895,5.2895,5.2895,5.2895,5.2895,5.2895,5.2895,5.2895,5.2895,5.2895,5.2895,5.2619,5.2213,5.1806,5.0754,4.9723,4.8946,4.7434,4.6036,4.4746,4.3541,4.2513,4.1711,4.0913,4.0266,3.9773,3.9384,3.8984,3.8611,3.8611,3.8611,3.863,3.9004,3.8965,3.8611,3.8611,3.8611,3.8611,3.8611,3.8611,3.8513,3.7637,3.7305,3.7187,3.6328,3.5982,3.5982,3.5982,3.5982,3.5982,3.6016,3.5742,3.5391,3.5391,3.5059,3.4707,3.4707,3.4687,3.459,3.4212,3.4095,3.4095,3.4095,3.373,3.3386,3.3386,3.3386,3.3386,3.3386,3.3386,3.3386,3.3386,3.3386,3.3386,3.3386,3.3102,3.2772,3.2422,3.1492,2.992,2.7468,2.6234,2.5292,2.4529,2.3816,2.3406,2.3406,2.3065,2.2893,2.2893,2.2893,2.2893,2.2893,2.2893,2.2712,2.2385,2.2371,2.2258,2.201,2.1977,2.185,4.4041,4.5196,4.6426,4.7908,4.8937,4.9916,5.1096,5.1624,5.2076,5.2744,5.2895,5.2895,5.2895,5.2895,5.2895,5.2895,5.2895,5.2895,5.2895,5.2895,5.2826,5.2585,5.2213,5.1597,5.0683,4.9521,4.8295,4.6942,4.5379,4.4045,4.3077,4.1854,4.1108,4.0838,4.0055,3.9522,3.9384,3.898,3.8728,3.8611,3.8611,3.8611,3.8611,3.8711,3.8691,3.8611,3.8611,3.8611,3.8611,3.8611,3.8398,3.8066,3.7519,3.7109,3.6832,3.623,3.5982,3.5982,3.5982,3.5982,3.5942,3.5664,3.5488,3.5332,3.5,3.4805,3.4707,3.4707,3.4492,3.4271,3.4134,3.3848,3.3613,3.3613,3.3516,3.3386,3.3386,3.3386,3.3386,3.3386,3.3386,3.3386,3.3386,3.3197,3.3038,3.3038,3.2562,3.1712,3.039,2.9085,2.7733,2.6234,2.509,2.4258,2.3782,2.3304,2.3065,2.3065,2.2962,2.2893,2.2893,2.2893,2.2893,2.2893,2.2659,2.2512,2.2385,2.2004,2.1796,2.1703,2.147,2.1323,4.4869,4.5919,4.7029,4.8686,4.969,5.0645,5.2101,5.2427,5.2528,5.282,5.2895,5.2895,5.2895,5.2895,5.2861,5.2723,5.2688,5.2585,5.2283,5.2213,5.2074,5.1736,5.1211,5.0482,4.9473,4.8186,4.6795,4.5405,4.3781,4.2474,4.1632,4.0574,3.9904,3.9727,3.9249,3.8945,3.8945,3.8728,3.8611,3.8611,3.8611,3.8611,3.8611,3.8611,3.8611,3.8611,3.8611,3.8611,3.8591,3.8379,3.8164,3.7835,3.7285,3.6894,3.6656,3.6172,3.5982,3.5982,3.5982,3.5918,3.5723,3.5469,3.5156,3.4824,3.4531,3.4336,3.4199,3.4199,3.4004,3.3809,3.3809,3.3613,3.3386,3.3386,3.3386,3.3386,3.3386,3.3386,3.3386,3.3386,3.3386,3.3355,3.3228,3.2931,3.2594,3.2339,3.1359,3.008,2.8444,2.7253,2.6167,2.5056,2.4258,2.3611,2.3236,2.303,2.284,2.2733,2.2827,2.2786,2.2559,2.2773,2.284,2.2686,2.2512,2.2311,2.2071,2.1756,2.1529,2.1408,2.1189,2.1014,4.5673,4.6747,4.7701,4.9289,5.0569,5.1699,5.2669,5.2895,5.2895,5.2895,5.2895,5.2895,5.2895,5.2895,5.2757,5.2387,5.2283,5.197,5.1211,5.1071,5.0895,5.0447,4.9771,4.8982,4.8127,4.6721,4.533,4.4125,4.2535,4.1258,4.0504,3.9637,3.8965,3.863,3.8611,3.8611,3.8611,3.8611,3.8611,3.8611,3.8611,3.8611,3.8611,3.8611,3.8591,3.8552,3.8552,3.8532,3.8474,3.8027,3.7816,3.7734,3.7007,3.6675,3.6562,3.6172,3.5982,3.5982,3.5976,3.5723,3.5391,3.5293,3.4759,3.4095,3.4055,3.373,3.3386,3.3386,3.3386,3.3386,3.3386,3.3386,3.3386,3.3386,3.3386,3.3386,3.3386,3.3386,3.3386,3.3386,3.3386,3.326,3.2912,3.2549,3.2006,3.1184,2.9641,2.8097,2.6653,2.5849,2.5056,2.4054,2.3577,2.3222,2.2887,2.2853,2.2699,2.2392,2.2632,2.2572,2.2004,2.2559,2.2719,2.2392,2.2352,2.2084,2.1582,2.1555,2.1408,2.1109,2.1077,2.0856,4.5522,4.733,4.9264,5.0042,5.1423,5.2594,5.2845,5.2895,5.2895,5.2895,5.2895,5.2895,5.2895,5.2688,5.2387,5.198,5.1422,5.0835,5.0411,5.0056,4.9605,4.8887,4.8381,4.7544,4.6181,4.5159,4.4088,4.2869,4.1532,4.0546,4.0053,3.9214,3.8708,3.8611,3.8611,3.8611,3.8611,3.8611,3.8611,3.8611,3.8611,3.8611,3.8611,3.8611,3.8379,3.8066,3.8066,3.7871,3.7559,3.7461,3.7246,3.6949,3.6773,3.6465,3.6152,3.6055,3.5982,3.5942,3.5644,3.5469,3.5273,3.4622,3.4251,3.4036,3.3672,3.3464,3.3386,3.3386,3.3386,3.3386,3.3386,3.3386,3.3386,3.3386,3.3386,3.3386,3.3386,3.3386,3.3386,3.3386,3.3197,3.288,3.2581,3.1782,3.0602,2.8757,2.7684,2.6653,2.5495,2.4766,2.4122,2.3577,2.3201,2.2868,2.2539,2.2512,2.2392,2.2098,2.2138,2.2158,2.2024,2.2325,2.2378,2.2084,2.189,2.1716,2.1582,2.1355,2.1176,2.1077,2.0824,2.0539,4.5974,4.7506,4.9113,5.0494,5.1875,5.282,5.2603,5.2528,5.2384,5.1938,5.2279,5.255,5.2144,5.1935,5.1562,5.0824,5.0198,4.9462,4.8562,4.7862,4.7286,4.6692,4.6072,4.5379,4.4628,4.3801,4.2902,4.1839,4.0803,4.001,3.957,3.8945,3.8611,3.8611,3.8611,3.8611,3.8611,3.8611,3.8611,3.8611,3.8611,3.8476,3.8262,3.8262,3.8144,3.7874,3.7715,3.75,3.7285,3.709,3.691,3.6675,3.6445,3.623,3.5982,3.5982,3.5898,3.5684,3.5469,3.5117,3.4687,3.4251,3.3958,3.3711,3.3464,3.3386,3.3386,3.3386,3.3386,3.3386,3.3386,3.3386,3.3386,3.3386,3.3386,3.3355,3.3197,3.3165,3.307,3.2753,3.253,3.2211,3.1506,3.013,2.8559,2.6936,2.6066,2.5259,2.436,2.3918,2.3522,2.2964,2.2747,2.2525,2.2231,2.2218,2.2084,2.1836,2.1943,2.1857,2.1577,2.1844,2.197,2.181,2.1662,2.1515,2.1368,2.103,2.0856,2.0856,2.0348,1.9858,4.6145,4.74,4.8686,5.077,5.1975,5.2528,5.2076,5.1975,5.169,5.0686,5.1331,5.1803,5.0979,5.0675,5.0207,4.9237,4.8485,4.7608,4.6345,4.5376,4.4672,4.4299,4.363,4.3173,4.3077,4.2434,4.172,4.0943,4.0208,3.9609,3.9219,3.8809,3.8611,3.8611,3.8611,3.8611,3.8611,3.8611,3.8611,3.8611,3.8532,3.8281,3.7874,3.7773,3.7715,3.766,3.7344,3.7148,3.7051,3.6734,3.6597,3.6523,3.6152,3.5982,3.5982,3.5982,3.5762,3.5391,3.5293,3.4746,3.4095,3.4016,3.3711,3.3386,3.3386,3.3386,3.3386,3.3386,3.3386,3.3386,3.3386,3.3386,3.3367,3.3289,3.3257,3.3151,3.2943,3.2867,3.2575,3.1843,3.1418,3.0819,2.9707,2.7999,2.6413,2.5405,2.468,2.4032,2.3406,2.3249,2.3025,2.2445,2.2378,2.2231,2.1937,2.1943,2.1823,2.1529,2.1729,2.1617,2.1136,2.1381,2.147,2.1419,2.147,2.1363,2.1014,2.0666,2.0443,2.0316,1.9571,1.8868,4.4715,4.7129,4.9665,5.1004,5.1431,5.1473,5.1398,5.1431,5.108,4.997,5.0136,5.0268,4.9527,4.8608,4.7866,4.7382,4.5845,4.4627,4.4516,4.3489,4.2532,4.2171,4.2019,4.1685,4.0981,4.0831,4.0548,4.0094,3.9588,3.9258,3.9199,3.8809,3.8611,3.8611,3.8611,3.8611,3.8611,3.8611,3.8611,3.8611,3.8184,3.7952,3.7874,3.7168,3.6871,3.6871,3.6812,3.6543,3.6157,3.6133,3.6079,3.6094,3.6001,3.5982,3.5982,3.5982,3.5762,3.5332,3.4922,3.4473,3.4036,3.3633,3.3445,3.3386,3.3386,3.3386,3.3386,3.3386,3.3386,3.3386,3.3386,3.3386,3.3289,3.2969,3.2673,3.252,3.2835,3.2676,3.2181,3.1154,2.9495,2.7845,2.652,2.5603,2.4749,2.3904,2.3459,2.3153,2.3003,2.27,2.2492,2.2418,2.2191,2.1924,2.1662,2.1649,2.1515,2.1189,2.1203,2.1189,2.1109,2.1149,2.1036,2.0731,2.1017,2.0991,2.0666,2.0335,1.9858,1.9264,1.8258,1.741,4.4188,4.6602,4.8837,4.9698,5.0343,5.0795,5.0795,5.0663,5.0166,4.8947,4.818,4.7637,4.7295,4.6652,4.5894,4.4873,4.3778,4.2895,4.2518,4.1555,4.0854,4.0706,4.045,4.0261,4.0164,4.0146,3.9973,3.9531,3.9316,3.9101,3.8867,3.8708,3.8611,3.8611,3.8611,3.8611,3.8611,3.8611,3.8493,3.8203,3.8008,3.7676,3.7207,3.6871,3.6714,3.6695,3.6406,3.6191,3.5982,3.5982,3.5982,3.5982,3.5982,3.5982,3.5962,3.5762,3.5391,3.4941,3.4492,3.4062,3.3672,3.3464,3.3386,3.3386,3.3386,3.3386,3.3386,3.3386,3.3386,3.3386,3.3386,3.3085,3.2746,3.2572,3.1968,3.1339,3.1133,3.0982,3.0424,2.8789,2.7303,2.5976,2.5028,2.4251,2.3593,2.3012,2.2642,2.2431,2.2385,2.2258,2.2111,2.1984,2.185,2.1649,2.1368,2.1309,2.1256,2.1122,2.1109,2.1014,2.0824,2.0824,2.057,2.0062,2.0539,2.057,2.003,1.9507,1.89,1.8162,1.6893,1.5954,4.3812,4.5664,4.7157,4.8008,4.8707,4.9252,4.9551,4.9339,4.878,4.7678,4.6449,4.5371,4.4781,4.4417,4.3853,4.2606,4.1922,4.133,4.0844,4.002,3.9512,3.9549,3.9258,3.918,3.9531,3.957,3.9414,3.9062,3.9043,3.8906,3.863,3.8611,3.8611,3.8611,3.8611,3.8611,3.8611,3.8457,3.8203,3.7773,3.7656,3.7266,3.6695,3.6597,3.6504,3.6484,3.6152,3.5982,3.5982,3.5982,3.5982,3.5982,3.5898,3.5859,3.5801,3.5371,3.4941,3.4492,3.4212,3.3789,3.3386,3.3386,3.3308,3.3262,3.3262,3.3121,3.298,3.298,3.2918,3.2836,3.2836,3.2373,3.1844,3.1667,3.0797,2.9934,2.9435,2.907,2.8265,2.6422,2.5309,2.4432,2.3662,2.3095,2.2605,2.2315,2.2067,2.193,2.1977,2.1957,2.1823,2.1609,2.1515,2.1381,2.1122,2.1109,2.1109,2.1109,2.1014,2.0824,2.0475,2.0316,1.9871,1.9092,1.9475,1.9475,1.906,1.8375,1.7604,1.6689,1.5466,1.452,4.3388,4.4115,4.4779,4.6314,4.6327,4.6182,4.7142,4.7134,4.6699,4.6133,4.5335,4.4114,4.2018,4.1615,4.1498,4.1145,4.0133,3.9503,3.9827,3.918,3.865,3.8669,3.865,3.865,3.8689,3.8689,3.8669,3.865,3.865,3.863,3.8611,3.8611,3.8611,3.8611,3.8611,3.8611,3.8611,3.8164,3.7754,3.7324,3.6934,3.6753,3.6695,3.625,3.6055,3.6055,3.6001,3.5982,3.5982,3.5982,3.5982,3.5942,3.5586,3.543,3.5371,3.4902,3.4473,3.4134,3.4114,3.3789,3.3386,3.3386,3.3144,3.2832,3.2832,3.2343,3.1788,3.1788,3.1554,3.1321,3.1321,3.1056,3.0624,2.991,2.9038,2.8311,2.8303,2.7284,2.5989,2.4587,2.3701,2.2914,2.1908,2.1687,2.1656,2.1666,2.1641,2.1703,2.1984,2.1783,2.1609,2.1582,2.1328,2.1122,2.1109,2.1109,2.1109,2.1109,2.0792,2.0475,2.0144,1.952,1.8676,1.7636,1.7324,1.7324,1.7604,1.6926,1.5889,1.4544,1.3833,1.312,4.1503,4.2388,4.3275,4.4042,4.4512,4.4936,4.5469,4.5462,4.5222,4.4762,4.3753,4.2586,4.1324,4.0862,4.0422,3.9572,3.9093,3.8851,3.9009,3.8781,3.8611,3.8611,3.8611,3.8611,3.8611,3.8611,3.8611,3.8611,3.8611,3.8611,3.8611,3.8611,3.8611,3.8611,3.8611,3.8474,3.8164,3.7734,3.7305,3.6894,3.6773,3.6523,3.625,3.6094,3.5982,3.5982,3.5982,3.5982,3.5982,3.5982,3.5859,3.5605,3.5449,3.5215,3.4902,3.4453,3.4231,3.4055,3.375,3.3555,3.3347,3.3105,3.2755,3.2444,3.2173,3.1612,3.1068,3.1068,3.0711,3.0322,3.0322,2.9534,2.843,2.7037,2.6293,2.5711,2.5078,2.4703,2.419,2.3061,2.2457,2.1947,2.1393,2.1267,2.1276,2.1288,2.1269,2.1309,2.1403,2.1336,2.1269,2.1269,2.1176,2.1109,2.1109,2.1109,2.1109,2.1109,2.0792,2.0253,1.9488,1.8772,1.7679,1.6181,1.5629,1.5499,1.5814,1.5359,1.4544,1.3374,1.2692,1.2107,3.9869,4.052,4.1275,4.1869,4.2239,4.2619,4.3245,4.3183,4.2961,4.2914,4.2098,4.1186,4.0627,4.0202,3.9626,3.8756,3.8611,3.8611,3.8611,3.8611,3.8611,3.8611,3.8611,3.8611,3.8611,3.8611,3.8611,3.8611,3.8611,3.8611,3.8611,3.8611,3.8552,3.8359,3.8359,3.8086,3.75,3.7226,3.6875,3.6445,3.6445,3.6289,3.5982,3.5982,3.5982,3.5982,3.5982,3.5982,3.5982,3.5859,3.5644,3.5371,3.5059,3.4766,3.4434,3.4004,3.3848,3.3809,3.3516,3.3386,3.3328,3.2805,3.2386,3.1977,3.134,3.0595,2.9935,2.9843,2.9274,2.8672,2.8672,2.7679,2.6286,2.4796,2.4178,2.3682,2.2793,2.295,2.3012,2.2104,2.1772,2.1488,2.1172,2.1109,2.1109,2.1109,2.1109,2.1109,2.1109,2.1109,2.1109,2.1109,2.1109,2.1109,2.1109,2.1109,2.1046,2.0951,2.0507,1.9743,1.8612,1.7647,1.6375,1.4749,1.4063,1.3669,1.3669,1.3669,1.321,1.2264,1.181,1.1413,0.0,0.0,0.0,3.9915,3.9498,3.91,4.0383,4.0203,3.9936,4.0575,4.0403,4.0041,3.9721,3.9409,3.9067,3.8647,3.8611,3.8611,3.8611,3.8611,3.8611,3.8611,3.8611,3.8611,3.8591,3.8591,3.8591,3.8571,3.8591,3.8591,3.8591,3.8591,3.8359,3.7894,3.7874,3.75,3.6714,3.6695,3.6445,3.5982,3.5982,3.5982,3.5982,3.5982,3.5982,3.5982,3.5982,3.5982,3.5942,3.5566,3.5391,3.5293,3.4446,3.4095,3.4036,3.3574,3.3386,3.3386,3.3386,3.3386,3.3265,3.2524,3.1977,3.1451,3.037,2.9299,2.8361,2.805,2.719,2.6432,2.6402,2.547,2.4301,2.3293,2.2793,2.2386,2.174,2.2104,2.2355,2.1709,2.1583,2.1488,2.1172,2.1109,2.1109,2.1109,2.1109,2.1109,2.1109,2.1109,2.1109,2.1077,2.1077,2.1077,2.1077,2.1077,2.0919,2.057,1.9934,1.8932,1.7539,1.6116,1.4749,1.3383,1.2634,1.1909,1.1181,1.1909,1.1876,1.1181,1.1181,1.1016,3.753,0.0,0.0,0.0,0.0,0.0,3.8123,3.84,3.8641,3.8579,3.8789,3.8933,3.8839,3.8813,3.872,3.8611,3.8611,3.8611,3.8611,3.8611,3.8611,3.8611,3.8611,3.8493,3.8144,3.8105,3.7969,0.0,3.793,3.8105,3.8105,3.8105,3.8047,3.7894,3.7344,3.6949,3.6714,3.6348,3.6133,3.5982,3.5982,3.5982,3.5982,3.5982,3.5982,3.5982,3.5982,3.5806,3.5566,3.5449,3.5195,3.4844,3.431,3.3887,3.3594,3.3445,3.3386,3.3355,3.3102,3.3038,3.2828,3.1538,3.0742,3.0057,2.892,2.7729,2.6736,2.6645,2.5731,2.4595,2.3868,2.3417,2.2981,2.2198,2.1947,2.1772,2.133,2.1393,2.1457,2.1267,2.1235,2.1204,2.1109,2.1109,2.1109,2.1109,2.1109,2.1109,2.1109,2.1109,2.1014,2.0761,2.0729,2.0634,2.0393,2.0393,2.0234,1.9903,1.9252,1.8258,1.6829,1.5424,1.403,1.2634,1.1876,1.128,1.085,1.128,1.128,1.085,1.085,1.0784,3.5635,3.5751,3.5904,3.6031,0.0,0.0,3.6269,3.6497,3.6704,3.6723,3.7123,3.7503,3.77,3.7896,3.8105,3.8281,3.8301,3.8359,3.8591,3.8611,3.8611,3.8611,3.8418,3.8203,3.7913,3.7773,3.7559,3.7324,3.7519,3.7656,3.7656,3.7656,3.7578,3.7402,3.6934,3.6616,3.6406,3.6152,3.5982,3.5982,3.5982,3.5982,3.5982,3.5982,3.5982,3.5982,3.5982,3.5781,3.5371,3.5176,3.4844,3.4394,3.3965,3.3652,3.3386,3.3228,3.3197,3.3102,3.2657,3.2466,3.2207,3.0455,2.9591,2.9013,2.7444,2.6371,2.5609,2.5333,2.4409,2.3261,2.2418,2.2167,2.2041,2.152,2.1393,2.133,2.1141,2.1109,2.1109,2.1109,2.1109,2.1109,2.1109,2.1109,2.1109,2.1109,2.1109,2.1109,2.1109,2.1109,2.0982,2.0647,2.0602,2.0425,1.9934,1.9743,1.9424,1.8772,1.8086,1.7023,1.5466,1.4315,1.3144,1.1876,1.128,1.0883,1.0684,1.0883,1.0883,1.0684,1.0684,1.0684,3.3508,3.3508,0.0,0.0,3.42,0.0,3.4819,3.478,3.4717,3.5177,3.5625,3.6074,3.6499,3.6914,3.7344,3.7734,3.7777,3.8027,3.8532,3.8611,3.8611,3.8611,3.8184,3.7874,3.7816,3.748,3.7207,3.7168,3.7207,3.7246,3.7305,3.7246,3.7051,3.6714,3.6656,3.6406,3.5982,3.5982,3.5982,3.5982,3.5942,3.5923,3.5937,3.5864,3.5879,3.5879,3.5879,3.5644,3.5215,3.4805,3.4414,3.4055,3.3594,3.3386,3.3292,3.2975,3.2816,3.2689,3.1969,3.1712,3.1327,2.9165,2.8417,2.7997,2.6005,2.5102,2.4672,2.4007,2.3168,2.2324,2.1709,2.1551,2.1488,2.1172,2.1109,2.1109,2.1109,2.1109,2.1109,2.1109,2.1109,2.1109,2.1109,2.1109,2.1109,2.1109,2.1077,2.1046,2.1046,2.1014,2.0856,2.0475,2.0412,2.0094,1.938,1.8996,1.8355,1.7281,1.6635,1.5531,1.3842,1.3087,1.2231,1.1214,1.0883,1.0684,1.0684,1.0684,1.0684,1.0684,1.0684,1.0684,3.2885,3.2885,3.3028,3.3617,0.0,0.0,3.4042,3.4402,3.4539,3.4394,3.4961,3.5547,3.5625,3.6269,3.6851,3.6894,3.7207,3.7695,3.8493,3.8611,3.8611,3.8611,3.8184,3.7757,3.7461,3.7031,3.6641,3.6289,3.6601,3.6968,3.7285,3.6973,3.6792,3.6714,3.6328,3.6079,3.5982,3.5982,3.5982,3.6016,3.5684,3.5508,3.5508,3.5137,3.4961,3.4961,3.4961,3.4726,3.4349,3.4271,3.4173,3.4055,3.3594,3.3228,3.2962,3.2613,3.2339,3.1937,3.0972,3.0455,2.9877,2.7755,2.6727,2.5993,2.4455,2.3573,2.295,2.2261,2.1947,2.1709,2.1299,2.1204,2.1172,2.1109,2.1109,2.1109,2.1109,2.1109,2.1109,2.1109,2.1109,2.1109,2.1109,2.1109,2.1109,2.1109,2.0856,2.0697,2.0697,2.0456,2.0074,1.9456,1.9156,1.8579,1.7582,1.7195,1.6537,1.5499,1.5033,1.4283,1.3046,1.2363,1.1743,1.1214,1.0883,1.0684,1.0684,1.0684,1.0684,1.0684,1.0684,1.0684,0.0,3.1787,3.1919,3.2435,0.0,0.0,0.0,3.3249,3.3375,3.3187,3.3665,3.416,3.4375,3.4941,3.5561,3.5957,3.6387,3.6894,3.7574,3.7988,3.8242,3.8242,3.7871,3.7441,3.7031,3.6601,3.625,3.6001,3.623,3.6445,3.6641,3.6465,3.6348,3.6348,3.6133,3.5982,3.5982,3.5982,3.5884,3.5703,3.5488,3.5273,3.5039,3.4805,3.4707,3.4707,3.4707,3.4453,3.4082,3.3921,3.3721,3.3475,3.3262,3.2848,3.2339,3.1846,3.1313,3.0682,2.9609,2.8933,2.8192,2.6311,2.537,2.4693,2.3283,2.2512,2.201,2.1695,2.1488,2.1299,2.1141,2.1109,2.1109,2.1109,2.1109,2.1109,2.1109,2.1109,2.1109,2.1109,2.1109,2.1109,2.1109,2.1109,2.1109,2.1109,2.0824,2.0602,2.0602,2.0157,1.9584,1.8912,1.8387,1.7647,1.658,1.5856,1.5075,1.4226,1.3637,1.2955,1.2033,1.1677,1.1314,1.0949,1.0784,1.0684,1.0684,1.0684,1.0684,1.0684,1.0684,1.0684,0.0,0.0,0.0,0.0,0.0,3.1621,0.0,0.0,0.0,3.2198,3.2472,3.2773,3.3125,3.3535,3.4114,3.4883,3.5371,3.584,3.6382,3.7012,3.7519,3.7773,3.7441,3.7051,3.6734,3.6211,3.5864,3.5864,3.5864,3.5864,3.5864,3.5976,3.5982,3.5982,3.5982,3.5982,3.5982,3.5903,3.5723,3.5391,3.5215,3.4941,3.457,3.4492,3.4453,3.4453,3.4453,3.4225,3.3849,3.3495,3.3046,3.253,3.2657,3.2307,3.1635,3.0861,3.0083,2.9249,2.8131,2.7277,2.6435,2.4815,2.3974,2.3379,2.2251,2.174,2.152,2.152,2.1299,2.1109,2.1109,2.1109,2.1109,2.1109,2.1109,2.1109,2.1109,2.1109,2.1109,2.1109,2.1109,2.1109,2.1109,2.1109,2.1077,2.1014,2.0666,2.0348,2.0221,1.9571,1.8836,1.8162,1.7378,1.6537,1.5574,1.4586,1.3702,1.3021,1.2437,1.1776,1.1115,1.1115,1.0982,1.0717,1.0684,1.0684,1.0684,1.0684,1.0684,1.0684,1.0684,1.0684,0.0,0.0,0.0,0.0,3.1494,0.0,0.0,0.0,3.2198,3.2198,0.0,3.2276,3.2335,0.0,0.0,3.3542,3.4004,3.4622,3.543,3.5625,3.6094,3.7226,3.6992,3.6753,3.6714,3.5937,3.5469,3.5469,3.5469,3.5469,3.5469,3.582,3.5982,3.5982,3.5982,3.5982,3.5982,3.5644,3.5449,3.5391,3.4622,3.4231,3.4153,3.375,3.3542,3.3542,3.3542,3.3345,3.2988,3.2689,3.1979,3.1202,3.1795,3.1603,3.0894,2.987,2.8822,2.7751,2.6424,2.5495,2.4668,2.3289,2.2221,2.1434,2.1249,2.1204,2.1172,2.1172,2.1141,2.1109,2.1109,2.1109,2.1109,2.1109,2.1109,2.1109,2.1109,2.1109,2.1109,2.1109,2.1109,2.1109,2.1109,2.1109,2.1014,2.0697,2.0125,1.9507,1.89,1.7937,1.7034,1.6364,1.5368,1.4488,1.3777,1.2997,1.2239,1.1512,1.138,1.1148,1.075,1.075,1.075,1.0684,1.0684,1.0684,1.0684,1.0684,1.0684,1.0684,1.0684,1.0684,0.0,0.0,0.0,0.0,0.0,0.0,0.0,0.0,3.1455,0.0,0.0,0.0,0.0,0.0,0.0,0.0,3.3047,3.3457,3.3828,3.4101,3.4726,3.6035,3.6035,3.582,3.558,3.5449,3.5293,3.5019,3.5234,3.5391,3.5391,3.5801,3.5982,3.5982,3.5982,3.5982,3.5982,3.5605,3.5254,3.498,3.4407,3.3977,3.3691,3.3496,3.3386,3.3386,3.3197,3.2931,3.2549,3.1846,3.1023,3.0245,2.987,2.9576,2.9201,2.8147,2.7186,2.6321,2.517,2.4305,2.3505,2.2382,2.1583,2.1109,2.1109,2.1109,2.1109,2.1109,2.1109,2.1109,2.1109,2.1109,2.1109,2.1109,2.1109,2.1109,2.1109,2.1109,2.1109,2.1109,2.0951,2.0761,2.0557,2.0697,2.0634,2.0094,1.9444,1.8772,1.8054,1.7066,1.6061,1.5173,1.4324,1.3547,1.2832,1.2107,1.1512,1.1214,1.1016,1.085,1.0717,1.0684,1.0684,1.0684,1.0684,1.0684,1.0684,1.0684,1.0684,1.0684,1.0684,1.0684,3.1055,0.0,0.0,0.0,0.0,0.0,0.0,0.0,0.0,0.0,0.0,0.0,0.0,0.0,0.0,0.0,0.0,3.248,3.2598,3.2891,3.3574,3.4883,3.5137,3.5078,3.4726,3.4902,3.4883,3.4551,3.4844,3.5078,3.5195,3.5605,3.5898,3.6016,3.5982,3.5982,3.5982,3.5605,3.5156,3.4687,3.431,3.3848,3.3386,3.3292,3.326,3.3228,3.2816,3.2371,3.191,3.0894,2.9902,2.8987,2.7899,2.7351,2.7102,2.6553,2.5883,2.5147,2.4037,2.3145,2.2383,2.1688,2.1299,2.1109,2.1109,2.1109,2.1109,2.1109,2.1109,2.1109,2.1109,2.1109,2.1109,2.1109,2.1109,2.1109,2.1109,2.1109,2.1077,2.0982,2.0697,2.0316,1.9794,1.9966,1.9934,1.9156,1.8451,1.77,1.6753,1.5856,1.4922,1.3932,1.3218,1.2561,1.2041,1.1413,1.1049,1.1049,1.0817,1.0684,1.0684,1.0684,1.0684,1.0684,1.0684,1.0684,1.0684,1.0684,1.0684,1.0684,1.0684,1.0651,0.0,0.0,0.0,3.1377,0.0,0.0,0.0,0.0,3.0898,0.0,0.0,0.0,0.0,0.0,0.0,0.0,0.0,0.0,0.0,3.2237,3.2707,3.3997,3.4505,3.4726,3.4707,3.4336,3.4134,3.4134,3.4134,3.4297,3.4707,3.5156,3.5605,3.5982,3.5982,3.5982,3.5982,3.5605,3.5156,3.4687,3.431,3.3848,3.3386,3.307,3.2931,3.288,3.2211,3.157,3.0879,2.9805,2.851,2.7169,2.61,2.5259,2.4699,2.536,2.5172,2.4342,2.302,2.194,2.1167,2.1122,2.1109,2.1109,2.1109,2.1109,2.1109,2.1109,2.1109,2.1109,2.1109,2.1109,2.1109,2.1109,2.1109,2.1109,2.1109,2.1109,2.1014,2.0666,2.0348,1.9794,1.8836,1.8944,1.8784,1.7732,1.699,1.6084,1.4674,1.3899,1.3186,1.2437,1.171,1.1247,1.1247,1.0916,1.0717,1.0717,1.0717,1.0684,1.0684,1.0684,1.0684,1.0684,1.0684,1.0684,1.0684,1.0684,1.0684,1.0684,1.0684,1.0518,0.0,0.0,3.1729,3.1562,0.0,0.0,0.0,0.0,0.0,0.0,0.0,0.0,0.0,0.0,0.0,0.0,0.0,0.0,0.0,3.1562,3.1894,3.2324,3.3242,3.375,3.3457,3.386,3.3977,3.3672,3.3906,3.4173,3.431,3.5,3.5449,3.5605,3.5879,3.5982,3.5982,3.5605,3.5156,3.4687,3.4083,3.3527,3.3038,3.2498,3.2115,3.1859,3.0908,3.013,2.9397,2.8081,2.6986,2.6066,2.5191,2.4597,2.4156,2.4156,2.3879,2.3359,2.2291,2.1539,2.1109,2.1109,2.1109,2.1109,2.1109,2.1109,2.1109,2.1109,2.1109,2.1109,2.1109,2.1109,2.1109,2.1109,2.1109,2.1046,2.0824,2.0761,2.0602,2.0062,1.9475,1.8772,1.7711,1.6861,1.6278,1.6116,1.5531,1.4674,1.3506,1.2955,1.2404,1.1644,1.1347,1.1115,1.0883,1.075,1.0684,1.0684,1.0684,1.0684,1.0684,1.0684,1.0684,1.0684,1.0684,1.0684,1.0684,1.0485,1.0359,1.0359,0.9888,0.9715,3.2413,3.2316,0.0,3.2012,3.1855,0.0,3.1406,0.0,0.0,0.0,0.0,0.0,0.0,0.0,0.0,0.0,0.0,0.0,0.0,3.1133,0.0,0.0,0.0,3.2871,3.2598,3.3203,3.3496,3.3223,3.3594,3.3906,0.0,3.4746,3.5215,3.5391,3.5801,3.5982,3.5982,3.5742,3.5246,3.4543,3.4042,3.3372,3.253,3.1859,3.1281,3.0764,2.9576,2.8658,2.7916,2.6586,2.5629,2.4955,2.4232,2.3764,2.3425,2.3399,2.3079,2.2537,2.1854,2.1395,2.1109,2.1109,2.1109,2.1109,2.1109,2.1109,2.1109,2.1109,2.1109,2.1109,2.1109,2.1109,2.1077,2.0951,2.0919,2.0792,2.0348,2.0157,1.9839,1.9028,1.8323,1.7475,1.6278,1.514,1.4455,1.4651,1.4095,1.3309,1.2355,1.2041,1.1677,1.1082,1.1016,1.0916,1.0717,1.0684,1.0684,1.0684,1.0684,1.0684,1.0684,1.0684,1.0684,1.0684,1.0585,1.0525,1.0525,1.0054,0.9755,0.9622,0.8751,0.8351]},{"header":{"parameterUnit":"m.s-1","parameterCategory":1,"la1":30.6,"la2":29.2853,"lo1":-89.7004,"lo2":-87.6739,"dy":0.0162,"dx":0.0183,"nx":112,"ny":82,"refTime":"2024-09-06T12:00:00:Z","depth":0,"parameterNumber":3,"parameterNumberName":"V-component_of_WINDS"},"data":[0.0,0.0,0.0,0.0,0.0,0.0,0.0,0.0,0.0,0.0,0.0,0.0,0.0,0.0,0.0,0.0,0.0,0.0,0.0,0.0,0.0,0.0,0.0,0.0,0.0,0.0,0.0,0.0,0.0,0.0,0.0,0.0,0.0,0.0,0.0,0.0,0.0,0.0,0.0,0.0,0.0,0.0,0.0,0.0,0.0,0.0,0.0,0.0,0.0,0.0,0.0,0.0,0.0,0.0,0.0,0.0,0.0,0.0,0.0,0.0,0.0,0.0,0.0,0.0,0.0,0.0,0.0,0.0,0.0,0.0,0.0,0.0,0.0,0.0,0.0,0.0,0.0,0.0,0.0,0.0,0.0,0.0,0.0,0.0,0.0,0.0,0.0,0.0,0.0,0.0,0.0,3.5519,3.5519,3.5519,3.5519,3.5519,3.4921,3.3574,0.0,0.0,0.0,0.0,0.0,0.0,0.0,0.0,0.0,0.0,0.0,0.0,0.0,0.0,0.0,0.0,0.0,0.0,0.0,0.0,0.0,0.0,0.0,0.0,0.0,0.0,0.0,0.0,0.0,0.0,0.0,0.0,0.0,0.0,0.0,0.0,0.0,0.0,0.0,0.0,0.0,0.0,0.0,0.0,0.0,0.0,0.0,0.0,0.0,0.0,0.0,0.0,0.0,0.0,0.0,0.0,0.0,0.0,0.0,0.0,0.0,0.0,0.0,0.0,0.0,0.0,0.0,0.0,0.0,0.0,0.0,0.0,0.0,0.0,0.0,0.0,0.0,0.0,0.0,0.0,0.0,0.0,0.0,0.0,0.0,0.0,0.0,0.0,0.0,0.0,0.0,0.0,0.0,0.0,0.0,0.0,0.0,0.0,0.0,0.0,0.0,0.0,0.0,0.0,3.5519,3.5519,3.5519,3.5519,3.5519,3.5519,3.4921,3.3574,0.0,0.0,0.0,0.0,0.0,0.0,0.0,0.0,0.0,0.0,0.0,0.0,0.0,0.0,0.0,0.0,0.0,0.0,0.0,0.0,0.0,0.0,0.0,0.0,0.0,0.0,0.0,0.0,0.0,0.0,0.0,0.0,0.0,0.0,0.0,0.0,0.0,0.0,0.0,0.0,0.0,0.0,0.0,0.0,0.0,0.0,0.0,0.0,0.0,0.0,0.0,0.0,0.0,0.0,0.0,0.0,0.0,0.0,0.0,0.0,0.0,0.0,0.0,0.0,0.0,0.0,0.0,0.0,0.0,0.0,0.0,0.0,0.0,0.0,0.0,0.0,0.0,0.0,0.0,0.0,0.0,0.0,0.0,0.0,0.0,0.0,0.0,0.0,0.0,0.0,0.0,0.0,0.0,0.0,0.0,0.0,0.0,0.0,0.0,0.0,0.0,0.0,0.0,3.513,3.5519,3.5519,3.5519,3.5519,3.5519,3.516,3.4532,3.3544,3.2198,0.0,0.0,0.0,0.0,0.0,0.0,0.0,0.0,0.0,0.0,0.0,0.0,0.0,0.0,0.0,0.0,0.0,0.0,0.0,0.0,0.0,0.0,0.0,0.0,0.0,0.0,0.0,0.0,0.0,0.0,0.0,0.0,0.0,0.0,0.0,0.0,0.0,0.0,0.0,0.0,0.0,0.0,0.0,0.0,0.0,0.0,0.0,0.0,0.0,0.0,0.0,0.0,0.0,0.0,0.0,0.0,0.0,0.0,0.0,0.0,0.0,0.0,0.0,0.0,0.0,0.0,0.0,0.0,0.0,0.0,0.0,0.0,0.0,0.0,0.0,0.0,0.0,0.0,0.0,0.0,0.0,0.0,0.0,0.0,0.0,0.0,0.0,0.0,0.0,0.0,0.0,0.0,0.0,0.0,0.0,0.0,0.0,0.0,0.0,0.0,0.0,0.0,3.5519,3.5519,3.5519,3.5519,3.5519,3.5519,3.4907,3.4158,3.3305,3.1539,0.0,0.0,0.0,0.0,0.0,0.0,0.0,0.0,0.0,0.0,0.0,0.0,0.0,0.0,0.0,0.0,0.0,0.0,0.0,0.0,0.0,0.0,0.0,0.0,0.0,0.0,0.0,0.0,0.0,0.0,0.0,0.0,0.0,0.0,0.0,0.0,0.0,0.0,0.0,0.0,0.0,0.0,0.0,0.0,0.0,0.0,0.0,0.0,0.0,0.0,0.0,0.0,0.0,0.0,0.0,0.0,0.0,0.0,0.0,0.0,0.0,0.0,0.0,0.0,0.0,0.0,0.0,0.0,0.0,0.0,0.0,0.0,0.0,0.0,0.0,0.0,0.0,0.0,0.0,0.0,0.0,0.0,0.0,0.0,0.0,0.0,0.0,0.0,0.0,0.0,0.0,0.0,0.0,0.0,0.0,0.0,0.0,0.0,0.0,0.0,0.0,0.0,3.5519,3.5519,3.5519,3.5519,3.5519,3.5519,3.4907,3.3949,3.2632,3.127,0.0,0.0,0.0,0.0,0.0,0.0,0.0,0.0,0.0,0.0,0.0,0.0,0.0,0.0,0.0,0.0,0.0,0.0,0.0,0.0,0.0,0.0,0.0,0.0,0.0,0.0,0.0,0.0,0.0,0.0,0.0,0.0,0.0,0.0,0.0,0.0,0.0,0.0,0.0,0.0,0.0,0.0,0.0,0.0,0.0,0.0,0.0,0.0,0.0,0.0,0.0,0.0,0.0,0.0,0.0,0.0,0.0,0.0,0.0,0.0,0.0,0.0,0.0,0.0,0.0,0.0,0.0,0.0,0.0,0.0,0.0,0.0,0.0,0.0,0.0,0.0,0.0,0.0,0.0,0.0,0.0,0.0,0.0,0.0,0.0,0.0,0.0,0.0,0.0,0.0,0.0,0.0,0.0,0.0,0.0,0.0,0.0,0.0,0.0,0.0,0.0,0.0,3.5519,3.5519,0.0,3.5519,3.5519,3.5519,3.4502,3.3484,3.2572,0.0,0.0,0.0,0.0,0.0,0.0,0.0,0.0,0.0,0.0,0.0,0.0,0.0,0.0,0.0,0.0,0.0,0.0,0.0,0.0,0.0,0.0,0.0,0.0,0.0,0.0,0.0,0.0,0.0,0.0,0.0,0.0,0.0,0.0,0.0,0.0,0.0,0.0,0.0,0.0,0.0,0.0,0.0,0.0,0.0,0.0,0.0,0.0,0.0,0.0,0.0,0.0,0.0,0.0,0.0,0.0,0.0,0.0,0.0,0.0,0.0,0.0,0.0,0.0,0.0,0.0,0.0,0.0,0.0,0.0,0.0,0.0,0.0,0.0,0.0,0.0,0.0,0.0,0.0,0.0,0.0,0.0,0.0,0.0,0.0,0.0,0.0,0.0,0.0,0.0,0.0,0.0,0.0,0.0,0.0,0.0,0.0,0.0,0.0,0.0,0.0,0.0,3.534,3.5519,3.5519,0.0,3.5519,3.5519,3.5519,3.4262,3.3125,3.2243,0.0,0.0,0.0,0.0,0.0,0.0,0.0,0.0,0.0,0.0,0.0,0.0,0.0,0.0,0.0,0.0,0.0,0.0,0.0,0.0,0.0,0.0,0.0,0.0,0.0,0.0,0.0,0.0,0.0,0.0,0.0,0.0,0.0,0.0,0.0,0.0,0.0,0.0,0.0,0.0,0.0,0.0,0.0,0.0,0.0,0.0,0.0,0.0,0.0,0.0,0.0,0.0,0.0,0.0,0.0,0.0,0.0,0.0,0.0,0.0,0.0,0.0,0.0,0.0,0.0,0.0,0.0,0.0,0.0,0.0,0.0,0.0,0.0,0.0,0.0,0.0,0.0,0.0,0.0,0.0,0.0,0.0,0.0,0.0,0.0,0.0,0.0,0.0,0.0,0.0,0.0,0.0,0.0,0.0,0.0,0.0,0.0,0.0,0.0,0.0,0.0,0.0,3.534,3.5519,3.5519,3.5519,3.5519,3.5519,3.5519,3.4262,3.2946,0.0,0.0,0.0,0.0,0.0,0.0,0.0,0.0,0.0,0.0,0.0,0.0,0.0,0.0,0.0,0.0,0.0,0.0,0.0,0.0,0.0,0.0,0.0,0.0,0.0,0.0,0.0,0.0,0.0,0.0,0.0,0.0,0.0,0.0,0.0,0.0,0.0,0.0,0.0,0.0,0.0,0.0,0.0,0.0,0.0,0.0,0.0,0.0,0.0,0.0,0.0,0.0,0.0,0.0,0.0,0.0,0.0,0.0,0.0,0.0,0.0,0.0,0.0,0.0,0.0,0.0,0.0,0.0,0.0,0.0,0.0,0.0,0.0,0.0,0.0,0.0,0.0,0.0,0.0,0.0,0.0,0.0,0.0,0.0,0.0,0.0,0.0,0.0,0.0,0.0,0.0,0.0,0.0,0.0,0.0,0.0,0.0,0.0,0.0,0.0,0.0,0.0,0.0,3.6028,3.6224,3.6224,3.6224,3.5789,3.5519,3.5519,3.4262,3.3125,3.2273,0.0,0.0,0.0,0.0,0.0,0.0,0.0,0.0,0.0,0.0,0.0,0.0,0.0,0.0,0.0,0.0,0.0,0.0,0.0,0.0,0.0,0.0,0.0,0.0,0.0,0.0,0.0,0.0,0.0,0.0,0.0,0.0,0.0,0.0,0.0,0.0,0.0,0.0,0.0,0.0,0.0,0.0,0.0,0.0,0.0,0.0,0.0,0.0,0.0,0.0,0.0,0.0,0.0,0.0,0.0,0.0,0.0,0.0,0.0,0.0,0.0,0.0,0.0,0.0,0.0,0.0,0.0,0.0,0.0,0.0,0.0,0.0,0.0,0.0,0.0,0.0,0.0,0.0,0.0,0.0,0.0,0.0,0.0,0.0,0.0,0.0,0.0,0.0,0.0,0.0,0.0,0.0,0.0,0.0,0.0,0.0,0.0,0.0,0.0,0.0,0.0,0.0,3.6374,3.6493,3.6493,3.6493,3.5908,3.5519,3.5519,3.4502,3.3484,3.2572,0.0,0.0,0.0,0.0,0.0,0.0,0.0,0.0,0.0,0.0,0.0,0.0,0.0,0.0,0.0,0.0,0.0,0.0,0.0,0.0,0.0,0.0,0.0,0.0,0.0,0.0,0.0,0.0,0.0,0.0,0.0,0.0,0.0,0.0,0.0,0.0,0.0,0.0,0.0,0.0,0.0,0.0,0.0,0.0,0.0,0.0,0.0,0.0,0.0,0.0,0.0,0.0,0.0,0.0,0.0,0.0,0.0,0.0,0.0,0.0,0.0,0.0,0.0,0.0,0.0,0.0,0.0,0.0,0.0,0.0,0.0,0.0,0.0,0.0,0.0,0.0,0.0,0.0,0.0,0.0,0.0,0.0,0.0,0.0,0.0,0.0,0.0,0.0,0.0,0.0,0.0,0.0,0.0,0.0,0.0,0.0,0.0,0.0,0.0,0.0,0.0,0.0,3.6493,3.6583,3.6583,3.6583,3.5938,3.5519,3.5519,3.4907,3.3979,3.2751,0.0,0.0,0.0,0.0,0.0,0.0,0.0,0.0,0.0,0.0,0.0,0.0,0.0,0.0,0.0,0.0,0.0,0.0,0.0,0.0,0.0,0.0,0.0,0.0,0.0,0.0,0.0,0.0,0.0,0.0,0.0,0.0,0.0,0.0,0.0,0.0,0.0,0.0,0.0,0.0,0.0,0.0,0.0,0.0,0.0,0.0,0.0,0.0,0.0,0.0,0.0,0.0,0.0,0.0,0.0,0.0,0.0,0.0,0.0,0.0,3.6507,0.0,0.0,0.0,0.0,0.0,0.0,0.0,0.0,0.0,0.0,0.0,0.0,0.0,0.0,0.0,0.0,0.0,0.0,0.0,0.0,0.0,0.0,0.0,0.0,0.0,0.0,0.0,0.0,0.0,0.0,0.0,0.0,0.0,0.0,0.0,0.0,0.0,0.0,0.0,0.0,0.0,3.7135,3.7225,3.7225,3.7225,3.6178,3.5519,3.5519,3.4907,3.4384,3.4099,3.2452,0.0,0.0,0.0,0.0,0.0,0.0,0.0,0.0,0.0,0.0,0.0,0.0,0.0,0.0,0.0,0.0,0.0,0.0,0.0,0.0,0.0,0.0,0.0,0.0,0.0,0.0,0.0,0.0,0.0,0.0,0.0,0.0,0.0,0.0,0.0,0.0,0.0,0.0,0.0,0.0,0.0,0.0,0.0,0.0,0.0,0.0,0.0,0.0,0.0,0.0,0.0,0.0,0.0,0.0,0.0,0.0,0.0,0.0,0.0,0.0,3.7883,0.0,0.0,0.0,0.0,0.0,0.0,0.0,0.0,0.0,0.0,0.0,0.0,0.0,0.0,0.0,0.0,0.0,0.0,0.0,0.0,0.0,0.0,0.0,0.0,0.0,0.0,0.0,0.0,0.0,0.0,0.0,0.0,0.0,0.0,0.0,0.0,0.0,0.0,0.0,0.0,3.7375,3.7387,3.7387,3.7387,3.6267,3.5519,3.5519,3.519,3.4847,3.4518,3.3514,0.0,0.0,0.0,0.0,0.0,0.0,0.0,0.0,0.0,0.0,0.0,0.0,0.0,0.0,0.0,0.0,0.0,0.0,0.0,0.0,0.0,0.0,0.0,0.0,0.0,0.0,0.0,0.0,0.0,0.0,0.0,0.0,0.0,0.0,0.0,0.0,0.0,0.0,0.0,0.0,0.0,0.0,0.0,0.0,0.0,0.0,0.0,0.0,0.0,0.0,0.0,0.0,0.0,4.307,4.3668,4.3668,4.3718,4.3718,4.3549,4.1365,4.0229,3.9888,3.92,0.0,0.0,0.0,0.0,0.0,0.0,0.0,0.0,0.0,0.0,0.0,0.0,0.0,0.0,0.0,0.0,0.0,0.0,0.0,0.0,0.0,0.0,0.0,0.0,4.2241,4.2092,0.0,0.0,0.0,0.0,0.0,0.0,0.0,0.0,0.0,0.0,0.0,0.0,3.7554,3.7477,3.7387,3.7387,3.6267,3.5519,3.5519,3.5519,3.525,3.4697,3.4548,3.3769,0.0,0.0,0.0,0.0,0.0,0.0,0.0,0.0,0.0,0.0,0.0,0.0,0.0,0.0,0.0,0.0,0.0,0.0,0.0,0.0,0.0,0.0,0.0,0.0,0.0,0.0,0.0,0.0,0.0,0.0,0.0,0.0,3.9242,3.9918,0.0,0.0,0.0,0.0,0.0,0.0,0.0,0.0,0.0,0.0,0.0,0.0,0.0,4.2801,4.2801,4.3549,4.3928,4.3928,4.4676,4.5035,4.5035,4.5035,4.5035,4.5005,4.4676,0.0,4.1961,4.1283,0.0,0.0,0.0,0.0,0.0,0.0,0.0,0.0,0.0,0.0,0.0,0.0,0.0,0.0,0.0,0.0,0.0,0.0,0.0,0.0,0.0,0.0,4.2182,4.2891,4.3549,4.3788,0.0,4.1803,4.0625,3.9361,3.8542,0.0,0.0,0.0,0.0,0.0,0.0,0.0,3.8182,3.7764,3.7387,3.7387,3.6267,3.5519,3.5519,3.5519,3.5459,3.537,3.4817,3.4384,3.4128,3.3544,0.0,0.0,0.0,0.0,0.0,0.0,0.0,0.0,0.0,0.0,0.0,0.0,0.0,0.0,0.0,0.0,0.0,0.0,0.0,0.0,0.0,0.0,0.0,0.0,0.0,0.0,0.0,0.0,0.0,4.0139,4.1425,4.0995,4.1575,4.1634,0.0,0.0,0.0,0.0,0.0,0.0,0.0,0.0,0.0,4.303,4.3958,4.4416,4.4416,4.5074,4.5433,4.5433,4.6112,4.6411,4.6411,4.6411,4.6411,4.6411,4.6411,4.5723,4.4496,4.3449,4.2851,4.2551,0.0,0.0,0.0,0.0,4.1833,4.2113,4.2791,4.2791,4.2532,4.291,0.0,0.0,0.0,0.0,0.0,0.0,0.0,0.0,0.0,0.0,4.2631,4.3629,4.4087,4.4207,4.3938,4.3399,4.2521,0.0,3.9679,3.8763,3.8242,0.0,0.0,0.0,0.0,3.8063,3.838,3.7823,3.7387,3.7387,3.6267,3.5519,3.5519,3.5519,3.5519,3.5519,3.522,3.4907,3.4533,3.4296,3.3742,0.0,0.0,0.0,0.0,0.0,0.0,0.0,0.0,0.0,0.0,0.0,0.0,0.0,0.0,0.0,0.0,0.0,0.0,0.0,0.0,0.0,0.0,0.0,0.0,0.0,0.0,0.0,0.0,4.1874,4.307,4.2481,4.324,4.3369,0.0,0.0,0.0,0.0,0.0,0.0,4.3129,4.4197,4.4805,4.4805,4.5454,4.5813,4.5813,4.6322,4.654,4.657,4.7048,4.7309,4.7309,4.7309,4.7309,4.7309,4.7309,4.704,4.648,4.5284,4.4715,4.4506,4.3997,4.3818,4.3868,4.3868,4.3868,4.3908,4.4566,4.4356,4.3938,4.4596,4.4237,4.3399,4.2432,0.0,0.0,0.0,0.0,4.1134,4.2141,4.253,4.293,4.4027,4.4296,4.4296,4.4296,4.4296,4.3778,0.0,4.0846,4.0068,3.972,0.0,0.0,0.0,0.0,3.8452,3.8631,3.7913,3.7387,3.7387,3.6267,3.5519,3.5519,3.5519,3.5519,3.5519,3.5522,3.5314,3.4821,3.4996,3.4834,3.4243,0.0,0.0,0.0,0.0,0.0,0.0,0.0,0.0,0.0,0.0,0.0,0.0,0.0,0.0,0.0,0.0,0.0,0.0,0.0,0.0,0.0,0.0,0.0,0.0,0.0,0.0,0.0,0.0,0.0,4.4945,4.5155,0.0,0.0,0.0,0.0,4.4147,4.4197,4.4496,4.5125,4.5822,4.6211,4.6211,4.686,4.7189,4.7189,4.7249,4.7249,4.7249,4.7279,4.7309,4.7309,4.7309,4.7309,4.7309,4.7309,4.7279,4.7219,4.648,4.5822,4.5244,4.5214,4.5185,4.5185,4.5185,4.5185,4.5304,4.5971,4.5762,4.5304,4.5971,4.5313,4.4237,4.4177,4.324,0.0,0.0,4.2291,4.2321,4.2381,4.2821,4.3429,4.4117,4.4296,4.4296,4.4296,4.4296,4.3898,0.0,4.2291,4.1822,4.0576,0.0,3.9302,3.9302,3.8781,3.8631,3.9272,3.8195,3.7387,3.7387,3.6267,3.5519,3.5519,3.5519,3.5519,3.5519,3.5621,3.5688,3.5627,3.593,3.5906,3.5399,3.5533,0.0,0.0,0.0,0.0,0.0,0.0,0.0,0.0,0.0,0.0,0.0,0.0,0.0,0.0,0.0,0.0,0.0,0.0,0.0,0.0,0.0,0.0,0.0,0.0,0.0,0.0,0.0,0.0,4.5274,4.5693,0.0,4.5005,4.4945,4.4945,4.4945,4.5343,4.5702,4.5912,4.657,4.6929,4.6929,4.7189,4.7309,4.7309,4.7309,4.7309,4.7309,4.7309,4.7309,4.7309,4.7309,4.7309,4.7309,4.7309,4.7309,4.7279,4.704,4.68,4.6591,4.6591,4.6591,4.6591,4.6591,4.6591,4.6621,4.686,4.68,4.6621,4.689,4.633,4.5583,4.5583,4.4975,4.4277,4.4277,4.3978,4.3629,4.3629,4.3459,4.3349,4.3609,4.3668,4.3668,4.3668,4.3668,4.3519,4.309,4.2661,4.2261,4.1762,4.1134,4.0546,4.0127,3.9828,3.9619,3.9421,3.8601,3.7883,3.7464,3.6656,3.5968,3.5549,3.5519,3.5538,3.5621,3.5814,3.6005,3.621,3.6616,3.6828,3.6729,3.674,3.6574,0.0,0.0,0.0,0.0,0.0,0.0,0.0,0.0,0.0,0.0,0.0,0.0,0.0,0.0,0.0,0.0,0.0,0.0,0.0,0.0,0.0,0.0,0.0,0.0,0.0,0.0,4.6561,4.6322,4.6711,4.68,4.6352,4.6112,4.5963,4.5963,4.6411,4.6629,4.6629,4.7279,4.7638,4.7638,4.7848,4.7848,4.7638,4.7638,4.7519,4.7309,4.7309,4.7309,4.7309,4.7309,4.7309,4.7309,4.7309,4.7309,4.7309,4.7309,4.7309,4.7309,4.7309,4.7309,4.7309,4.7309,4.7309,4.7309,4.7309,4.7309,4.7309,4.7309,4.6988,4.6629,4.6629,4.6172,4.5633,4.5633,4.5155,4.4586,4.4356,4.3967,4.3579,4.3349,4.329,4.329,4.329,4.329,4.329,4.329,4.3,4.269,4.269,4.2182,4.1583,4.1134,4.0696,4.0247,3.978,3.896,3.823,3.7793,3.7165,3.6537,3.5878,3.5868,3.5892,3.5814,3.6084,3.6383,3.6723,3.7223,3.7736,3.8165,3.8344,3.8401,3.8401,0.0,0.0,0.0,0.0,0.0,0.0,0.0,0.0,0.0,0.0,0.0,0.0,0.0,0.0,0.0,0.0,0.0,0.0,0.0,0.0,0.0,0.0,0.0,4.5244,4.6501,4.7578,4.8207,4.8319,4.8349,4.8349,4.7728,4.7369,4.7369,4.7369,4.7369,4.7369,4.7967,4.8349,4.8349,4.8947,4.8977,4.8349,4.8349,4.8019,4.7369,4.7369,4.7369,4.7369,4.7369,4.7369,4.7339,4.7339,4.7339,4.7309,4.7309,4.7309,4.7309,4.7309,4.7309,4.7309,4.7309,4.7309,4.7309,4.7309,4.7309,4.7309,4.7309,4.7309,4.7309,4.7309,4.6839,4.633,4.633,4.5873,4.5185,4.4536,4.4356,4.4177,4.3519,4.3349,4.3319,4.3319,4.329,4.329,4.329,4.329,4.329,4.329,4.2821,4.241,4.241,4.1283,0.0,4.0397,3.926,3.8469,3.8409,3.7823,3.7212,3.66,3.669,3.6553,3.6112,3.6538,3.6954,3.7286,3.7892,3.8689,3.9746,4.0354,4.0688,4.0688,0.0,0.0,0.0,0.0,0.0,0.0,0.0,0.0,0.0,0.0,0.0,0.0,0.0,0.0,0.0,0.0,0.0,0.0,0.0,0.0,0.0,4.4984,4.5822,4.6001,4.7189,4.8087,4.8289,4.8738,4.9037,4.9037,4.8858,4.8738,4.8738,4.8738,4.8738,4.8738,4.8917,4.9037,4.9037,4.9187,4.9187,4.9037,4.9037,4.8917,4.8738,4.8738,4.8738,4.8738,4.8738,4.8498,4.8027,4.8027,4.7758,4.7309,4.7309,4.7309,4.7309,4.7309,4.7309,4.7309,4.7309,4.7309,4.7309,4.7309,4.7309,4.7309,4.7309,4.7309,4.7309,4.7309,4.7189,4.704,4.704,4.654,4.5971,4.5792,4.5373,4.4975,4.4796,4.4356,4.4027,4.4027,4.3638,4.329,4.329,4.329,4.329,4.329,4.316,4.291,4.247,4.2081,0.0,4.0516,4.0068,3.9523,3.8705,3.8451,3.8193,3.7845,3.785,3.799,3.8227,3.8545,3.8995,3.9569,4.0069,4.0701,4.1416,4.2129,4.2535,0.0,0.0,0.0,0.0,0.0,0.0,0.0,0.0,0.0,0.0,0.0,0.0,0.0,0.0,0.0,0.0,0.0,0.0,0.0,0.0,0.0,0.0,4.6211,4.692,4.7489,4.8229,4.8828,4.9075,4.9434,4.9673,4.9673,4.9456,4.9277,4.9277,4.9277,4.9277,4.9277,4.9546,4.9673,4.9673,4.9942,4.9942,4.9673,4.9673,4.9546,4.9277,4.9277,4.9277,4.9277,4.9277,4.9097,4.8708,4.8708,4.8498,4.8139,4.8139,4.7967,0.0,0.0,0.0,0.0,0.0,4.7309,4.7309,4.7309,4.7309,4.7309,4.7309,4.7309,4.7309,4.7309,4.7309,4.7309,4.7309,4.7018,4.6659,4.636,4.6001,4.5663,4.5364,4.5005,4.4736,4.4736,4.4416,4.4147,4.4147,4.3908,0.0,4.3728,4.3489,4.319,4.2821,4.2541,4.2111,4.1343,4.0756,4.0171,3.9588,3.9604,3.9543,3.9283,3.9734,0.0,0.0,0.0,4.0826,4.1508,4.2464,0.0,0.0,0.0,0.0,0.0,0.0,0.0,0.0,4.4085,4.4587,0.0,0.0,0.0,0.0,0.0,0.0,0.0,0.0,0.0,0.0,0.0,0.0,0.0,0.0,0.0,0.0,4.7489,4.7997,4.9337,4.9516,4.9673,5.0159,5.0278,5.0315,5.0315,4.9883,4.9606,4.9606,4.9696,4.9726,4.9726,0.0,0.0,0.0,0.0,5.1146,5.0524,5.0548,5.0272,4.9726,4.9726,4.9726,4.9726,4.9666,4.9576,4.9516,4.9426,4.9366,4.9277,4.9277,4.8947,4.8349,4.7578,4.7309,4.7309,4.7309,4.7309,4.7309,4.7309,0.0,0.0,4.7309,4.7309,4.7309,4.7309,4.7309,4.7309,4.7309,4.7309,4.716,4.657,4.642,4.6271,4.5663,4.5454,4.5394,4.5394,4.5334,4.5304,4.5304,4.4825,4.4416,4.4416,4.3788,4.329,4.329,4.287,4.2539,4.2449,4.1449,4.078,4.091,0.0,0.0,4.1048,4.2043,4.2322,4.1486,4.2043,4.269,4.3375,4.4836,4.5689,4.5838,4.6616,4.7056,4.7056,4.7853,4.8259,4.8259,4.753,4.753,0.0,0.0,0.0,0.0,0.0,0.0,0.0,0.0,0.0,0.0,0.0,0.0,0.0,0.0,0.0,4.8027,4.8558,4.9366,5.0661,5.084,5.0667,5.0255,5.0697,5.0996,5.0996,5.1409,5.1648,5.1648,5.2151,5.245,5.245,5.257,5.2606,5.2606,5.2725,5.2725,5.2606,5.2606,5.2546,5.245,0.0,0.0,5.242,5.1911,5.1349,5.0787,5.0249,4.9763,4.9277,4.9277,4.9217,4.8977,4.7758,4.7309,4.7309,4.7309,4.7309,4.7309,4.7309,4.7309,4.7309,4.7309,4.7309,4.7309,4.7309,4.7309,0.0,4.7309,4.7309,4.7279,4.716,4.713,4.7048,4.695,4.648,4.6121,4.6121,4.5693,4.5304,4.5304,4.5185,4.5095,4.5095,4.4087,4.329,4.329,4.3378,4.3244,4.2713,4.2717,4.2677,4.2489,4.2754,4.3151,4.369,4.4118,4.4448,4.4668,4.5167,4.5562,4.5816,4.6296,4.6568,4.6597,4.7902,4.8578,4.8578,4.9916,5.0558,5.0558,4.9796,4.9541,0.0,0.0,0.0,0.0,0.0,0.0,0.0,0.0,0.0,0.0,0.0,4.6912,4.7241,0.0,4.9127,5.0092,5.0511,5.1103,5.2067,5.2187,5.2067,5.1738,5.2007,5.2187,5.2187,5.2486,5.2695,5.2695,5.3019,5.3198,5.3198,5.3198,5.3198,5.3198,5.3198,5.3198,5.3198,5.3198,5.3198,5.3198,5.3198,5.3198,5.3198,5.2869,5.2516,5.2157,5.1475,5.105,5.0714,5.0032,4.9763,4.9643,4.8686,4.8087,4.7788,4.7788,4.7578,4.7309,4.7309,4.7309,4.7309,4.7309,4.7309,4.7309,4.7309,4.7309,4.7309,4.7309,4.7309,4.7309,4.7309,4.7309,4.7309,4.7309,4.7018,4.6779,4.6779,4.6531,4.6292,4.6292,4.6022,4.5813,4.5813,4.4954,4.4296,4.4296,4.4228,4.4076,4.3842,4.359,4.3507,4.3644,4.3973,4.4495,4.5224,4.5685,4.6153,4.6562,4.6858,4.7056,4.7192,4.7992,4.8458,4.8458,4.956,5.0085,5.0085,5.1201,5.1742,5.1742,5.184,5.1685,0.0,0.0,0.0,0.0,0.0,0.0,0.0,4.7878,4.8297,4.9097,4.9247,4.9396,4.9786,5.0085,5.0774,5.2336,5.2695,5.3025,5.3707,5.3797,5.3827,5.3947,5.3623,5.3468,5.3588,5.3707,5.3797,5.3797,5.3887,5.3977,5.3977,5.3977,5.3977,5.3977,5.3977,5.3977,5.3977,5.3857,5.3797,5.3767,5.3648,5.3588,5.3588,5.3468,5.3408,5.3348,5.2546,5.2187,5.2097,5.0877,5.0375,5.0368,4.9853,4.9277,4.8656,4.8558,4.8057,4.7489,4.7489,4.7429,4.7309,4.7309,4.7309,4.7309,4.7309,4.7309,4.7309,4.7309,4.7309,4.7309,4.7309,4.7309,4.7309,4.7309,4.7309,4.7309,4.7309,4.7309,4.7309,4.7309,4.6839,4.6531,4.6544,4.6115,4.5645,4.5355,4.5071,4.5021,4.519,4.4806,4.4723,4.5236,4.5716,4.6272,4.6996,4.7551,4.8015,4.828,4.836,4.8422,4.8548,4.9695,5.0304,5.0304,5.1048,5.1404,5.1404,5.2164,5.2553,5.2586,5.3411,5.3459,4.5095,4.5843,4.701,4.7578,4.8289,4.9486,0.0,5.1558,5.1116,5.239,5.266,5.251,5.1977,5.2845,5.3713,5.3952,5.4491,5.5089,5.5773,5.5863,5.6072,5.6585,5.5149,5.4311,5.491,5.5504,5.5863,5.5863,5.6372,5.6645,5.6645,5.6645,5.6645,5.6645,5.6645,5.6645,5.6645,5.6132,5.5863,5.5863,5.5264,5.497,5.4965,5.4371,5.4102,5.4012,5.2755,5.2187,5.2127,5.1385,5.1086,5.1086,5.0996,5.0578,4.992,4.9396,4.8768,4.8199,4.8199,4.7788,4.7309,4.7309,4.7309,4.7309,4.7309,4.7309,4.7309,4.7309,4.7309,4.7309,4.7309,4.7309,4.7309,4.7309,4.7309,4.7309,4.7309,4.7309,4.7309,4.7309,4.7249,4.7233,4.7426,4.7379,4.6864,4.5525,4.5778,4.6182,4.6381,4.7265,4.8029,4.8429,4.9156,4.9841,5.0391,5.0636,5.0765,5.0797,5.0797,5.0813,5.0829,5.0998,5.1066,5.1066,5.1792,5.2198,5.2198,5.2976,5.3432,5.3548,5.3961,5.4042,4.751,4.8049,4.8798,5.0212,5.1349,5.2546,5.4037,5.4221,5.4276,5.4845,5.4635,5.4306,5.3982,5.4401,5.491,0.0,5.5867,5.6406,5.6701,5.6705,5.6944,5.7633,5.6948,5.6436,5.6316,5.6915,5.7304,5.7304,5.7902,5.8261,5.8261,5.8261,5.8082,5.7693,5.7693,5.7513,5.7094,5.6825,5.6705,5.6731,5.6436,5.6107,5.5773,5.5504,5.494,5.4192,5.3623,5.2935,5.2187,5.1917,5.1535,5.1206,5.1206,5.1026,5.0697,5.0039,4.9404,4.8887,4.8887,4.8708,4.8409,4.7997,4.7878,4.7818,4.7429,4.7309,4.7309,4.7309,4.7309,4.7309,4.7309,4.7309,4.7309,4.7309,4.7309,4.7309,4.7309,4.7309,4.7309,4.7309,4.7309,4.7374,4.7559,4.773,4.7698,4.7258,4.7232,4.7409,4.7832,4.8394,4.9037,4.9794,5.0358,5.0743,5.0991,5.112,5.1201,5.1201,5.1201,5.1201,5.1201,5.1607,5.1844,5.1844,5.2604,5.301,5.301,5.3348,5.3568,5.3717,5.4044,5.4333,4.8977,4.9816,5.0744,5.2336,5.4042,5.5448,5.6107,5.6765,5.721,5.703,5.6466,5.5897,5.5538,5.5598,5.5927,5.6641,5.7393,5.7992,5.8171,5.8201,5.8381,5.8863,5.8922,5.8743,5.8261,5.8471,5.8713,5.8892,5.9398,5.9668,5.9668,5.9668,5.9428,5.8922,5.8922,5.862,5.7932,5.7723,5.7543,5.7363,5.7184,5.6855,5.6432,5.6282,5.5683,5.473,5.4371,5.3653,5.2725,5.2366,5.1917,5.1445,5.1265,5.1206,5.1146,5.0667,5.0069,4.9546,4.9546,4.9426,4.9217,4.8738,4.8588,4.8498,4.7997,4.7848,4.7848,4.7848,4.7848,4.7848,4.7848,4.7848,4.7848,4.7848,4.7698,4.7578,4.7578,4.7429,4.7331,4.7374,4.7396,4.7525,4.7901,4.8166,4.8542,4.9107,4.9023,4.8954,4.9226,4.9687,5.0351,5.1245,5.1547,5.1679,5.1679,5.1778,5.1844,5.1844,5.1844,5.1844,5.1844,5.2367,5.2638,5.2638,5.3213,5.3518,5.3518,5.3518,5.3601,5.38,5.4125,5.4586,4.9097,5.1163,5.3258,5.3952,5.6081,5.8145,5.883,5.9488,5.9815,5.9159,5.8474,5.7606,5.6402,5.6671,5.7274,5.7935,5.9159,6.0236,6.0894,6.0956,6.1014,6.1014,6.1014,6.0986,0.0,6.0416,6.0296,6.0956,6.1016,6.1016,6.1016,6.1016,6.1016,6.1014,6.1014,6.0685,6.0024,5.9368,5.871,5.8055,5.7423,5.7094,5.7034,5.6462,5.6162,5.6072,5.476,5.4192,5.4042,5.2755,5.2187,5.2097,5.1445,5.1206,5.1206,5.1176,5.0757,5.0166,5.0166,4.9793,4.9277,4.9299,4.9247,4.9269,4.9247,4.9217,4.9217,4.9217,4.9217,4.9217,4.9217,4.9217,4.9217,4.9217,4.8738,4.8289,4.8289,4.7758,4.7374,4.7538,4.7581,4.7858,4.8708,4.9025,4.9519,5.0557,5.1051,5.1089,5.0531,5.1631,5.2716,5.3332,5.3433,5.3399,5.3399,5.3433,5.345,5.345,5.345,5.345,5.345,5.345,5.345,5.345,5.3484,5.3518,5.3518,5.3518,5.3668,5.3997,5.4319,5.4853,5.1342,5.2845,5.4431,5.6855,5.8112,5.9069,6.0176,6.0595,6.0565,5.9907,5.889,5.7816,5.6944,5.6944,5.7334,5.7995,5.9219,6.0326,6.1014,6.1076,6.1076,6.1076,6.1076,0.0,0.0,0.0,0.0,6.1762,6.2181,6.2421,6.2421,6.2421,6.2211,6.1792,6.1762,6.1433,6.0775,6.0086,5.9638,5.9398,5.8291,5.7756,5.7726,5.7094,5.6821,5.6761,5.5923,5.5269,5.479,5.3892,5.3264,5.2839,5.2606,5.2516,5.2516,5.2516,5.2366,5.2067,5.1176,5.0727,5.0481,5.0062,4.989,4.9823,4.9426,4.9277,4.9277,4.9277,4.9277,4.9277,4.9277,4.9277,4.9322,4.9456,4.9321,4.9215,4.9392,4.8892,4.8438,4.8525,4.8289,4.8271,4.8984,4.941,5.0092,5.142,5.1824,5.2038,5.2092,5.2608,5.3127,5.345,5.3518,5.3518,5.3518,5.3518,5.3518,5.3518,5.3518,5.3518,5.3518,5.3518,5.3518,5.3518,5.3518,5.3518,5.3518,5.3518,5.3601,5.3816,5.4271,5.4792,5.2845,5.4221,5.5598,5.8411,5.9458,6.0116,6.1224,6.1463,6.1283,6.0595,5.9219,5.7905,5.7214,5.7094,5.7393,5.8294,5.9578,6.0775,6.1702,6.2002,6.2061,6.1852,6.2002,6.2211,0.0,0.0,0.0,6.245,6.2868,6.3108,6.3108,6.3108,6.2898,6.245,6.245,6.2121,6.1463,6.1014,6.0565,6.0114,5.8979,5.8444,5.8414,5.7782,5.7453,5.7423,5.6765,5.6162,5.5504,5.482,5.4162,5.3533,5.3288,5.3198,5.3198,5.3198,5.3198,5.3049,5.1947,5.1535,5.1445,5.0787,5.0578,5.0488,5.0092,5.0064,5.0132,5.0132,5.0238,5.0351,5.0351,5.0442,5.0532,5.0689,5.0565,5.0493,5.0669,5.0192,4.9776,4.9947,4.9519,4.9357,5.0136,5.064,5.1294,5.2274,5.259,5.2799,5.2972,5.311,5.3297,5.3501,5.3518,5.3518,5.3518,5.3518,5.3518,5.3518,5.3518,5.3518,5.3518,5.3518,5.3518,5.3518,5.3518,5.3518,5.3518,5.3518,5.3568,5.3717,5.4239,5.4761,5.3569,5.5299,5.6821,5.871,6.0176,6.1283,6.1942,6.2032,6.1792,6.1076,5.9371,5.7786,5.7124,5.7034,5.7483,5.889,6.0236,6.1583,6.2958,6.3617,6.3797,0.0,0.0,0.0,0.0,0.0,0.0,6.3108,0.0,6.3108,6.3108,6.3108,6.3108,6.3108,6.3108,6.278,6.2151,6.2121,6.1433,6.0114,5.9458,5.9129,5.9069,5.8444,5.8145,5.8115,5.7453,5.6825,5.6252,5.5564,5.488,5.4251,5.3563,5.3318,5.3318,5.3318,5.3318,5.3223,5.257,5.227,5.2097,5.1445,5.1236,5.1206,5.1206,5.1393,5.1595,5.1595,5.1964,5.2329,5.2329,5.2532,5.2735,5.2779,5.2432,5.211,5.2132,5.1625,5.1255,5.1727,5.1244,5.1084,5.212,5.2689,5.3073,5.3229,5.345,5.3484,5.323,5.3213,5.3297,5.3501,5.3518,5.3518,5.3518,5.3518,5.3518,5.3518,5.3518,5.3518,5.3518,5.3518,5.3518,5.3518,5.3518,5.3518,5.3518,5.3518,5.3568,5.3717,5.4239,5.4761,5.5209,5.7,5.871,6.0236,6.0837,6.1283,6.1942,6.1313,6.0266,5.9102,5.7693,5.6492,5.5807,5.6102,5.703,5.88,6.0236,6.1732,6.3528,6.3887,0.0,6.4456,0.0,6.4515,6.3827,6.3767,0.0,0.0,6.3108,6.3108,6.3108,6.3108,6.3108,6.3108,6.3108,6.3018,6.2868,6.2331,6.1433,6.0114,5.9907,5.9578,5.9099,5.8919,5.886,5.883,5.8141,5.7782,5.7543,5.6432,5.5863,5.5623,5.4965,5.467,5.467,5.467,5.482,5.4904,5.4217,5.3194,5.2187,5.2007,5.1594,5.1206,5.1206,5.1393,5.1618,5.178,5.2215,5.2645,5.2802,5.2971,5.3227,5.3599,5.3571,5.3574,5.3946,5.3459,5.3045,5.3168,5.3117,5.32,5.3615,5.4301,5.4573,5.4087,5.4176,5.4109,5.3484,5.3416,5.3433,5.3501,5.3518,5.3518,5.3518,5.3518,5.3518,5.3518,5.3518,5.3518,5.3518,5.3518,5.3518,5.3518,5.3518,5.3518,5.3518,5.3518,5.3534,5.3568,5.4191,5.4664,5.6885,5.8261,5.9488,6.1134,6.1313,6.1134,6.1194,6.0176,5.886,5.7543,5.6226,5.5299,5.5209,5.5743,5.6851,5.877,6.0236,6.1792,6.3737,6.4246,6.4575,6.4964,6.5263,0.0,6.4515,6.4455,6.4306,0.0,6.3437,6.3108,6.3108,6.3108,6.3108,6.3108,6.3108,6.3108,6.3108,6.2421,6.1702,6.0954,6.0685,6.0176,5.9548,5.9548,5.9368,5.9069,0.0,5.8354,5.8025,5.7334,5.6701,5.6162,5.5803,5.5474,5.5179,5.5179,5.5355,5.5546,5.5253,5.4534,5.3613,5.2825,5.2309,5.2008,5.2008,5.2234,5.2612,5.317,5.3892,5.4521,5.4372,5.4665,5.4952,5.4915,5.4943,5.5067,5.5345,5.5102,5.4785,5.456,5.4747,5.4877,5.4763,5.5152,5.5389,5.4984,5.5004,5.4803,5.4093,5.3687,5.3518,5.3518,5.3518,5.3518,5.3518,5.3518,5.3518,5.3518,5.3518,5.3518,5.3518,5.3518,5.3518,5.3518,5.3518,5.3518,5.3518,5.3551,5.3601,5.3618,5.4367,5.485,5.8321,5.9308,5.9907,6.1553,6.1463,6.0775,5.9997,5.874,5.7363,5.6072,5.479,5.4132,5.479,5.5564,5.6701,5.865,6.0176,6.1792,6.3737,6.4575,6.5054,6.5233,6.5802,6.5892,6.5203,6.5144,6.5084,6.5024,6.3977,6.3317,6.3227,6.3138,6.3108,6.3108,6.3108,6.3108,6.3108,6.251,6.2181,6.2091,6.1523,6.0894,6.0206,6.0206,5.9847,5.9249,5.9249,5.886,5.8234,5.8198,5.7506,5.6483,5.6355,5.5909,5.5375,5.531,5.5456,5.5731,5.5992,5.6059,5.5741,5.3971,5.3373,5.3328,5.3328,5.3653,5.4158,5.5044,5.6103,5.6916,5.6507,5.6788,5.7026,5.6435,5.6343,5.6414,5.6453,5.642,5.6313,5.5909,5.6148,5.6243,5.5752,5.5863,5.5969,5.5868,5.5834,5.5564,5.4837,5.4093,5.3619,5.3518,5.3518,5.3518,5.3518,5.3518,5.3518,5.3518,5.3518,5.3518,5.3518,5.3518,5.3518,5.3518,5.3518,5.3551,5.3653,5.3685,5.3751,5.3903,5.4655,5.5154,5.8949,6.0326,6.1523,6.1343,6.0775,5.9937,5.874,5.7034,5.5329,5.4007,5.3084,5.2755,5.3414,5.4546,5.6017,5.7965,5.985,6.1792,6.3737,6.4575,6.5413,6.652,6.6759,6.655,6.5892,6.5832,0.0,0.0,6.4785,6.4455,6.3857,6.3377,6.3108,6.3108,6.3108,6.3108,6.3108,6.2988,6.2659,6.2091,6.1972,6.1583,6.0924,6.0924,6.0565,5.9907,5.9907,0.0,5.889,5.8647,5.8365,5.8117,5.7202,5.6637,5.6309,5.5992,5.5998,5.6262,5.691,5.7418,5.7526,5.6015,5.5349,5.5059,5.5059,5.5241,5.5566,5.6084,5.685,5.7557,5.7845,5.7816,5.7681,5.7725,5.7285,5.693,5.7101,5.7139,5.7091,5.7028,5.7182,5.7315,5.7217,5.7382,5.7306,5.6697,5.663,5.6341,5.5597,5.4871,5.416,5.3585,5.3518,5.3518,5.3518,5.3518,5.3518,5.3518,5.3518,5.3518,5.3518,5.3518,5.3518,5.3518,5.3518,5.3788,5.4414,5.3923,5.409,5.4853,5.4944,5.5214,5.9967,6.1104,6.2032,6.1702,6.0835,5.9605,5.7573,5.5837,5.4192,5.2516,5.2187,5.2396,5.3079,5.4306,5.5837,5.7786,5.9488,6.1373,6.3677,6.4575,6.5503,6.6819,6.6999,6.6879,6.655,6.652,6.64,6.6071,6.5742,6.5084,6.4066,6.3437,6.3108,6.3108,6.3108,6.3108,6.3108,6.3108,6.2958,6.26,6.26,6.2271,6.1613,6.1613,6.1253,6.0595,6.0236,0.0,5.9792,5.9425,5.9183,5.8975,5.8588,5.7866,5.6995,5.6965,5.6843,5.682,5.7551,5.8318,5.8867,5.848,5.7637,5.6752,5.6752,5.6909,5.727,5.7975,5.8766,5.9377,5.9358,5.9478,5.9424,5.8729,5.7995,5.7495,5.7588,5.7606,5.7606,5.7606,5.768,5.7753,5.7753,5.7827,5.7798,5.7408,5.7374,5.7103,5.6393,5.5953,5.531,5.4194,5.3721,5.3518,5.3518,5.3518,5.3518,5.3518,5.3518,5.3518,5.3518,5.3518,5.3687,5.4059,5.4059,5.4431,5.5175,5.5077,5.5313,5.592,5.5962,5.6226,6.0745,6.1702,6.2241,6.1972,6.0864,5.9189,5.6581,5.494,5.3473,5.1594,5.1738,5.2396,5.3079,5.4426,5.5957,5.7633,5.9129,6.0894,6.3258,6.4306,6.5263,6.664,6.6909,6.6999,6.6999,6.6999,0.0,6.6999,6.6251,6.5263,6.4066,6.3528,6.3227,6.3108,6.3108,6.3108,6.3108,6.3108,6.3108,6.3108,6.3108,6.2838,6.2301,6.2301,6.1942,6.1283,6.0745,0.0,0.0,6.035,6.0106,5.986,6.0088,5.9402,5.8245,5.8213,5.7966,5.7722,5.8358,5.9133,5.9925,6.0473,5.9717,5.8538,5.8538,5.8723,5.9047,5.9838,6.06,6.1073,6.0745,6.099,6.0926,5.9351,5.8558,5.8084,5.7934,5.79,5.79,5.79,5.79,5.79,5.79,5.79,5.79,5.79,5.79,5.7679,5.7103,5.69,5.6359,5.5175,5.4397,5.3974,5.3974,5.3974,5.3974,5.3974,5.3974,5.3974,5.3974,5.3974,5.4262,5.4803,5.4837,5.5226,5.6006,5.6167,5.6523,5.7056,5.7101,5.7341,6.0745,6.2032,6.2718,6.1493,6.0176,5.8501,5.5867,5.4251,5.2875,5.1475,5.1738,5.2396,5.3079,5.4785,5.6342,5.7064,5.883,6.0595,6.2061,6.3318,6.4605,6.5951,6.664,6.6999,6.6999,6.6999,6.6999,6.6999,6.5832,6.4755,6.4036,6.3947,6.3647,6.3138,6.3108,6.3108,6.3108,6.3108,6.3108,6.3108,6.3108,6.3078,6.3018,6.3018,6.2659,6.2002,6.1942,0.0,0.0,6.1237,6.1464,6.1313,6.1488,6.1286,6.084,5.987,5.9456,5.9405,5.9714,6.0173,6.0717,6.1383,6.1193,6.072,6.072,6.072,6.0837,6.1144,6.1424,6.1689,6.1823,6.1557,6.0926,5.9351,5.8945,5.8727,5.8017,5.79,5.79,5.79,5.79,5.79,5.79,5.79,5.79,5.79,5.79,5.79,5.7832,5.7205,5.6765,5.6596,5.5936,5.5496,5.5496,5.5496,5.5496,5.5496,5.5496,5.5496,5.5496,5.5496,5.553,5.5597,5.5597,5.6057,5.6963,5.6645,5.7082,5.8249,5.8204,5.811,6.0655,6.1792,6.2271,6.1343,5.979,5.7932,5.5688,5.3832,5.2456,5.1917,5.2336,5.2995,5.3683,5.5114,5.6402,5.7004,5.8441,6.0116,6.1852,6.2869,6.4066,6.5802,6.6251,6.655,6.6939,6.6999,6.6819,6.643,6.5922,6.5144,6.4066,6.3647,6.3347,6.3108,6.3108,6.3108,6.3108,6.3108,6.3108,6.3108,6.3108,6.3108,6.3108,6.328,6.3188,6.2916,6.2303,0.0,0.0,6.1862,6.2073,6.2509,6.3051,6.2831,6.2184,6.145,6.0806,6.03,6.0359,6.0739,6.1219,6.1696,6.1857,6.181,6.1493,6.1411,6.1432,6.1547,6.1729,6.1877,6.1991,6.1663,6.1163,6.0535,5.9656,5.8912,5.8626,5.822,5.79,5.79,5.79,5.79,5.79,5.79,5.79,5.79,5.79,5.79,5.79,5.7645,5.7442,5.7442,5.6393,5.5699,5.5699,5.5699,5.5699,5.5699,5.5699,5.5699,5.5699,5.5699,5.5902,5.6341,5.6465,5.6997,5.794,5.8118,5.8672,5.9532,5.9434,5.9285,5.967,6.1014,6.1642,6.0984,5.9308,5.7363,5.5598,5.3803,5.2426,5.2247,5.2875,5.3683,5.4371,5.5593,5.6671,5.7304,5.8351,5.9727,6.1553,6.2361,6.3528,6.5473,6.5892,6.6251,6.6939,6.6819,6.652,6.6041,6.5652,6.4994,6.4036,6.3437,6.3108,6.3108,6.3108,6.3108,6.3108,6.3108,6.3108,6.3108,6.3194,6.3223,6.3193,6.3354,6.3434,6.3401,6.2637,0.0,0.0,6.2619,6.2927,6.3507,6.4314,6.4273,6.3671,6.2912,6.2157,6.1502,6.112,6.126,6.1648,6.1977,6.2229,6.2341,6.2024,6.189,6.189,6.189,6.201,6.213,6.211,6.1857,6.1569,6.1366,6.0486,5.9554,5.9115,5.8592,5.8152,5.7934,5.79,5.79,5.79,5.79,5.79,5.79,5.79,5.79,5.79,5.79,5.79,5.79,5.6968,5.6359,5.6359,5.6359,5.6359,5.6359,5.6359,5.6359,5.6359,5.6359,5.6614,5.7193,5.7423,5.7925,5.8753,5.925,5.9827,6.0508,6.0553,6.0341,5.7606,5.958,6.0954,6.0266,5.859,5.6765,5.5478,5.4156,5.3019,5.2336,5.3264,5.4401,5.5059,5.6226,5.7304,5.7965,5.8653,5.9578,6.0896,6.1702,6.2839,6.4785,6.5592,6.6251,6.6939,6.64,6.6011,6.6011,6.4784,0.0,6.4006,6.3437,6.3108,6.3108,6.3108,6.3108,6.3108,6.3108,6.3108,6.3108,6.3367,6.351,6.3508,6.3376,6.329,6.3287,0.0,0.0,0.0,6.3662,6.4151,6.436,6.5101,6.5559,6.5613,6.4136,6.3581,6.3382,6.2143,6.1797,6.2037,6.2322,6.24,6.24,6.2381,6.2381,6.2381,6.2381,6.2381,6.2381,6.2381,6.2381,6.2178,6.1467,6.1298,6.0858,5.9317,5.8979,5.8776,5.8017,5.79,5.79,5.79,5.79,5.79,5.79,5.79,5.79,5.79,5.79,5.79,5.79,5.79,5.79,5.79,5.79,5.79,5.79,5.79,5.79,5.79,5.79,5.7991,5.8171,5.8367,5.8771,5.9302,5.9762,6.0333,6.1007,6.1487,6.1144,5.5568,5.6915,5.7719,5.7479,5.6256,5.5029,5.461,5.3473,5.2725,5.3414,5.3922,5.4551,5.5683,5.6551,5.7334,5.7995,5.9069,6.0086,6.0984,6.1672,6.281,6.4755,6.6011,6.658,6.634,6.6131,6.5622,6.4695,6.4246,6.3827,6.3407,6.3197,6.3108,6.3108,6.3108,6.3108,6.3108,6.3108,6.3194,6.3395,6.3651,6.3718,6.3678,6.4197,6.4279,0.0,0.0,0.0,0.0,6.4293,6.4672,6.5123,6.5867,6.6206,6.6091,6.4602,6.3961,6.3601,6.2354,6.1937,6.2037,6.2322,6.24,6.24,6.24,6.24,6.24,6.24,6.24,6.24,6.24,6.24,6.2347,6.211,6.167,6.1163,6.0689,5.9723,5.8912,5.8693,5.8254,5.79,5.79,5.79,5.79,5.79,5.79,5.79,5.79,5.79,5.79,5.79,5.79,5.79,5.79,5.79,5.79,5.79,5.79,5.79,5.79,5.79,5.7991,5.8205,5.8614,5.9115,5.965,6.0352,6.1104,6.1946,6.163,6.1379,5.3144,5.4551,5.5474,5.5474,5.461,5.3892,5.4162,5.3354,5.2875,5.3982,5.4401,5.497,5.6312,5.6851,5.7393,5.8351,5.9398,6.0326,6.1014,6.1912,6.3199,6.5144,6.6131,6.646,6.6041,6.5533,6.4904,6.4066,6.3767,6.3527,6.3138,6.3108,6.3108,6.3108,6.3108,6.3165,6.3252,6.3252,6.3422,6.3849,6.4242,6.4347,6.4208,6.491,6.497,0.0,0.0,0.0,0.0,6.497,6.5303,6.5702,6.6292,6.655,6.6432,6.4969,6.4293,6.3954,6.2615,6.2169,6.2189,6.2341,6.24,6.24,6.24,6.24,6.24,6.24,6.24,6.24,6.24,6.24,6.24,6.24,6.2042,6.1637,6.1366,6.0554,5.9689,5.9115,5.8626,5.822,5.7967,5.79,5.79,5.79,5.79,5.79,5.79,5.79,5.79,5.79,5.79,5.79,5.79,5.79,5.79,5.79,5.79,5.7936,5.7991,5.8009,5.8189,5.8597,5.9081,5.9615,6.0258,6.1089,6.1851,6.2475,6.2091,6.1801,0.0,5.2462,5.3952,5.4042,5.3593,5.3318,5.4042,5.3713,0.0,5.4132,5.479,5.5653,5.6855,5.7124,5.7603,5.8949,5.9727,6.0386,6.1074,6.2361,6.3916,6.5652,6.5951,6.5981,6.5892,6.4725,6.3977,6.3947,6.3437,6.3108,6.3108,6.3108,6.3108,6.3137,6.3165,6.328,6.3538,6.3565,6.3906,6.4521,6.507,6.5263,6.5093,6.5475,6.5384,0.0,0.0,0.0,0.0,6.5647,6.5977,6.6139,6.6443,6.6656,6.6622,6.5155,6.4613,6.4377,6.2888,6.24,6.24,6.24,6.24,6.24,6.24,6.24,6.24,6.24,6.24,6.24,6.24,6.24,6.24,6.24,6.24,6.2212,6.1535,6.1332,6.0858,5.9351,5.9047,5.8795,5.8035,5.79,5.79,5.79,5.79,5.79,5.79,5.79,5.79,5.79,5.79,5.79,5.79,5.79,5.79,5.79,5.79,5.8009,5.8189,5.8225,5.8579,5.9336,5.9732,6.0321,6.1096,6.196,6.2475,6.2616,6.273,6.2401,4.9486,0.0,5.1385,5.2426,5.2546,5.2725,0.0,5.4072,5.4162,5.482,5.5504,5.6192,5.6944,5.7513,5.8321,5.9638,6.0446,6.1104,6.1762,6.3438,6.4516,6.4485,6.5383,6.5592,6.4575,6.4186,6.3797,6.3347,6.3197,6.3108,6.3108,6.3108,6.3194,6.3395,6.3622,6.3734,6.3791,6.4239,6.4906,6.5696,6.5696,6.5816,6.6087,6.6,6.5851,0.0,0.0,6.5856,6.5878,6.6194,6.6378,6.6443,6.6622,6.6749,6.6622,6.5155,6.4613,6.4377,6.2888,6.24,6.24,6.24,6.24,6.24,6.24,6.24,6.24,6.24,6.24,6.24,6.24,6.24,6.24,6.24,6.24,6.2367,6.2178,6.1704,6.1028,6.0047,5.9404,5.8795,5.8035,5.79,5.79,5.79,5.79,5.79,5.79,5.79,5.79,5.79,5.79,5.79,5.79,5.79,5.79,5.79,5.8027,5.8241,5.8419,5.8667,5.9098,5.9683,6.063,6.1372,6.1928,6.2357,6.2616,6.2743,6.278,6.2683,4.9823,5.0421,5.0907,5.1947,5.2426,5.2935,5.3982,5.4221,5.4491,5.5474,5.5953,5.6492,5.7393,5.8112,5.8919,5.9907,6.0924,6.1882,6.2839,6.3887,6.4516,6.4485,6.4844,6.4814,6.4066,6.3737,6.3467,6.3138,6.3108,6.3108,6.3108,6.3223,6.3394,6.3679,6.4242,6.4549,6.4549,6.5098,6.5696,6.6329,6.6485,6.6493,6.6424,6.6901,6.6934,0.0,0.0,6.6923,6.6889,6.6715,6.6656,6.6656,6.6749,6.6588,6.617,6.5019,6.4377,6.3937,6.2787,6.24,6.24,6.24,6.24,6.24,6.24,6.24,6.24,6.24,6.24,6.24,6.24,6.24,6.24,6.24,6.24,6.24,6.24,6.2076,6.1467,6.0317,5.9776,5.9167,5.8103,5.79,5.79,5.79,5.79,5.79,5.79,5.79,5.79,5.79,5.79,5.79,5.79,5.7972,5.8027,5.8027,5.8241,5.8508,5.8858,5.9183,5.9746,6.0569,6.1458,6.2078,6.2384,6.259,6.273,6.2793,6.2793,6.2793,5.0817,5.1505,5.1804,5.2486,5.3169,5.3827,5.4491,5.464,5.497,5.6102,5.6432,5.6825,5.8025,5.88,5.9518,6.0266,6.1433,6.263,6.3707,6.3947,6.4186,6.4635,6.4306,6.3947,6.3857,6.3378,6.3108,6.3108,6.3108,6.3108,6.3108,6.3367,6.3679,6.4045,6.4936,6.5542,6.5727,6.6178,6.656,6.687,6.7281,6.7184,6.6621,6.758,6.7846,6.748,0.0,0.0,6.7692,6.7083,6.6791,6.6791,6.6791,6.6339,6.5615,6.4884,6.412,6.3376,6.2651,6.24,6.24,6.24,6.24,6.24,6.24,6.2313,6.2265,6.2367,6.24,6.24,6.24,6.24,6.24,6.24,6.24,6.24,6.24,6.2333,6.1806,6.0385,6.0013,5.9505,5.8137,5.79,5.79,5.79,5.79,5.79,5.79,5.79,5.79,5.79,5.79,5.79,5.7936,5.8117,5.8294,5.835,5.8543,5.8892,5.9535,5.9892,6.0584,6.1572,6.2158,6.2475,6.2603,6.273,6.2793,6.2793,6.2793,6.2793,5.1528,5.2875,5.3922,5.4551,5.5264,5.5893,5.6496,5.6645,5.6705,5.6915,5.7423,5.8025,5.883,5.9488,6.0326,6.1583,6.2421,6.3018,6.3227,6.3677,6.3857,6.3467,6.3737,6.3797,6.3287,6.3168,6.3108,6.3108,6.3108,6.3108,6.3108,6.3367,6.3878,6.4629,6.5534,6.6549,6.7746,6.7848,6.7945,6.8033,6.7903,6.7667,6.7398,6.6993,6.684,6.6918,0.0,6.696,6.696,6.6859,6.6791,6.6791,6.6791,6.6339,6.5615,6.4884,6.412,6.3376,6.2651,6.24,6.24,6.24,6.24,6.24,6.24,6.1941,6.1603,6.2231,6.24,6.24,6.24,6.24,6.24,6.24,6.24,6.24,6.24,6.1907,6.1197,6.0283,5.9607,5.8896,5.8069,5.79,5.79,5.79,5.79,5.79,5.79,5.79,5.79,5.79,5.79,5.7954,5.8117,5.8348,5.8666,5.9115,5.9166,5.9667,6.0707,6.1184,6.1628,6.2078,6.241,6.2578,6.2603,6.273,6.2793,6.2793,6.2793,6.2793,5.1648,5.3174,5.4551,5.5897,5.6436,5.6761,5.7034,5.7393,5.7752,5.8112,5.871,5.9398,6.0057,6.0745,6.1493,6.248,6.2898,6.3108,6.3108,6.3347,6.3408,6.3138,6.3318,6.3378,6.3138,6.3108,6.3108,6.3108,6.3252,6.3338,6.3338,6.4047,6.4798,6.5479,6.6622,6.7765,6.8847,6.9228,6.906,6.8317,6.8716,6.8506,6.7778,6.7858,6.7957,6.803,0.0,6.7387,6.7354,6.696,6.6791,6.6791,6.6791,6.6102,6.4952,6.3835,6.3193,6.2854,6.2536,6.24,6.24,6.24,6.24,6.24,6.24,6.1873,6.1467,6.2178,6.211,6.1907,6.2299,6.211,6.1806,6.1806,6.1467,6.1163,6.1163,6.0892,6.0419,5.9674,5.9216,5.8795,5.8035,5.79,5.79,5.79,5.79,5.79,5.79,5.79,5.7936,5.8045,5.8045,5.8171,5.8456,5.8736,5.9149,5.9632,6.0021,6.0584,6.1358,6.1823,6.2199,6.241,6.2603,6.2705,6.2705,6.2768,6.2793,6.2793,6.2793,6.2793,5.1648,5.3174,5.464,5.6436,5.7094,5.7423,5.7723,5.8201,5.877,5.9428,5.9967,6.0535,6.1224,6.1882,6.248,6.3018,6.3108,6.3108,6.3108,6.3108,6.3108,6.3108,6.3108,6.3108,6.3108,6.3165,6.3194,6.3194,6.3508,6.3736,6.3821,6.4854,6.5781,6.6359,6.7689,6.8675,6.9286,6.9993,6.968,6.8406,6.9413,6.9107,6.7658,6.847,6.8707,6.8538,6.7929,6.7658,6.759,6.7028,6.6791,6.6791,6.6791,6.5899,6.441,6.2922,6.24,6.24,6.24,6.24,6.24,6.24,6.24,6.24,6.24,6.1873,6.1467,6.2178,6.1873,6.1467,6.2212,6.1839,6.1298,6.1298,6.0689,6.0114,6.0114,5.9979,5.9674,5.9115,5.8844,5.8558,5.8001,5.79,5.79,5.79,5.79,5.79,5.79,5.7936,5.8045,5.8259,5.8332,5.8579,5.9029,5.9483,5.994,6.0364,6.0867,6.1387,6.1837,6.2238,6.25,6.2641,6.2743,6.2793,6.2793,6.2793,6.2793,6.2793,6.2793,6.2683,5.1648,5.3174,5.4551,5.5923,5.7154,5.8354,5.9578,5.9934,6.0146,6.0835,6.0986,6.1253,6.1912,6.2599,6.3048,6.3108,6.3108,6.3108,6.3108,6.3108,6.3108,6.3108,6.3108,6.3108,6.3108,6.3338,6.3481,6.3481,6.4019,6.4437,6.4685,6.5561,6.6385,6.7189,6.8254,6.8891,6.9041,6.9568,6.9446,6.8684,6.9691,6.9023,6.6893,6.7658,6.7624,6.696,6.6893,6.6859,6.6859,6.6825,6.6791,6.6791,6.6791,6.5899,6.441,6.2922,6.24,6.24,6.24,6.24,6.24,6.24,6.24,6.24,6.24,6.1873,6.1467,6.2178,6.1873,6.1467,6.2212,6.1839,6.1298,6.1298,6.0689,6.0114,6.0114,5.9554,5.9047,5.9013,5.8457,5.7967,5.7934,5.79,5.79,5.79,5.79,5.79,5.79,5.8045,5.8277,5.8455,5.8754,5.9301,6.01,6.0732,6.1221,6.1572,6.1628,6.1851,6.2318,6.25,6.2654,6.278,6.2793,6.2793,6.2793,6.2793,6.2793,6.2793,6.2793,6.2401,5.1648,5.2875,5.4072,5.6252,5.7124,5.7723,5.865,5.9817,6.0805,6.1074,6.1762,6.2421,6.2689,6.2928,6.3108,6.3108,6.3108,6.3108,6.3108,6.3108,6.3108,6.3108,6.3108,6.3165,6.3338,6.3594,6.3904,6.4298,6.5016,6.5588,6.5853,6.6956,6.7802,6.8279,6.8912,6.9277,6.9501,6.9412,6.8982,6.8205,6.9103,6.8808,6.7489,6.776,6.776,6.7455,6.6994,6.6791,6.6791,6.6791,6.6791,6.669,6.5797,6.5087,6.441,6.2922,6.24,6.24,6.24,6.24,6.24,6.24,6.24,6.24,6.24,6.1873,6.1467,6.2178,6.1501,6.0723,6.1501,6.1129,6.0452,5.9979,5.9302,5.8727,5.8727,5.849,5.8321,5.8321,5.8084,5.79,5.79,5.79,5.79,5.79,5.79,5.7936,5.8063,5.8277,5.8561,5.8961,5.9664,6.0337,6.0822,6.1351,6.1809,6.2118,6.2145,6.2252,6.2513,6.2654,6.2743,6.2793,6.2793,6.2793,6.2793,6.2291,6.2034,6.2034,6.1545,6.1153,5.1648,5.2845,5.4042,5.6282,5.7274,5.7842,5.8294,5.979,6.1196,6.1642,6.245,6.3108,6.3108,6.3108,6.3108,6.3108,6.3108,6.3108,6.3108,6.3108,6.3108,6.3108,6.3165,6.3338,6.3594,6.4045,6.4604,6.518,6.6067,6.6658,6.6767,6.7905,6.8542,6.8586,6.8967,6.9178,6.9098,6.8869,6.8335,6.7557,6.8132,6.8098,6.7557,6.7793,6.776,6.7523,6.6994,6.6791,6.6791,6.6791,6.6791,6.6656,6.5189,6.4613,6.441,6.2922,6.24,6.24,6.24,6.24,6.24,6.24,6.2265,6.2042,6.2042,6.1501,6.1028,6.1535,6.0892,6.0182,6.0486,6.0182,5.9641,5.9115,5.8457,5.79,5.79,5.79,5.79,5.79,5.79,5.79,5.79,5.79,5.79,5.79,5.7954,5.8063,5.8277,5.8578,5.903,5.9781,6.0584,6.1213,6.1493,6.1919,6.2265,6.2436,6.2488,6.2565,6.2667,6.2743,6.2793,6.2793,6.2793,6.2683,6.2426,6.1851,6.1484,6.119,6.0676,6.0272,5.1678,5.3204,5.4551,5.5893,5.7663,5.9099,5.9129,6.0176,6.1493,6.2838,6.3108,6.3108,6.3108,6.3108,6.3108,6.3108,6.3108,6.3108,6.3108,6.3108,6.3108,6.3108,6.3338,6.3622,6.3904,6.4743,6.5538,6.6072,6.7118,6.7612,6.7444,6.8181,6.8367,6.7899,6.8428,6.8358,6.7606,6.7788,6.7523,6.6791,6.6791,6.6791,6.6825,6.7557,6.7489,6.6791,6.6791,6.6791,6.6791,6.6791,6.6791,6.6622,6.5189,6.4613,6.441,6.2922,6.24,6.24,6.24,6.24,6.24,6.2381,6.1907,6.1298,6.1298,6.0723,6.0114,6.0114,6.008,5.9911,5.9182,5.8979,5.8979,5.8979,5.8423,5.79,5.79,5.79,5.79,5.79,5.79,5.79,5.79,5.79,5.79,5.79,5.8063,5.8294,5.849,5.8996,5.9765,6.0888,6.143,6.1823,6.2172,6.2449,6.2603,6.2603,6.273,6.2793,6.2793,6.2793,6.2793,6.2793,6.2793,6.2401,6.1606,6.1569,6.1153,6.037,6.0382,5.993,5.2486,5.3862,5.5329,5.7094,5.8321,5.9488,6.0894,6.1523,6.2061,6.2928,6.3108,6.3108,6.3108,6.3108,6.3108,6.3108,6.3108,6.3108,6.3108,6.3108,6.3165,6.3367,6.3622,6.4073,6.4798,6.5642,6.6549,6.751,6.7914,6.8229,6.8522,6.8636,6.8585,6.8473,6.8255,6.8024,6.7788,6.7345,6.6994,6.6791,6.6791,6.6791,6.6791,6.7049,6.7015,6.6791,6.6791,6.6791,6.6791,6.6791,6.6508,6.5933,6.4986,6.4275,6.3714,6.2753,6.24,6.24,6.24,6.24,6.2333,6.1772,6.1467,6.1197,6.0622,6.0283,6.0114,6.0114,5.9742,5.9284,5.9047,5.8626,5.822,5.822,5.8051,5.79,5.79,5.79,5.79,5.79,5.79,5.79,5.79,5.8009,5.8099,5.8099,5.8367,5.8789,5.9483,6.0132,6.0767,6.143,6.1906,6.2278,6.2462,6.2641,6.273,6.273,6.2768,6.2793,6.2793,6.2793,6.2793,6.2793,6.2254,6.1851,6.1606,6.0456,5.9783,5.9526,5.8988,5.8584,5.3473,5.4785,5.6047,5.8022,5.9219,6.0356,6.2091,6.248,6.26,6.3018,6.3108,6.3108,6.3108,6.3108,6.3137,6.3252,6.328,6.3367,6.3565,6.3622,6.3736,6.396,6.4382,6.4906,6.5727,6.6628,6.7612,6.86,6.8723,6.8805,6.8862,6.8539,6.8253,6.795,6.764,6.7455,6.7455,6.6994,6.6791,6.6791,6.6791,6.6791,6.6791,6.6791,6.6791,6.6791,6.6791,6.6791,6.6757,6.6474,6.6102,6.5615,6.458,6.3903,6.3409,6.2651,6.24,6.24,6.24,6.2212,6.1873,6.1434,6.0892,6.0317,5.981,5.9471,5.9235,5.9235,5.8896,5.8558,5.8558,5.822,5.79,5.79,5.79,5.79,5.79,5.79,5.79,5.79,5.79,5.7918,5.7991,5.8205,5.835,5.8491,5.8978,5.9597,6.0395,6.0942,6.1458,6.1919,6.2278,6.2526,6.2667,6.2743,6.2646,6.2352,6.2609,6.2499,6.1875,6.2462,6.2646,6.2328,6.1851,6.13,6.0639,5.9673,5.9049,5.8719,5.8217,5.8031,5.4431,5.5773,5.6911,5.874,6.0266,6.1613,6.2838,6.3108,6.3108,6.3108,6.3108,6.3108,6.3108,6.3108,6.3223,6.348,6.3565,6.3821,6.4382,6.4493,6.4632,6.4933,6.5452,6.6045,6.6622,6.7663,6.8649,6.943,6.941,6.9177,6.8762,6.8138,6.7489,6.6825,6.6791,6.6791,6.6791,6.6791,6.6791,6.6791,6.6791,6.6791,6.6791,6.6791,6.6757,6.669,6.669,6.6656,6.6555,6.5865,6.5581,6.5358,6.4018,6.3443,6.3328,6.2651,6.24,6.24,6.2313,6.1873,6.1298,6.1129,6.0129,5.8979,5.8912,5.8423,5.79,5.79,5.79,5.79,5.79,5.79,5.79,5.79,5.79,5.79,5.79,5.79,5.79,5.79,5.79,5.7972,5.8171,5.8419,5.8718,5.9115,5.986,6.06,6.1206,6.155,6.1919,6.2357,6.2539,6.263,6.267,6.2683,6.2365,6.152,6.2181,6.1912,6.0456,6.1875,6.2316,6.152,6.141,6.0676,5.9196,5.9123,5.8719,5.7997,5.8008,5.8088,5.4251,5.6406,5.871,5.9638,6.1283,6.2748,6.3048,6.3108,6.3108,6.3108,6.3108,6.3108,6.3108,6.328,6.348,6.3762,6.4214,6.4629,6.4961,6.5235,6.553,6.6067,6.6438,6.704,6.7986,6.8716,6.9454,7.0213,6.9378,6.8919,6.9026,6.7751,6.696,6.6791,6.6791,6.6791,6.6791,6.6791,6.6791,6.6791,6.6791,6.6791,6.6791,6.6791,6.6474,6.5933,6.5933,6.5595,6.5053,6.4884,6.4512,6.3917,6.3612,6.3159,6.2618,6.2448,6.24,6.2333,6.1738,6.1434,6.1095,5.9892,5.925,5.8878,5.8321,5.8035,5.79,5.79,5.79,5.79,5.79,5.79,5.79,5.79,5.79,5.79,5.79,5.79,5.79,5.79,5.8009,5.8189,5.8401,5.884,5.9418,6.029,6.0747,6.1206,6.174,6.2078,6.2331,6.2539,6.2679,6.2511,6.1924,6.1851,6.152,6.0713,6.0823,6.0774,6.0407,6.1337,6.1484,6.0676,6.004,5.9563,5.9196,5.8572,5.818,5.8008,5.8099,5.8201,5.479,5.6615,5.853,6.0176,6.1822,6.3018,6.269,6.26,6.2567,6.238,6.2859,6.3395,6.3679,6.3849,6.4101,6.4688,6.5125,6.5638,6.6306,6.6332,6.66,6.7541,6.7587,6.7914,6.8968,6.9589,7.001,7.015,6.9356,6.8779,6.8538,6.7455,6.6791,6.6791,6.6791,6.6791,6.6791,6.6791,6.6791,6.6791,6.6791,6.6643,6.6271,6.6271,6.6068,6.5683,6.5324,6.4952,6.458,6.4241,6.3849,6.3443,6.3125,6.2753,6.24,6.24,6.2178,6.1806,6.1434,6.0825,6.008,5.925,5.8743,5.8389,5.8035,5.79,5.79,5.79,5.79,5.79,5.79,5.79,5.79,5.79,5.79,5.7918,5.8009,5.8027,5.8081,5.826,5.8385,5.8562,5.8944,5.9615,6.0384,6.1125,6.1501,6.1837,6.2238,6.241,6.2393,6.2143,6.2181,6.1887,6.108,6.1043,6.0676,5.9893,6.0187,6.0052,5.9281,6.0015,6.026,5.982,5.9416,5.9013,5.8609,5.8274,5.8088,5.8088,5.8268,5.8395,5.5055,5.6551,5.8022,6.0505,6.1942,6.26,6.2061,6.1942,6.1875,6.1692,6.2477,6.3403,6.4018,6.4209,6.4625,6.5562,6.5975,6.6514,6.759,6.7352,6.7492,6.8623,6.8403,6.8508,6.9443,6.9929,7.0039,6.9682,6.9206,6.8605,6.7929,6.7218,6.6791,6.6791,6.6791,6.6791,6.6791,6.6791,6.6791,6.6791,6.6656,6.6305,6.5683,6.5425,6.5324,6.5311,6.4681,6.4343,6.4174,6.3545,6.3308,6.326,6.2618,6.24,6.24,6.24,6.1941,6.1298,6.1129,6.0182,5.8979,5.8844,5.8389,5.79,5.79,5.79,5.79,5.79,5.79,5.79,5.79,5.79,5.7866,5.773,5.7749,5.7855,5.8153,5.8241,5.8315,5.8496,5.8548,5.8733,5.926,6.0129,6.0927,6.1523,6.186,6.2198,6.2603,6.2495,6.2203,6.1667,6.1484,6.108,6.0272,6.0187,5.9857,5.9049,5.96,5.9391,5.807,5.8646,5.8988,5.9048,5.8988,5.8694,5.8031,5.8156,5.8234,5.8279,5.8492,5.8723,5.3348,5.6166,5.9189,6.0717,6.1225,6.1343,6.1253,6.1225,6.1417,6.2123,6.219,6.2284,6.2825,6.349,6.4393,6.5667,6.6085,6.6631,6.7736,6.7611,6.7572,6.7982,6.7985,6.819,6.8797,6.8886,6.9008,6.9183,6.8482,6.7996,6.7895,6.7218,6.6791,6.6791,6.6791,6.6791,6.6791,6.6791,6.6791,6.6791,6.6136,6.5818,6.5683,6.4377,6.3781,6.3781,6.368,6.3294,6.2705,6.2584,6.257,6.2516,6.2434,6.24,6.24,6.24,6.1941,6.1197,6.0486,5.9708,5.8878,5.8254,5.8001,5.79,5.79,5.79,5.79,5.79,5.79,5.79,5.79,5.79,5.773,5.7103,5.7093,5.7405,5.8035,5.8348,5.8355,5.798,5.7966,5.8214,5.8787,5.9235,5.9935,6.1074,6.1414,6.1822,6.2669,6.2156,6.1692,6.1594,6.097,6.0236,5.9416,5.938,5.9013,5.8217,5.8253,5.8217,5.7997,5.8107,5.8189,5.834,5.8238,5.8164,5.8156,5.8231,5.8395,5.8635,5.8915,5.9131,5.2719,5.5538,5.8201,5.9162,5.9997,6.0535,6.0535,6.0646,6.0856,6.1191,6.1598,6.2364,6.3843,6.4507,6.524,6.6371,6.6772,6.725,6.8042,6.7811,6.7826,6.8506,6.8159,6.8179,6.887,6.8926,6.8801,6.847,6.8098,6.7726,6.732,6.696,6.6791,6.6791,6.6791,6.6791,6.6791,6.6791,6.6588,6.617,6.5831,6.5256,6.4444,6.3781,6.3511,6.3477,6.3057,6.2685,6.24,6.24,6.24,6.24,6.24,6.24,6.2367,6.1941,6.1298,6.052,5.9742,5.8998,5.8321,5.8035,5.79,5.79,5.79,5.79,5.79,5.79,5.79,5.79,5.79,5.7667,5.7366,5.7061,5.6864,5.6902,5.7415,5.7585,5.7749,5.8059,5.8384,5.8688,5.9141,5.9463,5.9895,6.0539,6.0762,6.1007,6.1398,6.1153,6.075,6.0297,5.993,5.938,5.8609,5.8547,5.84,5.8033,5.7997,5.8031,5.8099,5.8099,5.819,5.8367,5.8201,5.819,5.8378,5.8513,5.8712,5.8945,5.928,5.954,5.227,5.4541,5.6449,5.7468,5.8564,5.9482,5.9844,6.012,6.0373,6.0751,6.15,6.2735,6.4778,6.5312,6.5786,6.6878,6.7171,6.7445,6.806,6.7687,6.7668,6.8415,6.7996,6.7861,6.847,6.8538,6.8267,6.7658,6.7624,6.7387,6.6825,6.6791,6.6791,6.6791,6.6791,6.6791,6.6791,6.6609,6.617,6.5425,6.5222,6.4546,6.3477,6.3308,6.3226,6.3193,6.2618,6.24,6.24,6.24,6.24,6.24,6.2178,6.211,6.2009,6.1264,6.052,5.9742,5.9182,5.8524,5.79,5.79,5.7764,5.7611,5.7611,5.7512,5.7412,5.7412,5.7448,5.745,5.745,5.7219,5.6934,5.6764,5.6574,5.6595,5.7075,5.7131,5.7316,5.8145,5.8468,5.8713,5.9028,5.9294,5.9566,5.9883,6.0017,6.015,6.0382,6.0224,5.9857,5.9269,5.9013,5.8646,5.8033,5.7997,5.7997,5.7997,5.8031,5.8099,5.8223,5.8279,5.8432,5.865,5.8524,5.8524,5.8661,5.8838,5.9073,5.9298,5.9669,5.9906,5.1708,5.2984,5.426,5.6184,5.7082,5.78,5.9133,5.9588,6.0177,6.164,6.2326,6.3148,6.4702,6.5008,6.5453,6.6734,6.671,6.6813,6.7529,6.7183,6.6859,6.6893,6.6859,6.6859,6.6927,6.6927,6.6893,6.6859,6.6859,6.6825,6.6791,6.6791,6.6791,6.6791,6.6791,6.6791,6.6791,6.6102,6.5392,6.4647,6.3971,6.3579,6.3477,6.2787,6.2448,6.2448,6.2434,6.24,6.24,6.24,6.24,6.2333,6.1637,6.1366,6.1264,6.0452,5.9708,5.9047,5.9013,5.8524,5.79,5.79,5.7408,5.6867,5.6867,5.6517,5.6114,5.6114,5.6201,5.6287,5.6287,5.6388,5.6402,5.5811,5.6005,5.6551,5.7471,5.7443,5.7441,5.8012,5.7663,5.7434,5.7825,5.7908,5.8212,5.9124,5.9258,5.9526,6.0297,5.9747,5.9269,5.9196,5.8499,5.8033,5.7997,5.7997,5.7997,5.7997,5.8111,5.8223,5.8297,5.8551,5.8784,5.9064,5.9197,5.9197,5.9073,5.9271,5.9558,5.986,6.0068,6.0268,4.9516,5.0966,5.2614,5.3905,5.5585,5.7193,5.8264,5.965,6.0906,6.168,6.2924,6.4189,6.5101,6.5392,6.5802,6.6681,6.6782,6.6787,6.7057,6.6918,6.6791,6.6791,6.6791,6.6791,6.6791,6.6791,6.6791,6.6791,6.6791,6.6791,6.6791,6.6791,6.6791,6.6791,6.6791,6.6555,6.6102,6.5358,6.4613,6.3903,6.3612,6.326,6.2787,6.2516,6.24,6.24,6.24,6.24,6.24,6.24,6.211,6.167,6.14,6.0994,6.0452,5.9674,5.9216,5.8912,5.8457,5.8118,5.7832,5.734,5.7091,5.6909,5.6434,5.6303,5.6337,5.6337,5.6488,5.6654,5.6654,5.6584,5.6404,5.6132,5.6226,5.6581,5.7248,5.724,5.7247,5.7711,5.7656,5.7643,5.7892,5.7939,5.806,5.8389,5.8437,5.8547,5.8804,5.8621,5.8437,5.8437,5.818,5.7997,5.7997,5.7997,5.7997,5.7997,5.8111,5.8301,5.8561,5.8754,5.9092,5.9479,5.9626,5.966,5.9537,5.9656,5.986,6.0172,6.036,6.052,4.8689,4.9871,5.1371,5.2696,5.4491,5.6365,5.8044,5.9641,6.1142,6.2222,6.3528,6.4726,6.5492,6.5846,6.6194,6.6707,6.6791,6.6791,6.6791,6.6791,6.6791,6.6791,6.6791,6.6791,6.6791,6.6791,6.6791,6.6791,6.6791,6.6791,6.6791,6.6791,6.669,6.644,6.644,6.5967,6.4952,6.4478,6.3869,6.3125,6.3125,6.2854,6.24,6.24,6.24,6.24,6.24,6.24,6.24,6.211,6.1738,6.1264,6.0723,6.0216,5.9641,5.8896,5.8626,5.8558,5.8051,5.79,5.7798,5.7107,5.6807,5.659,5.5962,5.5839,5.593,5.5979,5.6235,5.65,5.65,5.6515,5.6531,5.6604,5.6701,5.691,5.7313,5.7251,5.7226,5.7583,5.7751,5.7857,5.7973,5.7997,5.7997,5.7997,5.7997,5.7997,5.7997,5.7997,5.7997,5.7997,5.7997,5.7997,5.7997,5.7997,5.802,5.8054,5.8212,5.8476,5.8805,5.9101,5.9426,5.985,6.0015,6.0106,6.0106,6.0106,6.0208,6.0448,6.0578,6.0654,0.0,0.0,0.0,5.2729,5.3868,5.5261,5.8416,5.9533,6.0696,6.3309,6.4112,6.4706,6.5863,6.6323,6.6571,6.677,6.6791,6.6791,6.6791,6.6791,6.6791,6.6791,6.6791,6.6791,6.6757,6.6757,6.6757,6.6724,6.6757,6.6757,6.6757,6.6757,6.644,6.5717,6.5683,6.4952,6.3511,6.3477,6.3125,6.24,6.24,6.24,6.24,6.24,6.24,6.24,6.24,6.24,6.2333,6.1603,6.1298,6.1129,5.9588,5.8979,5.8878,5.8152,5.79,5.79,5.79,5.79,5.7835,5.7268,5.659,5.5945,5.5428,5.503,5.4772,5.4976,5.5363,5.5729,5.5743,5.6132,5.6648,5.7112,5.7313,5.7474,5.7763,5.7583,5.7486,5.7775,5.7822,5.7857,5.7973,5.7997,5.7997,5.7997,5.7997,5.7997,5.7997,5.7997,5.7997,5.8008,5.8008,5.8008,5.8008,5.8008,5.8065,5.819,5.8411,5.8702,5.9093,5.9496,5.985,6.021,6.0412,6.0559,6.0697,6.0559,6.0565,6.0697,6.0697,6.0728,4.9243,0.0,0.0,0.0,0.0,0.0,5.7258,5.9273,6.1021,6.189,6.3688,6.5197,6.5526,6.6221,6.6728,6.6791,6.6791,6.6791,6.6791,6.6791,6.6791,6.6791,6.6791,6.6588,6.6068,6.6,6.5764,0.0,6.5696,6.6,6.6,6.6,6.5899,6.5717,6.4681,6.3917,6.3511,6.2956,6.2584,6.24,6.24,6.24,6.24,6.24,6.24,6.24,6.24,6.2096,6.1603,6.14,6.096,6.0351,5.9351,5.8693,5.8186,5.8001,5.79,5.7918,5.8063,5.8099,5.7949,5.697,5.6693,5.6529,5.5407,5.5314,5.5584,5.5628,5.6056,5.6564,5.6832,5.7061,5.7239,5.7547,5.7643,5.7751,5.7916,5.7892,5.7869,5.7939,5.795,5.7962,5.7997,5.7997,5.7997,5.7997,5.7997,5.7997,5.7997,5.7997,5.8031,5.8122,5.8133,5.8167,5.8294,5.8294,5.8349,5.8422,5.8598,5.8915,5.9299,5.9639,6.0023,6.0412,6.0565,6.0679,6.0757,6.0679,6.0679,6.0757,6.0757,6.0769,5.0248,5.0645,5.1396,5.2733,0.0,0.0,5.7206,5.8907,6.0338,6.1194,6.2865,6.4227,6.4565,6.5309,6.6,6.6305,6.6339,6.644,6.6757,6.6791,6.6791,6.6791,6.6542,6.617,6.5751,6.5425,6.5053,6.4647,6.4986,6.5222,6.5222,6.5222,6.5087,6.4783,6.3971,6.3342,6.3057,6.2618,6.24,6.24,6.24,6.24,6.24,6.24,6.24,6.24,6.24,6.1975,6.1264,6.0926,6.0351,5.9573,5.8829,5.8287,5.79,5.7991,5.8009,5.8063,5.8314,5.8421,5.8252,5.7202,5.6995,5.6941,5.5804,5.5758,5.6112,5.6237,5.6644,5.7125,5.7461,5.7559,5.7607,5.7845,5.7892,5.7916,5.7985,5.7997,5.7997,5.7997,5.7997,5.7997,5.7997,5.7997,5.7997,5.7997,5.7997,5.7997,5.7997,5.7997,5.8042,5.8204,5.8179,5.8282,5.8411,5.8476,5.8582,5.8754,5.8927,5.9243,5.9669,5.9915,6.0223,6.0565,6.0679,6.0752,6.0787,6.0752,6.0752,6.0787,6.0787,6.0787,5.1784,5.1784,0.0,0.0,5.4401,0.0,5.7735,5.8532,5.9159,6.0699,6.1704,6.2482,6.3139,6.3937,6.4681,6.5358,6.5514,6.5865,6.6656,6.6791,6.6791,6.6791,6.6136,6.5683,6.5581,6.4918,6.4444,6.4377,6.4444,6.4512,6.4613,6.4512,6.4174,6.3511,6.3409,6.3057,6.24,6.24,6.24,6.24,6.2333,6.2299,6.2245,6.2197,6.2144,6.2144,6.2144,6.1738,6.0994,6.0283,5.9607,5.8912,5.8186,5.79,5.7954,5.8135,5.8225,5.8296,5.865,5.8789,5.8685,5.7783,5.7545,5.7403,5.6489,5.6298,5.6488,5.6816,5.7163,5.7498,5.7775,5.7834,5.7857,5.7973,5.7997,5.7997,5.7997,5.7997,5.7997,5.7997,5.7997,5.7997,5.7997,5.7997,5.7997,5.7997,5.8008,5.802,5.802,5.8031,5.8088,5.8223,5.8246,5.8356,5.8556,5.8681,5.8885,5.9169,5.9354,5.9652,6.0106,6.0275,6.0455,6.0691,6.0752,6.0787,6.0787,6.0787,6.0787,6.0787,6.0787,6.0787,5.2182,5.2182,5.26,5.4258,0.0,0.0,5.729,5.8257,5.8856,5.9348,6.0554,6.1569,6.1704,6.2821,6.3748,6.3903,6.4444,6.529,6.6588,6.6791,6.6791,6.6791,6.6136,6.548,6.4884,6.414,6.3463,6.2854,6.3396,6.3951,6.458,6.4038,6.3646,6.3511,6.2922,6.257,6.24,6.24,6.24,6.2381,6.1806,6.1501,6.1501,6.0858,6.0554,6.0554,6.0554,6.0148,5.9419,5.9284,5.9115,5.8912,5.8186,5.7991,5.8187,5.8384,5.8491,5.8667,5.9182,5.945,5.9437,5.8517,5.8393,5.8381,5.7177,5.6997,5.7251,5.7522,5.7643,5.7775,5.7927,5.7962,5.7973,5.7997,5.7997,5.7997,5.7997,5.7997,5.7997,5.7997,5.7997,5.7997,5.7997,5.7997,5.7997,5.7997,5.8088,5.8145,5.8145,5.8271,5.8404,5.8572,5.8629,5.8815,5.912,5.9234,5.9381,5.966,5.9739,5.9923,6.0244,6.0428,6.0591,6.0691,6.0752,6.0787,6.0787,6.0787,6.0787,6.0787,6.0787,6.0787,0.0,5.2903,5.3188,5.4382,0.0,0.0,0.0,5.6941,5.7229,5.7338,5.8235,5.9167,5.9539,6.052,6.1516,6.2279,6.3024,6.3903,6.4999,6.5797,6.6237,6.6237,6.5595,6.485,6.414,6.3396,6.2787,6.2434,6.2753,6.3125,6.3463,6.3159,6.2956,6.2956,6.2584,6.24,6.24,6.24,6.2231,6.1839,6.1467,6.1095,6.0689,6.0283,6.0114,6.0114,6.0114,5.9674,5.9032,5.9124,5.8924,5.8569,5.8196,5.8207,5.8491,5.8806,5.9047,5.9333,5.9876,5.9902,5.9607,5.9009,5.8697,5.8349,5.7538,5.7425,5.7619,5.7738,5.7857,5.7927,5.7985,5.7997,5.7997,5.7997,5.7997,5.7997,5.7997,5.7997,5.7997,5.7997,5.7997,5.7997,5.7997,5.7997,5.7997,5.7997,5.8099,5.8179,5.8179,5.8334,5.8529,5.875,5.8875,5.9101,5.9409,5.9566,5.9769,5.9976,6.0113,6.0304,6.0494,6.0604,6.0673,6.074,6.0769,6.0787,6.0787,6.0787,6.0787,6.0787,6.0787,6.0787,0.0,0.0,0.0,0.0,0.0,5.4769,0.0,0.0,0.0,5.5699,5.6172,5.6765,5.7374,5.8084,5.9013,6.0419,6.1264,6.2076,6.2936,6.4106,6.4986,6.5425,6.485,6.4174,6.3545,6.2719,6.2197,6.2197,6.2197,6.2197,6.2197,6.2313,6.24,6.24,6.24,6.24,6.24,6.2265,6.1873,6.1298,6.0994,6.052,5.9877,5.9742,5.9674,5.9674,5.9674,5.9355,5.885,5.9052,5.8857,5.8385,5.8314,5.8509,5.8875,5.9284,5.9683,6.0052,6.0412,6.0202,5.9724,5.9358,5.8691,5.8047,5.7777,5.7763,5.7845,5.7845,5.7927,5.7997,5.7997,5.7997,5.7997,5.7997,5.7997,5.7997,5.7997,5.7997,5.7997,5.7997,5.7997,5.7997,5.7997,5.7997,5.8008,5.8031,5.8156,5.8268,5.8312,5.8492,5.8733,5.8945,5.914,5.9381,5.9681,5.989,6.0098,6.0289,6.0453,6.0585,6.071,6.071,6.0734,6.0781,6.0787,6.0787,6.0787,6.0787,6.0787,6.0787,6.0787,6.0787,0.0,0.0,0.0,0.0,5.4617,0.0,0.0,0.0,5.5699,5.5699,0.0,5.5834,5.5936,0.0,0.0,5.817,5.8896,5.9892,6.1366,6.1704,6.2516,6.4478,6.4072,6.3579,6.3511,6.2245,6.1434,6.1434,6.1434,6.1434,6.1434,6.2042,6.24,6.24,6.24,6.24,6.24,6.1738,6.14,6.1298,5.9892,5.9216,5.9081,5.8457,5.817,5.817,5.817,5.8194,5.8307,5.852,5.8822,5.9149,5.8789,5.8892,5.9267,5.9746,6.0258,6.063,6.0411,6.0428,6.039,5.9218,5.8458,5.8002,5.7987,5.7962,5.7973,5.7973,5.7985,5.7997,5.7997,5.7997,5.7997,5.7997,5.7997,5.7997,5.7997,5.7997,5.7997,5.7997,5.7997,5.7997,5.7997,5.7997,5.8031,5.8145,5.8345,5.8513,5.8712,5.9014,5.9281,5.951,5.9694,5.9914,6.0121,6.0335,6.0493,6.0635,6.066,6.0703,6.0775,6.0775,6.0775,6.0787,6.0787,6.0787,6.0787,6.0787,6.0787,6.0787,6.0787,6.0787,0.0,0.0,0.0,0.0,0.0,0.0,0.0,0.0,5.4414,0.0,0.0,0.0,0.0,0.0,0.0,0.0,5.7239,5.7949,5.8592,5.9066,6.0148,6.2415,6.2415,6.2042,6.1549,6.14,6.1129,6.0655,6.1028,6.1298,6.1298,6.2009,6.24,6.24,6.24,6.24,6.24,6.167,6.1061,6.0588,5.952,5.8776,5.8355,5.8017,5.79,5.79,5.8009,5.8205,5.8419,5.8806,5.92,5.9601,5.9746,5.9892,6.0119,6.0534,6.0971,6.1265,6.086,6.0537,6.0056,5.8689,5.8113,5.7997,5.7997,5.7997,5.7997,5.7997,5.7997,5.7997,5.7997,5.7997,5.7997,5.7997,5.7997,5.7997,5.7997,5.7997,5.7997,5.7997,5.8054,5.8122,5.8153,5.8145,5.8167,5.8356,5.8535,5.8754,5.8937,5.9272,5.9552,5.9744,5.9953,6.0173,6.037,6.052,6.0635,6.0691,6.0728,6.0757,6.0781,6.0787,6.0787,6.0787,6.0787,6.0787,6.0787,6.0787,6.0787,6.0787,6.0787,6.0787,5.3788,0.0,0.0,0.0,0.0,0.0,0.0,0.0,0.0,0.0,0.0,0.0,0.0,0.0,0.0,0.0,0.0,5.6258,5.6461,5.6968,5.8152,6.0419,6.0858,6.0757,6.0148,6.0452,6.0419,5.9844,6.0351,6.0757,6.096,6.167,6.2178,6.2381,6.24,6.24,6.24,6.167,6.0892,6.008,5.9351,5.8626,5.79,5.7954,5.7972,5.7991,5.8225,5.8474,5.8771,5.9267,5.973,6.018,6.0691,6.0983,6.1051,6.125,6.1536,6.1756,6.1022,6.0196,5.9274,5.82,5.7927,5.7997,5.7997,5.7997,5.7997,5.7997,5.7997,5.7997,5.7997,5.7997,5.7997,5.7997,5.7997,5.7997,5.7997,5.7997,5.8008,5.8042,5.8145,5.8279,5.8417,5.84,5.8411,5.8629,5.8855,5.9045,5.9279,5.9566,5.9847,6.0045,6.0246,6.0387,6.0533,6.0654,6.0722,6.0722,6.0763,6.0787,6.0787,6.0787,6.0787,6.0787,6.0787,6.0787,6.0787,6.0787,6.0787,6.0787,6.0787,6.0793,0.0,0.0,0.0,5.4414,0.0,0.0,0.0,0.0,5.3518,0.0,0.0,0.0,0.0,0.0,0.0,0.0,0.0,0.0,0.0,5.5767,5.6578,5.881,5.9689,6.0148,6.0114,5.9471,5.9047,5.9047,5.9047,5.9404,6.0114,6.0892,6.167,6.24,6.24,6.24,6.24,6.167,6.0892,6.008,5.9351,5.8626,5.79,5.8081,5.8205,5.8189,5.8562,5.8909,5.9319,5.9779,6.0364,6.1022,6.1487,6.1837,6.2105,6.1795,6.1914,6.1994,6.0662,5.9273,5.8058,5.8033,5.7997,5.7997,5.7997,5.7997,5.7997,5.7997,5.7997,5.7997,5.7997,5.7997,5.7997,5.7997,5.7997,5.7997,5.7997,5.7997,5.8031,5.8156,5.8268,5.8417,5.8733,5.8739,5.8791,5.9035,5.9253,5.9505,5.9828,6.0053,6.0254,6.0453,6.0597,6.0685,6.0685,6.0746,6.0781,6.0781,6.0781,6.0787,6.0787,6.0787,6.0787,6.0787,6.0787,6.0787,6.0787,6.0787,6.0787,6.0787,6.0787,6.0816,0.0,0.0,5.4887,5.4668,0.0,0.0,0.0,0.0,0.0,0.0,0.0,0.0,0.0,0.0,0.0,0.0,0.0,0.0,0.0,5.4668,5.5243,5.5987,5.7577,5.8457,5.7949,5.8573,5.8776,5.8321,5.8727,5.9115,5.9351,6.0622,6.14,6.167,6.2144,6.24,6.24,6.167,6.0892,6.008,5.9482,5.8809,5.8099,5.8403,5.8614,5.8754,5.9216,5.9615,6.0024,6.0564,6.106,6.1501,6.1864,6.2145,6.2318,6.2318,6.2006,6.1452,6.0018,5.8879,5.7997,5.7997,5.7997,5.7997,5.7997,5.7997,5.7997,5.7997,5.7997,5.7997,5.7997,5.7997,5.7997,5.7997,5.7997,5.802,5.8099,5.8122,5.8179,5.8367,5.8524,5.8754,5.9082,5.929,5.9452,5.9496,5.9652,5.9828,6.0143,6.0304,6.0459,6.061,6.0667,6.071,6.0752,6.0775,6.0787,6.0787,6.0787,6.0787,6.0787,6.0787,6.0787,6.0787,6.0787,6.0787,6.0787,6.0821,6.0883,6.0883,6.0921,6.091,5.6071,5.5902,0.0,5.5446,5.5175,0.0,5.4397,0.0,0.0,0.0,0.0,0.0,0.0,0.0,0.0,0.0,0.0,0.0,0.0,5.3923,0.0,0.0,0.0,5.6934,5.6461,5.7509,5.8017,5.7543,5.8186,5.8727,0.0,6.0182,6.0994,6.1298,6.2009,6.24,6.24,6.1907,6.1201,6.0209,5.9865,5.9212,5.8385,5.8754,5.9064,5.9334,5.9892,6.0337,6.0641,6.1235,6.1684,6.196,6.1911,6.2008,6.2137,6.2481,6.1933,6.0884,5.9637,5.8682,5.7997,5.7997,5.7997,5.7997,5.7997,5.7997,5.7997,5.7997,5.7997,5.7997,5.7997,5.7997,5.8008,5.8054,5.8065,5.8111,5.8268,5.8334,5.8443,5.8671,5.8895,5.9112,5.9452,5.9752,5.9922,5.9874,6.0007,6.0187,6.039,6.0533,6.0604,6.0716,6.0728,6.0746,6.0781,6.0787,6.0787,6.0787,6.0787,6.0787,6.0787,6.0787,6.0787,6.0787,6.0804,6.0854,6.0854,6.0894,6.0943,6.0964,6.1056,6.1112]}]]